[[{"header":{"parameterUnit":"m.s-1","parameterCategory":1,"la1":30.6,"la2":28.766,"lo1":-90.7593,"lo2":-88.6598,"dy":0.0162,"dx":0.0183,"nx":116,"ny":114,"refTime":"2024-04-15T12:00:00:Z","depth":0,"parameterNumber":2,"parameterNumberName":"U-component_of_WINDS"},"data":[0.0,0.0,0.0,0.0,0.0,0.0,0.0,0.0,0.0,0.0,0.0,0.0,0.0,0.0,0.0,0.0,0.0,0.0,0.0,0.0,0.0,0.0,0.0,0.0,0.0,0.0,0.0,0.0,0.0,0.0,0.0,0.0,0.0,0.0,0.0,0.0,0.0,0.0,0.0,0.0,0.0,0.0,0.0,0.0,0.0,0.0,0.0,0.0,0.0,0.0,0.0,0.0,0.0,0.0,0.0,0.0,0.0,0.0,0.0,0.0,0.0,0.0,0.0,0.0,0.0,0.0,0.0,0.0,0.0,0.0,0.0,0.0,0.0,0.0,0.0,0.0,0.0,0.0,0.0,0.0,0.0,0.0,0.0,0.0,0.0,0.0,0.0,0.0,0.0,0.0,0.0,0.0,0.0,0.0,0.0,0.0,0.0,0.0,0.0,0.0,0.0,0.0,0.0,0.0,0.0,0.0,0.0,0.0,0.0,0.0,0.0,0.0,0.0,0.0,0.0,0.0,0.0,0.0,0.0,0.0,0.0,0.0,0.0,0.0,0.0,0.0,0.0,0.0,0.0,0.0,0.0,0.0,0.0,0.0,0.0,0.0,0.0,0.0,0.0,0.0,0.0,0.0,0.0,0.0,0.0,0.0,0.0,0.0,0.0,0.0,0.0,0.0,0.0,0.0,0.0,0.0,0.0,0.0,0.0,0.0,0.0,0.0,0.0,0.0,0.0,0.0,0.0,0.0,0.0,0.0,0.0,0.0,0.0,0.0,0.0,0.0,0.0,0.0,0.0,0.0,0.0,0.0,0.0,0.0,0.0,0.0,0.0,0.0,0.0,0.0,0.0,0.0,0.0,0.0,0.0,0.0,0.0,0.0,0.0,0.0,0.0,0.0,0.0,0.0,0.0,0.0,0.0,0.0,0.0,0.0,0.0,0.0,0.0,0.0,0.0,0.0,0.0,0.0,0.0,0.0,0.0,0.0,0.0,0.0,0.0,0.0,0.0,0.0,0.0,0.0,0.0,0.0,0.0,0.0,0.0,0.0,0.0,0.0,0.0,0.0,0.0,0.0,0.0,0.0,0.0,0.0,0.0,0.0,0.0,0.0,0.0,0.0,0.0,0.0,0.0,0.0,0.0,0.0,0.0,0.0,0.0,0.0,0.0,0.0,0.0,0.0,0.0,0.0,0.0,0.0,0.0,0.0,0.0,0.0,0.0,0.0,0.0,0.0,0.0,0.0,0.0,0.0,0.0,0.0,0.0,0.0,0.0,0.0,0.0,0.0,0.0,0.0,0.0,0.0,0.0,0.0,0.0,0.0,0.0,0.0,0.0,0.0,0.0,0.0,0.0,0.0,0.0,0.0,0.0,0.0,0.0,0.0,0.0,0.0,0.0,0.0,0.0,0.0,0.0,0.0,0.0,0.0,0.0,0.0,0.0,0.0,0.0,0.0,0.0,0.0,0.0,0.0,0.0,0.0,0.0,0.0,0.0,0.0,0.0,0.0,0.0,0.0,0.0,0.0,0.0,0.0,0.0,0.0,0.0,0.0,0.0,0.0,0.0,0.0,0.0,0.0,0.0,0.0,0.0,0.0,0.0,0.0,0.0,0.0,0.0,0.0,0.0,0.0,0.0,0.0,0.0,0.0,0.0,0.0,0.0,0.0,0.0,0.0,0.0,0.0,0.0,0.0,0.0,0.0,0.0,0.0,0.0,0.0,0.0,0.0,0.0,0.0,0.0,0.0,0.0,0.0,0.0,0.0,0.0,0.0,0.0,0.0,0.0,0.0,0.0,0.0,0.0,0.0,0.0,0.0,0.0,0.0,0.0,0.0,0.0,0.0,0.0,0.0,0.0,0.0,0.0,0.0,0.0,0.0,0.0,0.0,0.0,0.0,0.0,0.0,0.0,0.0,0.0,0.0,0.0,0.0,0.0,0.0,0.0,0.0,0.0,0.0,0.0,0.0,0.0,0.0,0.0,0.0,0.0,0.0,0.0,0.0,0.0,0.0,0.0,0.0,0.0,0.0,0.0,0.0,0.0,0.0,0.0,0.0,0.0,0.0,0.0,0.0,0.0,0.0,0.0,0.0,0.0,0.0,0.0,0.0,0.0,0.0,0.0,0.0,0.0,0.0,0.0,0.0,0.0,0.0,0.0,0.0,0.0,0.0,0.0,0.0,0.0,0.0,0.0,0.0,0.0,0.0,0.0,0.0,0.0,0.0,0.0,0.0,0.0,0.0,0.0,0.0,0.0,0.0,0.0,0.0,0.0,0.0,0.0,0.0,0.0,0.0,0.0,0.0,0.0,0.0,0.0,0.0,0.0,0.0,0.0,0.0,0.0,0.0,0.0,0.0,0.0,0.0,0.0,0.0,0.0,0.0,0.0,0.0,0.0,0.0,0.0,0.0,0.0,0.0,0.0,0.0,0.0,0.0,0.0,0.0,0.0,0.0,0.0,0.0,0.0,0.0,0.0,0.0,0.0,0.0,0.0,0.0,0.0,0.0,0.0,0.0,0.0,0.0,0.0,0.0,0.0,0.0,0.0,0.0,0.0,0.0,0.0,0.0,0.0,0.0,0.0,0.0,0.0,0.0,0.0,0.0,0.0,0.0,0.0,0.0,0.0,0.0,0.0,0.0,0.0,0.0,0.0,0.0,0.0,0.0,0.0,0.0,0.0,0.0,0.0,0.0,0.0,0.0,0.0,0.0,0.0,0.0,0.0,0.0,0.0,0.0,0.0,0.0,0.0,0.0,0.0,0.0,0.0,0.0,0.0,0.0,0.0,0.0,0.0,0.0,0.0,0.0,0.0,0.0,0.0,0.0,0.0,0.0,0.0,0.0,0.0,0.0,0.0,0.0,0.0,0.0,0.0,0.0,0.0,0.0,0.0,0.0,0.0,0.0,0.0,0.0,0.0,0.0,0.0,0.0,0.0,0.0,0.0,0.0,0.0,0.0,0.0,0.0,0.0,0.0,0.0,0.0,0.0,0.0,0.0,0.0,0.0,0.0,0.0,0.0,0.0,0.0,0.0,0.0,0.0,0.0,0.0,0.0,0.0,0.0,0.0,0.0,0.0,0.0,0.0,0.0,0.0,0.0,0.0,0.0,0.0,0.0,0.0,0.0,0.0,0.0,0.0,0.0,0.0,0.0,0.0,0.0,0.0,0.0,0.0,0.0,0.0,0.0,0.0,0.0,0.0,0.0,0.0,0.0,0.0,0.0,0.0,0.0,0.0,0.0,0.0,0.0,0.0,0.0,0.0,0.0,0.0,0.0,0.0,0.0,0.0,0.0,0.0,0.0,0.0,0.0,0.0,0.0,0.0,0.0,0.0,0.0,0.0,0.0,0.0,0.0,0.0,0.0,0.0,0.0,0.0,0.0,0.0,0.0,0.0,0.0,0.0,0.0,0.0,0.0,0.0,0.0,0.0,0.0,0.0,0.0,0.0,0.0,0.0,0.0,0.0,0.0,0.0,0.0,0.0,0.0,0.0,0.0,0.0,0.0,0.0,0.0,0.0,0.0,0.0,0.0,0.0,0.0,0.0,0.0,0.0,0.0,0.0,0.0,0.0,0.0,0.0,0.0,0.0,0.0,0.0,0.0,0.0,0.0,0.0,0.0,0.0,0.0,0.0,0.0,0.0,0.0,0.0,0.0,0.0,0.0,0.0,0.0,0.0,0.0,0.0,0.0,0.0,0.0,0.0,0.0,0.0,0.0,0.0,0.0,0.0,0.0,0.0,0.0,0.0,0.0,0.0,0.0,0.0,0.0,0.0,0.0,0.0,0.0,0.0,0.0,0.0,0.0,0.0,0.0,0.0,0.0,0.0,0.0,0.0,0.0,0.0,0.0,0.0,0.0,0.0,0.0,0.0,0.0,0.0,0.0,0.0,0.0,0.0,0.0,0.0,0.0,0.0,0.0,0.0,0.0,0.0,0.0,0.0,0.0,0.0,0.0,0.0,0.0,0.0,0.0,0.0,0.0,0.0,0.0,0.0,0.0,0.0,0.0,0.0,0.0,0.0,0.0,0.0,0.0,0.0,0.0,0.0,0.0,0.0,0.0,0.0,0.0,0.0,0.0,0.0,0.0,0.0,0.0,0.0,0.0,0.0,0.0,0.0,0.0,0.0,0.0,0.0,0.0,0.0,0.0,0.0,0.0,0.0,0.0,0.0,0.0,0.0,0.0,0.0,0.0,0.0,0.0,0.0,0.0,0.0,0.0,0.0,0.0,0.0,0.0,0.0,0.0,0.0,0.0,0.0,0.0,0.0,0.0,0.0,0.0,0.0,0.0,0.0,0.0,0.0,0.0,0.0,0.0,0.0,0.0,0.0,0.0,0.0,0.0,0.0,0.0,0.0,0.0,0.0,0.0,0.0,0.0,0.0,0.0,0.0,0.0,0.0,0.0,0.0,0.0,0.0,0.0,0.0,0.0,0.0,0.0,0.0,0.0,0.0,0.0,0.0,0.0,0.0,0.0,0.0,0.0,0.0,0.0,0.0,0.0,0.0,0.0,0.0,0.0,0.0,0.0,0.0,0.0,0.0,0.0,0.0,0.0,0.0,0.0,0.0,0.0,0.0,0.0,0.0,0.0,0.0,0.0,0.0,0.0,0.0,0.0,0.0,0.0,0.0,0.0,0.0,0.0,0.0,0.0,0.0,0.0,0.0,0.0,0.0,0.0,0.0,0.0,0.0,0.0,0.0,0.0,0.0,0.0,0.0,0.0,0.0,0.0,0.0,0.0,0.0,0.0,0.0,0.0,0.0,0.0,0.0,0.0,0.0,0.0,0.0,0.0,0.0,0.0,0.0,0.0,0.0,0.0,0.0,0.0,0.0,0.0,0.0,0.0,0.0,0.0,0.0,0.0,0.0,0.0,0.0,0.0,0.0,0.0,0.0,0.0,0.0,0.0,0.0,0.0,0.0,0.0,0.0,0.0,0.0,0.0,0.0,0.0,0.0,0.0,0.0,0.0,0.0,0.0,0.0,0.0,0.0,0.0,0.0,0.0,0.0,0.0,0.0,0.0,0.0,0.0,0.0,0.0,0.0,0.0,0.0,0.0,0.0,0.0,0.0,0.0,0.0,0.0,0.0,0.0,0.0,0.0,0.0,0.0,0.0,0.0,0.0,0.0,0.0,0.0,0.0,0.0,0.0,0.0,0.0,0.0,0.0,0.0,0.0,0.0,0.0,0.0,0.0,0.0,0.0,0.0,0.0,0.0,0.0,0.0,0.0,0.0,0.0,0.0,0.0,0.0,0.0,0.0,0.0,0.0,0.0,0.0,0.0,0.0,0.0,0.0,0.0,0.0,0.0,0.0,0.0,0.0,0.0,0.0,0.0,0.0,0.0,0.0,0.0,0.0,0.0,0.0,0.0,0.0,0.0,0.0,0.0,0.0,0.0,0.0,0.0,0.0,0.0,0.0,0.0,0.0,0.0,0.0,0.0,0.0,0.0,0.0,0.0,0.0,0.0,0.0,0.0,0.0,0.0,0.0,0.0,0.0,0.0,0.0,0.0,0.0,0.0,0.0,0.0,0.0,0.0,0.0,0.0,0.0,0.0,0.0,0.0,0.0,0.0,0.0,0.0,0.0,0.0,0.0,0.0,0.0,0.0,0.0,0.0,0.0,0.0,0.0,0.0,0.0,0.0,0.0,0.0,0.0,0.0,0.0,0.0,0.0,0.0,0.0,0.0,0.0,0.0,0.0,0.0,0.0,0.0,0.0,0.0,0.0,0.0,0.0,0.0,0.0,0.0,0.0,0.0,0.0,0.0,0.0,0.0,0.0,0.0,0.0,0.0,0.0,0.0,0.0,0.0,0.0,0.0,0.0,0.0,0.0,0.0,0.0,0.0,0.0,0.0,0.0,0.0,0.0,0.0,0.0,0.0,0.0,0.0,0.0,0.0,0.0,0.0,0.0,0.0,0.0,0.0,0.0,0.0,0.0,0.0,0.0,0.0,0.0,0.0,0.0,0.0,0.0,0.0,0.0,0.0,0.0,0.0,0.0,0.0,0.0,0.0,0.0,0.0,0.0,0.0,0.0,0.0,0.0,0.0,0.0,0.0,0.0,0.0,0.0,0.0,0.0,0.0,0.0,0.0,0.0,-3.5154,0.0,0.0,0.0,0.0,0.0,0.0,0.0,0.0,0.0,0.0,0.0,0.0,0.0,0.0,0.0,0.0,0.0,0.0,0.0,0.0,0.0,0.0,0.0,0.0,-4.4615,-4.4615,-4.4615,-4.4615,-4.4615,-4.4615,0.0,0.0,0.0,0.0,0.0,-4.2828,-4.2489,-4.2658,-4.343,-4.3098,-4.2503,-4.171,-4.3135,-4.3857,-4.4006,0.0,0.0,0.0,0.0,0.0,0.0,0.0,0.0,0.0,0.0,0.0,0.0,0.0,0.0,0.0,0.0,0.0,0.0,0.0,0.0,0.0,0.0,0.0,0.0,0.0,0.0,0.0,0.0,0.0,0.0,0.0,0.0,0.0,0.0,0.0,0.0,0.0,0.0,0.0,0.0,0.0,0.0,0.0,0.0,0.0,0.0,0.0,0.0,0.0,0.0,0.0,0.0,0.0,0.0,0.0,0.0,0.0,0.0,0.0,0.0,0.0,0.0,0.0,0.0,0.0,0.0,0.0,0.0,0.0,0.0,0.0,-3.5501,0.0,0.0,0.0,0.0,0.0,0.0,0.0,0.0,0.0,0.0,0.0,0.0,0.0,0.0,0.0,0.0,0.0,0.0,0.0,0.0,0.0,-4.4649,-4.4784,-4.4818,-4.4852,-4.4987,-4.4886,-4.4818,-4.4818,-4.4682,0.0,0.0,0.0,-4.3606,-4.3606,-4.2997,-4.3261,-4.4384,-4.2328,-4.1794,-4.2752,-4.3815,-4.4073,-4.3676,-4.4489,0.0,0.0,0.0,0.0,0.0,0.0,0.0,0.0,0.0,0.0,0.0,0.0,0.0,0.0,0.0,0.0,0.0,0.0,0.0,0.0,0.0,0.0,0.0,0.0,0.0,0.0,0.0,0.0,0.0,0.0,0.0,0.0,0.0,0.0,0.0,0.0,0.0,0.0,0.0,0.0,0.0,0.0,0.0,0.0,0.0,0.0,0.0,0.0,0.0,0.0,0.0,0.0,0.0,0.0,0.0,0.0,0.0,0.0,0.0,0.0,0.0,0.0,0.0,-4.5872,-4.6143,-4.5906,-4.5771,-4.435,-4.188,-3.9918,-3.755,-3.5115,-3.5622,0.0,0.0,0.0,0.0,0.0,0.0,0.0,0.0,0.0,0.0,0.0,0.0,0.0,0.0,0.0,0.0,0.0,0.0,0.0,-4.4823,-4.55,-4.5568,-4.5805,-4.6447,-4.5906,-4.5568,-4.5568,-4.4959,-4.4615,-4.4615,-4.4513,-4.4445,-4.4445,-4.4344,-4.4045,-4.3572,-4.2389,-4.2831,-4.4777,-4.4724,-4.4685,-4.4565,-4.3162,-4.3589,-4.5107,0.0,0.0,0.0,0.0,0.0,0.0,0.0,0.0,0.0,0.0,0.0,0.0,0.0,0.0,0.0,0.0,0.0,0.0,0.0,0.0,0.0,0.0,0.0,0.0,0.0,0.0,0.0,0.0,0.0,0.0,0.0,0.0,0.0,0.0,0.0,0.0,0.0,0.0,0.0,0.0,0.0,-3.9073,-3.974,0.0,0.0,0.0,0.0,0.0,0.0,0.0,0.0,0.0,0.0,0.0,0.0,0.0,-4.5399,-4.6041,-4.753,-4.7665,-4.6515,-4.7902,-4.7902,-4.6616,-4.6007,-4.55,-4.506,-4.4113,0.0,-3.7415,-3.6897,0.0,0.0,0.0,0.0,0.0,0.0,0.0,0.0,0.0,0.0,0.0,0.0,0.0,0.0,0.0,0.0,0.0,0.0,0.0,0.0,0.0,-4.6075,-4.6616,-4.7361,-4.8274,-4.8105,-4.6413,-4.6413,-4.5703,-4.4012,-4.3944,-4.3944,-4.3944,-4.3944,-4.3775,-4.3375,-4.4027,-4.4393,-4.4539,-4.4127,-4.3968,-4.3905,-4.2775,-4.3105,-4.4358,-4.1366,0.0,0.0,0.0,0.0,0.0,0.0,0.0,0.0,0.0,0.0,0.0,0.0,0.0,0.0,0.0,0.0,0.0,0.0,0.0,0.0,0.0,0.0,0.0,0.0,0.0,0.0,0.0,0.0,0.0,0.0,0.0,0.0,0.0,0.0,0.0,0.0,0.0,0.0,0.0,-4.0595,-4.1636,-4.0282,-4.188,-4.2489,0.0,0.0,0.0,0.0,0.0,0.0,0.0,0.0,0.0,-4.6447,-4.7564,-4.8308,-4.8646,-5.0101,-5.0541,-4.9898,-5.1014,-5.0947,-4.9864,-4.956,-4.8951,-4.8139,-4.7834,-4.5872,-4.2726,-4.0257,-3.8531,-3.7347,0.0,0.0,0.0,0.0,-3.6129,-3.6366,0.0,0.0,0.0,0.0,0.0,0.0,0.0,0.0,0.0,0.0,0.0,0.0,-4.6109,-4.6921,-4.78,-4.8951,-5.0002,-4.9864,-4.8037,-4.7022,-4.5737,-4.4079,-4.3612,-4.3375,-4.3375,-4.3781,-4.4282,-4.4829,-4.5896,-4.6042,-4.5365,-4.4625,-4.4306,-4.4276,-4.3838,-4.4109,-4.4657,-4.1691,-4.0581,-4.0758,0.0,0.0,0.0,0.0,0.0,0.0,0.0,0.0,0.0,0.0,0.0,0.0,0.0,0.0,0.0,0.0,0.0,0.0,0.0,0.0,0.0,0.0,0.0,0.0,0.0,0.0,0.0,0.0,0.0,0.0,0.0,0.0,0.0,0.0,0.0,0.0,0.0,-4.2861,-4.4005,-4.1534,-4.4242,-4.5162,0.0,0.0,0.0,0.0,0.0,0.0,-4.7022,-4.8342,-4.9221,-4.9627,-5.0676,-5.1319,-5.1522,-5.2638,-5.3078,-5.2909,-5.3518,-5.3382,-5.2604,-5.2401,-5.1589,-5.0371,-5.0168,-4.8951,-4.6819,-4.347,-4.0865,-3.9005,-3.8599,-3.8464,-3.8406,-3.8058,-3.8024,-3.8193,0.0,0.0,0.0,0.0,0.0,0.0,0.0,0.0,0.0,0.0,0.0,-4.3775,-4.7428,-4.8443,-4.9763,-5.1894,-5.027,-4.9661,-5.0913,-4.5703,-4.347,-4.55,-4.4153,-4.3375,-4.3375,-4.4857,-4.6616,-4.8714,-4.7556,-4.7695,-4.901,-4.769,-4.71,-4.71,-4.707,-4.7327,-4.7463,-4.2516,-4.2058,-4.4526,-4.2395,0.0,0.0,0.0,0.0,0.0,0.0,0.0,0.0,0.0,0.0,0.0,0.0,0.0,0.0,0.0,0.0,0.0,0.0,0.0,0.0,0.0,0.0,0.0,0.0,0.0,0.0,0.0,0.0,0.0,0.0,0.0,0.0,0.0,0.0,0.0,0.0,0.0,0.0,-4.4479,-4.8206,0.0,0.0,0.0,0.0,-4.6549,-4.7902,-4.9357,-5.0813,-5.1725,-5.284,-5.4194,-5.4329,-5.4702,-5.5412,-5.5478,-5.5175,-5.4465,-5.4532,-5.416,-5.3416,-5.2638,-5.1894,-5.1116,-5.0405,-4.9255,-4.7669,-4.5365,-4.3498,-4.1914,-4.0553,-3.9986,-3.9825,-3.8406,-3.8328,-3.8734,0.0,0.0,0.0,0.0,0.0,-4.1204,-4.1204,-4.2252,-4.3098,-4.3375,-4.4451,-4.6244,-4.9018,-5.1285,-5.3315,-5.504,-5.4905,-5.4126,-5.2773,-4.8443,-4.6278,-4.706,-4.4728,-4.4113,-4.5568,-4.6583,-4.797,-4.9695,-4.8893,-4.9234,-5.0607,-4.8802,-4.8386,-4.9119,-4.8745,-4.8922,-4.9152,-4.4749,-4.2823,-4.2477,-4.04,-3.9847,0.0,0.0,0.0,0.0,0.0,0.0,0.0,0.0,0.0,0.0,0.0,0.0,0.0,0.0,0.0,0.0,0.0,0.0,0.0,0.0,0.0,0.0,0.0,0.0,0.0,0.0,0.0,0.0,0.0,0.0,0.0,0.0,0.0,0.0,0.0,0.0,0.0,-4.9526,-5.2672,0.0,-4.9898,-4.9593,-4.983,-5.0304,-5.1758,-5.3247,-5.4735,-5.5987,-5.6664,-5.6697,-5.6697,-5.663,-5.6427,-5.5953,-5.5344,-5.46,-5.46,-5.3923,-5.2706,-5.2435,-5.1657,-5.0473,-5.0202,-4.9526,-4.8545,-4.7767,-4.6278,-4.435,-4.2828,-4.2219,-4.2091,-4.1102,-4.0595,-4.0324,0.0,0.0,0.0,0.0,0.0,-4.0832,-4.0832,-4.188,-4.2658,-4.2658,-4.4654,-4.709,-4.9796,-5.2773,-5.5277,-5.7002,-5.6697,-5.5683,-5.3991,-4.9187,-4.6722,-4.7496,-4.5399,-4.5128,-4.7124,-4.8376,-4.9627,-5.0845,-5.0297,-5.0486,-5.1374,-4.9506,-4.9075,-4.9912,-4.9673,-4.9703,-4.9763,-4.7339,-4.4915,-4.2551,-4.0756,-4.0882,-4.1879,0.0,0.0,0.0,0.0,0.0,0.0,0.0,0.0,0.0,0.0,0.0,0.0,0.0,0.0,0.0,0.0,0.0,0.0,0.0,0.0,0.0,0.0,0.0,0.0,0.0,0.0,0.0,0.0,0.0,0.0,0.0,0.0,0.0,0.0,-5.0439,-5.3281,-5.3754,-5.6934,-5.7679,-5.416,-5.4059,-5.4194,-5.4194,-5.5852,-5.7273,-5.8287,-5.8998,-5.9167,-5.866,-5.7915,-5.7273,-5.6799,-5.6089,-5.5344,-5.46,-5.46,-5.3788,-5.23,-5.23,-5.1488,-5.0101,-5.0101,-4.9661,-4.8984,-4.8748,-4.7767,-4.6346,-4.506,-4.4248,-4.3707,-4.2963,-4.2354,-4.188,0.0,0.0,0.0,0.0,0.0,-4.0054,-4.0054,-4.073,-4.1204,-4.1204,-4.3267,-4.6138,-4.9729,-5.2875,-5.5581,-5.7746,-5.5243,-5.3822,-5.4499,-4.7597,-4.4451,-4.6684,-4.6143,-4.6515,-4.8007,-5.0137,-5.1623,-5.2367,-5.1764,-5.1446,-5.1438,-4.9996,-4.9359,-4.9389,-5.0002,-4.9942,-4.9419,-5.0002,-4.8416,-4.5334,-4.3888,-4.4234,-4.5418,0.0,0.0,0.0,0.0,0.0,0.0,0.0,0.0,0.0,0.0,0.0,0.0,0.0,0.0,0.0,0.0,0.0,0.0,0.0,0.0,0.0,0.0,0.0,0.0,0.0,0.0,0.0,0.0,0.0,0.0,0.0,0.0,0.0,-4.8984,-5.3619,-5.69,-5.7002,-6.0892,-6.1873,-5.7476,-5.8998,-5.9641,-5.8152,-6.0114,-6.1366,-6.1332,-6.0588,-6.0148,-6.0114,-5.7949,-5.6799,-5.6765,-5.6021,-5.5277,-5.4566,-5.4566,-5.3754,-5.2266,-5.2266,-5.1454,-5.0067,-5.0067,-4.9627,-4.8917,-4.8176,-4.7872,-4.7736,-4.7056,-4.5872,-4.4547,-4.3707,-4.3375,-4.3105,0.0,0.0,0.0,-3.766,-3.8552,-3.9236,-3.9236,-4.0352,-4.1204,-4.1204,-4.506,-4.8578,-5.0676,-5.504,-5.8051,-5.866,-5.5987,-5.416,-5.3822,-4.78,-4.5026,-4.6718,-4.7631,-4.9052,-5.1048,-5.1691,-5.2638,-5.3957,-5.278,-5.2477,-5.2867,-5.0869,-5.0212,-5.072,-5.1379,-5.1289,-5.069,-5.087,-5.0106,-4.8551,-4.5323,-4.4258,-4.4408,0.0,0.0,0.0,0.0,0.0,0.0,0.0,0.0,0.0,0.0,0.0,0.0,0.0,0.0,0.0,0.0,0.0,0.0,0.0,0.0,0.0,0.0,0.0,0.0,0.0,0.0,0.0,0.0,0.0,0.0,0.0,-4.9898,-5.1995,-5.2942,-5.6156,-5.9235,-6.14,-6.37,-6.441,-6.2618,-6.3024,-6.2753,-6.1264,-6.2245,-6.2651,-6.211,-6.1366,-6.0689,-6.0114,-5.7949,-5.6562,-5.6021,-5.4735,-5.3991,-5.3788,-5.3788,-5.301,-5.1522,-5.1522,-5.071,-4.9289,-4.9289,-4.8883,-4.8176,-4.7973,-4.7263,-4.6278,-4.6075,-4.5737,-4.5229,-4.391,-4.2699,-4.1677,0.0,0.0,0.0,-3.6762,-3.7704,-3.8553,-3.8854,-3.9947,-4.0755,-4.0738,-4.5297,-4.8984,-5.0168,-5.4397,-5.7171,-5.7171,-5.5006,-5.2942,-5.1285,-4.7597,-4.5872,-4.6752,-4.9086,-5.098,-5.2266,-5.3247,-5.3921,-5.4374,-5.3396,-5.2863,-5.2734,-5.1318,-5.0794,-5.1259,-5.1917,-5.1977,-5.1618,-5.1618,-5.1409,-5.081,-4.7894,-4.695,-4.692,-4.4287,-4.3805,-4.4372,-4.3852,-4.4424,-4.5282,-4.4397,0.0,0.0,0.0,0.0,0.0,0.0,0.0,0.0,0.0,0.0,0.0,0.0,0.0,0.0,0.0,0.0,0.0,0.0,0.0,0.0,0.0,0.0,0.0,0.0,-5.2841,-5.5581,-5.7577,-5.9336,-6.1434,-6.4106,-6.5459,-6.5865,-6.5121,-6.5358,-6.4783,-6.299,-6.3531,-6.3362,-6.2009,-6.1197,-6.0452,-5.9674,-5.7509,-5.6156,-5.5681,-5.4262,-5.3518,-5.3518,-5.3518,-5.2706,-5.1185,-5.1185,-5.0405,-4.9018,-4.9018,-4.8781,-4.8308,-4.7699,-4.6921,0.0,0.0,0.0,0.0,0.0,-4.2658,-4.1542,0.0,0.0,0.0,-3.6296,-3.7071,-3.7809,-3.8663,-3.9441,-3.9999,-4.0079,-4.4587,-4.797,-4.8443,-5.1928,-5.4228,-5.4228,-5.2739,-5.071,-4.8075,-4.7293,-4.7056,-4.7394,-5.0642,-5.2503,-5.2672,-5.4769,-5.5252,-5.4124,-5.3793,-5.307,-5.1902,-5.1409,-5.1229,-5.1259,-5.1977,-5.2276,-5.2217,-5.2366,-5.2336,-5.2097,-5.0883,-5.0614,-5.072,-4.8327,-4.7698,-4.8009,-4.7578,-4.6467,-4.5208,-4.5195,0.0,0.0,0.0,0.0,0.0,0.0,0.0,0.0,0.0,0.0,0.0,0.0,0.0,0.0,0.0,0.0,0.0,0.0,0.0,0.0,0.0,0.0,0.0,0.0,-5.5852,-5.8558,-6.2144,-6.2651,-6.3396,-6.5459,-6.6339,-6.6508,-6.5764,-6.6305,-6.5831,-6.3802,-6.4174,-6.3565,-6.14,0.0,0.0,0.0,0.0,-5.5683,-5.5581,-5.4194,-5.3518,-5.3518,-5.3518,-5.2706,-5.1185,-5.1185,-5.0405,-4.9018,-4.9018,-4.8951,-4.8781,-4.7462,-4.6819,-4.6583,-4.5872,-4.5128,-4.4378,-4.3572,-4.2828,-4.2049,0.0,0.0,0.0,-3.4,-3.5182,-3.6485,-3.7812,-3.8655,-3.9375,-4.0011,-4.4113,-4.6616,-4.5596,-4.9289,-5.186,-5.186,-4.9965,-4.8514,-4.7939,-4.777,-4.8748,-5.1116,-5.2536,-5.3822,-5.504,-5.6055,-5.6023,-5.4881,-5.4576,-5.3809,-5.267,-5.1666,-5.1229,-5.1259,-5.2456,-5.2695,-5.2276,-5.3354,-5.3204,-5.2187,-5.1917,-5.093,-4.9569,-4.8506,-4.7519,-4.6591,-4.6003,-4.6557,-4.7419,-4.602,-4.5979,-4.6316,-4.533,-4.3532,0.0,0.0,0.0,0.0,0.0,0.0,0.0,0.0,0.0,0.0,0.0,0.0,0.0,0.0,0.0,0.0,0.0,0.0,0.0,-5.6494,-5.8964,-6.1298,-6.3835,-6.4174,-6.4546,-6.5561,-6.6339,-6.6508,-6.5764,-6.5831,-6.5493,-6.4478,-6.3971,-6.3024,-6.14,-6.0554,-5.9471,-5.8152,-5.6562,-5.5412,-5.4803,-5.3957,-5.3518,-5.3518,0.0,0.0,-5.1185,-5.1185,-5.0405,-4.9018,-4.9018,-4.868,-4.8075,-4.78,-4.6989,-4.5838,-4.5094,-4.4316,-4.3538,-4.2794,-4.2049,-4.1305,0.0,0.0,0.0,-3.3395,-3.4364,-3.5554,-3.699,-3.7496,-3.8157,-3.9342,-4.2124,-4.3823,-4.3476,-4.577,-4.7302,-4.7316,-4.6309,-4.6114,-4.7293,-4.8409,-4.9999,-5.2198,-5.4126,-5.5513,-5.6258,-5.6968,-5.6504,-5.4817,-5.5031,-5.4234,-5.2505,-5.2292,-5.2187,-5.2247,-5.3234,-5.3503,-5.3234,-5.3922,-5.3623,-5.2665,-5.2336,-5.1409,-5.0212,-4.9883,-4.8925,-4.7758,-4.7399,-4.7279,-4.7126,-4.592,-4.5414,-4.515,-4.4415,-4.3296,-4.2229,0.0,0.0,0.0,0.0,0.0,0.0,0.0,0.0,0.0,0.0,0.0,0.0,0.0,0.0,-4.9999,-5.1523,0.0,-5.7543,-5.9776,-6.2042,-6.3768,-6.4512,-6.4918,-6.5155,-6.5155,-6.5459,-6.5561,-6.5189,-6.5155,-6.485,-6.4106,-6.3734,-6.2685,-6.0791,-6.0317,-5.9235,-5.7408,-5.6292,-5.5344,-5.46,-5.3856,-5.3518,-5.3518,-5.3518,-5.2909,-5.1758,-5.1386,-5.0608,-4.9526,-4.9154,-4.8815,-4.8409,-4.7665,-4.6718,-4.5635,-4.4886,-4.435,-4.391,-4.3132,-4.2388,-4.1644,0.0,0.0,0.0,-3.3185,-3.3844,-3.4785,-3.6199,-3.6538,-3.7114,-3.8525,-3.9962,-4.1005,-4.1402,-4.2192,-4.2747,-4.2745,-4.3389,-4.4726,-4.6877,-4.9227,-5.1251,-5.2909,-5.5547,-5.7002,-5.7002,-5.7746,-5.701,-5.4781,-5.5485,-5.4648,-5.2396,-5.2935,-5.3174,-5.3204,-5.3892,-5.4221,-5.4221,-5.4341,-5.4012,-5.3324,-5.2665,-5.1917,-5.1199,-5.1282,-5.0545,-4.9434,-4.9209,-4.7728,-4.5903,-4.5603,-4.4526,-4.3259,-4.3031,-4.315,-4.3024,-4.161,-4.2559,0.0,0.0,0.0,0.0,0.0,0.0,0.0,0.0,-4.6752,-4.7327,-4.9224,-5.1623,-5.3991,-5.5987,-5.866,-6.1061,-6.2584,-6.4309,-6.5222,-6.4478,-6.4749,-6.4647,-6.3632,-6.4174,-6.4478,-6.4208,-6.4309,-6.414,-6.3565,-6.326,-6.2212,-6.0216,-5.9844,-5.8727,-5.6664,-5.5886,-5.5141,-5.4397,-5.3788,-5.3518,-5.3518,-5.3518,-5.3078,-5.2266,-5.1555,-5.0811,-5.0067,-4.9323,-4.9018,-4.8917,-4.7564,-4.6583,-4.5838,-4.5094,-4.475,-4.4513,-4.3707,-4.2929,-4.2185,0.0,0.0,0.0,0.0,0.0,-3.4091,-3.5488,-3.6228,-3.6904,-3.7822,-3.9189,-3.9668,-3.8447,-3.9539,-4.0373,-4.0367,-4.3436,-4.6011,-4.7601,-5.0455,-5.3044,-5.5243,-5.69,-5.778,-5.778,-5.849,-5.7737,-5.5474,-5.6221,-5.5413,-5.3084,-5.3144,-5.3174,-5.3204,-5.3892,-5.4221,-5.4251,-5.485,-5.47,-5.4042,-5.3354,-5.2336,-5.1233,-5.1603,-5.1044,-4.9927,-4.8805,-4.6741,-4.4706,-4.5843,-4.4874,-4.3509,-4.4608,-4.5248,-4.5259,-4.3764,-4.3324,-4.3138,-4.2238,-4.2639,-4.4119,-4.7518,-4.6955,-4.7158,0.0,-5.2469,-5.1589,-5.5074,-5.6596,-5.7543,-5.8457,-6.0554,-6.2618,-6.4106,-6.4546,-6.4478,-6.3734,-6.3125,-6.1975,-5.9877,-6.2584,-6.4072,-6.2753,-6.326,-6.3599,-6.3531,-6.2313,-6.1129,-6.0148,-5.8863,-5.7442,-5.5886,-5.5108,-5.4363,-5.3619,-5.3551,-5.3518,-5.3518,-5.3518,-5.3078,-5.2266,-5.1555,-5.0811,-5.0067,-4.9323,-4.9018,-4.8951,-4.8139,-4.7361,-4.6583,-4.5872,-4.5162,-4.4513,-4.3707,-4.2929,-4.2185,0.0,0.0,0.0,0.0,0.0,-3.3396,-3.4759,-3.5185,-3.5799,-3.6963,-3.7281,-3.7313,-3.7117,-3.7647,-3.8024,-3.8024,-4.1017,-4.3938,-4.6349,-4.9693,-5.3006,-5.6188,-5.7746,-5.8395,-5.8153,-5.9098,-5.819,-5.5189,-5.6606,-5.6088,-5.3773,-5.4162,-5.4341,-5.4371,-5.464,-5.479,-5.479,-5.5059,-5.482,-5.4162,-5.3443,-5.2396,-5.1066,-4.973,-4.8179,-4.6856,-4.7319,-4.5637,0.0,-4.3389,-4.3443,-4.3487,-4.3587,-4.383,-4.3803,-4.2687,-4.2381,-4.2414,-4.2683,-4.3963,-4.5777,-4.7855,-4.9323,-5.1082,-5.4329,-5.4431,-5.4532,-5.6934,-5.8727,-6.025,-6.14,-6.3463,-6.5155,-6.5797,-6.5899,-6.5324,-6.3734,-6.2516,-6.0757,-5.8051,-5.9471,-6.0622,-6.0452,-6.1501,-6.2042,-6.1569,-6.14,-6.0757,-5.9539,-5.8457,-5.7205,-5.5749,-5.4972,-5.4262,-5.3518,-5.3518,-5.3518,-5.3518,-5.3518,-5.3315,-5.2976,-5.2198,-5.1217,-5.0067,-4.9323,-4.9018,-4.8917,-4.7733,-4.709,-4.6684,-4.55,-4.4886,-4.4581,-4.4215,-4.3606,-4.2828,0.0,0.0,0.0,0.0,0.0,-3.2617,-3.3754,-3.4264,-3.4874,-3.5891,-3.5725,-3.5686,-3.6259,-3.6321,-3.6321,-3.6321,-3.8811,-4.1627,-4.4486,-4.8365,-5.2126,-5.5715,-5.7509,-5.8421,-5.8482,-5.9564,-5.8672,-5.5684,-5.7248,-5.6808,-5.4491,-5.497,-5.5179,-5.5209,-5.5388,-5.5359,-5.5209,-5.5388,-5.497,-5.4132,-5.3264,-5.2007,-5.0437,-4.8304,-4.5818,-4.3688,-4.4939,-4.3404,0.0,-4.0816,-4.1291,-4.1882,-4.1851,-4.2278,-4.2525,-4.1445,-4.1151,-4.15,-4.2876,-4.494,-4.7136,-4.8967,-5.1792,-5.4465,-5.5818,-5.6528,-5.734,-5.8829,-6.0452,-6.1941,-6.3024,-6.4681,-6.5899,-6.5899,-6.5899,-6.5121,-6.2888,-6.1298,-5.9235,-5.6258,-5.6359,-5.69,-5.7442,-5.9404,-6.0419,-5.9844,-6.0351,-6.008,-5.8795,-5.7814,-5.6697,-5.5446,-5.4668,-5.4025,-5.3518,-5.3518,-5.3518,-5.3518,-5.3518,-5.3518,-5.3484,-5.2469,-5.1285,-5.0067,-4.9323,-4.9018,-4.8917,-4.7834,-4.7158,-4.6684,-4.5602,-4.4953,-4.4615,-4.4615,-4.3944,-4.3031,0.0,0.0,0.0,0.0,0.0,-3.175,-3.2467,-3.3664,-3.4503,-3.4565,-3.5132,-3.5519,-3.5522,-3.5522,-3.5522,-3.5522,-3.7643,-3.9913,-4.214,-4.6553,-5.0426,-5.3484,-5.5716,-5.7507,-5.8923,-5.9704,-5.9299,-5.7636,-5.8384,-5.7527,-5.5149,-5.5179,-5.5179,-5.5209,-5.5867,-5.5777,-5.5239,-5.5867,-5.5388,-5.4102,-5.2755,-5.105,-4.9238,-4.8317,-4.5297,-4.1512,-4.155,0.0,-3.6956,-3.8841,-3.8631,-3.7918,-3.9828,-4.1589,-4.2581,-4.0909,-4.0076,-4.0173,-4.2555,-4.4854,-4.7669,-5.2202,-5.4499,-5.6393,-5.9268,-5.9945,-6.0385,-6.1941,-6.2313,-6.2381,-6.2415,-6.3057,-6.3632,-6.3632,-6.3632,-6.2821,-6.052,-5.893,-5.69,-5.3957,-5.3619,-5.3653,-5.3653,-5.6934,-5.9066,-5.9066,-5.9066,-5.8761,-5.7949,-5.6562,-5.5446,-5.4668,-5.3923,-5.3518,-5.3518,-5.3518,-5.3518,-5.3518,-5.3518,-5.3518,-5.345,-5.1928,-5.0845,-5.0067,-4.9323,-4.9018,-4.9018,-4.8951,-4.8071,-4.6786,-4.6752,-4.5867,-4.4615,-4.4615,-4.3667,-4.232,0.0,0.0,0.0,0.0,0.0,0.0,-3.1809,-3.2976,-3.3993,-3.4444,-3.507,0.0,0.0,0.0,0.0,0.0,-3.6597,-3.8288,-4.0575,-4.382,-4.6872,-4.954,-5.3175,-5.4689,-5.3809,-5.6982,-5.7522,-5.5162,-5.6873,-5.6826,-5.5014,-5.5014,-5.4582,-5.3892,-5.4551,-5.4491,-5.3892,-5.4581,-5.4102,-5.2725,-5.096,-4.9344,-4.7665,-4.4743,-4.1863,-3.929,0.0,0.0,-3.6507,-3.6746,-3.7147,-3.7602,-3.7759,-3.8568,-3.923,-3.8133,-3.9463,-4.1628,-4.342,-4.7106,-5.1222,-5.4798,-5.7171,-5.9167,-6.1163,-6.1264,-6.0757,-6.025,-5.937,-5.8524,-5.8051,-5.8558,-5.9539,-6.1028,-6.1704,-6.1772,-6.0994,-6.0013,-5.7915,-5.3991,-5.4363,-5.4194,-5.2198,-5.4938,-5.7036,-5.7509,-5.7983,-5.7949,-5.7205,-5.6258,-5.5378,-5.46,-5.389,-5.3518,-5.3518,-5.3518,-5.3518,-5.3518,-5.3518,-5.3518,-5.345,-5.2401,-5.1522,-5.0811,-5.0033,-4.9458,-4.8917,-4.7936,-4.7225,-4.6684,-4.5732,-4.5055,-4.4615,-4.4615,-4.3633,-4.2286,0.0,0.0,0.0,0.0,0.0,0.0,0.0,0.0,0.0,0.0,0.0,0.0,0.0,0.0,0.0,0.0,0.0,-3.7001,-3.9024,-4.1304,-4.3668,-4.6074,-4.939,-5.0788,-4.9955,-5.2782,-5.334,-5.1468,-5.3122,-5.3382,-5.2304,-5.2798,-5.2641,-5.1953,-5.2907,-5.2778,-5.1798,-5.2247,-5.1528,-4.9942,-4.8207,-4.6561,-4.4866,-4.1874,-3.9636,0.0,0.0,-3.6351,-3.6058,-3.5639,-3.6118,-3.6871,-3.6613,-3.7432,-3.8404,-3.7912,-4.0587,-4.4159,-4.6217,-5.0246,-5.4544,-5.7299,-5.9268,-6.0791,-6.1772,-6.0994,-5.9573,-5.7814,-5.6258,-5.4803,-5.3551,-5.3687,-5.4837,-5.734,-5.8186,-5.8896,-5.9945,-5.9201,-5.7476,-5.4634,-5.4905,-5.4566,-5.2604,-5.416,-5.5513,-5.5987,-5.6934,-5.7171,-5.6461,-5.5987,-5.5378,-5.46,-5.389,-5.3518,-5.3518,-5.3518,-5.3518,-5.3518,-5.3518,-5.3518,-5.3484,-5.2672,-5.1894,-5.1183,-5.0405,-4.9661,-4.8951,-4.797,-4.7259,-4.6684,-4.5766,-4.5055,-4.4615,-4.4615,-4.3633,-4.2286,0.0,0.0,0.0,0.0,0.0,0.0,0.0,0.0,0.0,0.0,0.0,0.0,0.0,0.0,0.0,0.0,0.0,0.0,-3.7497,-3.9024,-4.0793,-4.2976,-4.4588,-4.6042,-4.7335,-4.7537,-4.7425,-4.6989,-4.7723,-4.7879,-4.7614,-4.8955,-4.9491,-4.9458,-5.0839,-5.0564,-4.9134,-4.9119,-4.7965,-4.6035,-4.4646,-4.297,-4.1168,-3.9933,0.0,0.0,0.0,-3.6071,-3.5519,-3.5519,-3.5549,-3.5709,-3.6507,-3.8245,-4.0035,-4.0224,-4.3459,-4.7605,-5.0651,-5.4245,-5.7611,-5.9742,-6.0791,-6.1298,-6.1197,-5.937,-5.707,-5.4802,-5.3044,-5.122,-4.9058,-4.8754,-4.9833,-5.2909,-5.3551,-5.4702,-5.7645,-5.6934,-5.6019,-5.5884,-5.531,-5.4871,-5.4735,-5.4702,-5.4702,-5.4702,0.0,-5.6461,-5.5818,-5.5784,-5.5412,-5.46,-5.3923,-5.3551,-5.3518,-5.3518,-5.3518,-5.3518,-5.3518,-5.3518,-5.3484,-5.2706,-5.1961,-5.1151,-5.0473,-4.9729,-4.8984,-4.8917,-4.8071,-4.6786,-4.6718,-4.5805,-4.4615,-4.4615,-4.3633,-4.2286,0.0,0.0,0.0,0.0,0.0,0.0,0.0,0.0,0.0,0.0,0.0,0.0,0.0,0.0,0.0,0.0,0.0,0.0,-3.6023,-3.7328,-3.8098,-3.8277,-4.1208,-4.2427,-4.1561,-4.4042,-4.5419,-4.567,-4.6597,-4.716,-4.7364,-4.7719,-4.7481,-4.6724,-4.7572,-4.7456,-4.6593,-4.6493,-4.5611,-4.4075,0.0,-4.0816,-3.9709,0.0,0.0,0.0,-3.6019,-3.5683,-3.5519,-3.5519,-3.6148,-3.7121,-3.8442,-4.0022,-4.1727,-4.3314,-4.7519,-5.221,-5.4704,-5.8102,-6.1231,-6.2347,-6.1975,-6.0994,-5.9877,-5.7442,-5.4496,-5.1094,-4.8327,-4.5998,-4.4304,-4.5369,-4.7621,-5.1221,-5.4126,-5.7002,-6.0013,-6.1061,-6.0689,-5.8457,-5.8998,-5.8727,-5.6461,-5.6224,-5.6224,-5.6224,-5.6089,-5.6156,-5.6494,-5.6528,-5.5919,-5.4634,-5.4397,-5.4059,-5.3518,-5.3518,-5.3518,-5.3518,-5.3518,-5.3518,-5.3484,-5.3281,-5.2469,-5.1217,-5.1014,-5.0202,-4.8917,-4.78,-4.7124,-4.6684,-4.5568,-4.4953,-4.4615,-4.4615,-4.3633,-4.2286,0.0,0.0,0.0,0.0,0.0,0.0,0.0,0.0,0.0,0.0,0.0,0.0,0.0,0.0,0.0,0.0,0.0,0.0,0.0,-3.6178,-3.6417,-3.6058,-3.8013,-3.8656,-3.7704,-3.9565,-4.069,-4.0932,-4.1814,0.0,-4.362,-4.4237,-4.4366,-4.4134,-4.4809,-4.4667,-4.3904,-4.358,0.0,0.0,0.0,0.0,0.0,0.0,0.0,-3.5998,-3.5639,-3.5699,-3.6124,-3.7331,-3.8436,-3.9634,-4.1833,-4.3805,-4.5956,-4.9261,-5.2981,-5.6542,-5.9048,-6.1767,-6.3768,-6.3565,-6.1907,-5.981,-5.7983,-5.4492,-5.0693,-4.7238,-4.4416,-4.2166,-4.1016,-4.1828,-4.4112,-4.8557,-5.1319,-5.4532,-5.9167,-6.052,-6.0926,-6.0554,-6.096,-6.0622,-5.893,-5.8457,-5.8118,-5.778,-5.6799,-5.6359,-5.6799,-5.6799,-5.6427,-5.5581,-5.4938,-5.4262,-5.3518,-5.3518,-5.3518,-5.3518,-5.3518,-5.3518,-5.3518,-5.3518,-5.2672,-5.1185,0.0,-5.0371,-4.8951,-4.8105,-4.7394,-4.6718,-4.5901,-4.519,-4.4615,-4.4615,-4.3633,-4.2286,0.0,0.0,0.0,0.0,0.0,0.0,0.0,0.0,0.0,0.0,-3.4771,-3.51,0.0,0.0,0.0,0.0,0.0,0.0,0.0,0.0,0.0,-3.5519,-3.5519,-3.5519,-3.5519,-3.5519,-3.5554,-3.5651,-3.6222,-3.7308,0.0,0.0,0.0,0.0,0.0,0.0,0.0,0.0,0.0,0.0,0.0,0.0,0.0,0.0,0.0,-3.5519,-3.5519,-3.5878,-3.682,-3.9715,-4.1322,-4.2612,-4.5734,-4.8583,-5.1573,-5.5712,-5.8485,-6.068,-6.3146,-6.4829,-6.5493,-6.4005,-6.1231,-5.822,-5.5818,-5.1196,-4.6579,-4.3553,-4.1123,-3.9347,-3.8693,-3.8821,-4.0729,-4.5942,-4.7673,-5.0642,-5.7239,-5.8355,-5.9539,-6.2347,-6.211,-6.1704,-6.1603,-6.0791,-6.0013,-5.937,-5.7949,-5.707,-5.6934,-5.6934,-5.6867,-5.6664,-5.531,-5.4262,-5.3518,-5.3518,-5.3518,-5.3518,-5.3518,-5.3518,-5.3518,-5.3518,-5.2672,-5.1185,-5.1185,0.0,-4.8984,-4.8883,-4.8037,-4.6786,-4.6684,-4.5805,-4.4615,-4.4615,-4.3701,-4.2455,0.0,0.0,0.0,0.0,0.0,0.0,0.0,0.0,0.0,0.0,-3.5222,-3.4412,0.0,0.0,0.0,0.0,0.0,0.0,0.0,0.0,0.0,0.0,-3.5519,-3.5519,-3.5519,-3.5519,-3.5814,-3.6415,-3.6538,-3.7361,0.0,0.0,0.0,0.0,0.0,0.0,0.0,0.0,0.0,0.0,0.0,0.0,0.0,0.0,0.0,0.0,-3.5519,-3.5579,-3.6271,-3.998,-4.275,-4.5073,-4.7966,-5.2258,-5.6449,-5.7512,-6.102,-6.4732,-6.5315,-6.6042,-6.6271,-6.4783,-6.1231,-5.7171,-5.3721,-4.8885,-4.4245,-4.1223,-3.877,-3.7154,-3.7025,-3.8539,-4.1344,-4.5947,-4.8912,-5.2773,-5.8863,-6.0825,-6.2245,-6.4005,-6.4106,-6.3802,-6.3193,-6.1907,-6.1028,-6.0926,-5.9505,-5.8355,-5.7746,-5.7712,-5.7137,-5.5953,-5.504,-5.4262,-5.3518,-5.3518,-5.3518,-5.3518,-5.3518,-5.3518,-5.3518,-5.3518,-5.2672,-5.1185,-5.1185,0.0,-4.8951,-4.8342,-4.7597,-4.6718,-4.6143,-4.5365,-4.4615,-4.4615,-4.4012,-4.3206,0.0,0.0,0.0,0.0,0.0,0.0,0.0,-3.4532,-3.513,-3.6746,-3.6417,-3.5759,-3.513,-3.4743,-3.4653,0.0,0.0,0.0,0.0,0.0,0.0,0.0,0.0,0.0,-3.5519,-3.5519,-3.5653,-3.6038,0.0,-3.66,-3.77,-3.77,-3.8325,-3.9506,-3.9506,-3.9688,-4.0087,-3.9688,0.0,-3.7764,-3.7381,-3.6538,0.0,0.0,0.0,0.0,0.0,-3.5729,-3.6447,-3.9379,-4.2279,-4.5466,-4.9967,-5.3409,-5.6388,-5.9286,-6.2174,-6.4716,-6.6153,-6.7513,-6.7929,-6.5256,-6.0926,-5.6153,-5.1665,-4.6216,-4.1417,-3.8772,-3.7064,-3.6134,-3.6538,-3.7809,-3.991,-4.326,-4.5684,-4.9221,-5.5183,-5.7695,-6.0182,-6.3632,-6.4377,-6.4478,-6.4106,-6.3091,-6.2144,-6.1366,-6.0622,-5.9708,-5.8524,-5.7746,-5.6833,-5.5715,-5.4972,-5.4262,-5.3518,-5.3518,-5.3518,-5.3518,-5.3518,-5.3518,-5.3518,-5.3518,-5.2672,-5.1185,-5.1185,0.0,-4.8984,-4.8612,-4.8037,-4.7293,-4.6549,-4.5805,-4.5128,-4.475,-4.4079,-4.3375,0.0,0.0,0.0,0.0,0.0,0.0,-3.4981,-3.54,-3.6118,-3.7823,-3.7793,-3.7494,-3.7165,-3.5669,-3.4801,0.0,0.0,0.0,0.0,0.0,0.0,0.0,0.0,0.0,0.0,0.0,0.0,-3.5519,-3.5519,0.0,0.0,0.0,0.0,0.0,-3.8663,-3.9022,-3.961,-3.9799,-3.8968,0.0,0.0,-3.6875,0.0,0.0,0.0,0.0,0.0,-3.5848,-3.6567,-3.8542,-4.0969,-4.4074,-4.9264,-5.2502,-5.5136,-5.9034,-6.182,-6.4071,-6.6148,-6.8278,-6.9079,-6.5493,-6.0419,-5.5001,-4.9926,-4.4102,-3.9173,-3.7032,-3.6006,-3.5683,-3.6259,-3.6971,-3.8216,-4.0482,-4.215,-4.5225,-5.1216,-5.4282,-5.778,-6.2685,-6.4038,-6.4613,-6.4613,-6.3802,-6.2787,-6.1637,-6.1231,-6.0452,-5.9099,-5.7611,-5.6461,-5.575,-5.4972,-5.4262,-5.3518,-5.3518,-5.3518,-5.3518,-5.3518,-5.3518,-5.3518,-5.3518,-5.2739,-5.1454,-5.1252,0.0,0.0,-4.9086,-4.8578,-4.7838,-4.7259,-4.6583,-4.5838,-4.5094,-4.4519,-4.4079,0.0,0.0,0.0,0.0,0.0,0.0,-3.4262,-3.51,-3.6626,-3.9709,-3.905,-3.8512,-3.9044,-3.6896,-3.4951,0.0,0.0,0.0,0.0,0.0,0.0,0.0,0.0,0.0,0.0,0.0,0.0,-3.5519,-3.5519,0.0,0.0,0.0,0.0,0.0,0.0,-3.7937,-3.808,-3.8718,0.0,0.0,0.0,0.0,0.0,0.0,0.0,0.0,0.0,-3.5549,-3.5878,-3.7823,-3.9092,-4.025,-4.2664,-4.8733,-5.49,-5.4216,-5.9285,-6.514,-6.5336,-6.7235,-6.847,-6.5358,-5.9674,-5.3618,-4.9061,-4.332,-3.8569,-3.6938,-3.6006,-3.5522,-3.5587,-3.6195,-3.7437,-3.9718,-4.1392,-4.4464,-5.0453,-5.4451,-5.8152,-6.2042,-6.3734,-6.4613,-6.4613,-6.3328,-6.2415,-6.2313,-6.0994,-5.9877,-5.9066,-5.7611,-5.6461,-5.575,-5.4972,-5.4262,-5.3518,-5.3518,-5.3518,-5.3518,-5.3518,-5.3518,-5.3518,-5.3518,-5.301,-5.2164,-5.1488,0.0,0.0,-4.9289,-4.8578,-4.7872,-4.7804,-4.7361,-4.6616,-4.5872,-4.5974,-4.6278,0.0,0.0,0.0,0.0,0.0,0.0,-3.4741,-3.4981,-3.6058,-3.9379,-3.9349,-3.911,-3.9379,-3.7764,-3.6118,-3.4831,0.0,0.0,0.0,0.0,0.0,0.0,0.0,0.0,0.0,0.0,-3.5519,-3.5519,-3.5519,0.0,0.0,0.0,0.0,0.0,0.0,-3.7352,-3.7822,-3.8104,0.0,0.0,0.0,0.0,0.0,0.0,0.0,0.0,0.0,0.0,-3.5639,-3.6387,-3.7105,-3.7734,-3.8123,-4.165,-4.6329,-4.9824,-5.4558,-5.946,-6.3036,-6.5886,-6.7257,-6.4619,-5.9235,-5.3179,-4.7735,-4.2199,-3.7789,-3.6258,-3.5686,-3.5519,-3.5519,-3.5718,-3.6377,-3.7747,-3.8508,-4.0714,-4.5788,-4.8949,-5.2976,-5.8964,-6.0994,-6.2618,-6.441,-6.3666,-6.2685,-6.1806,-6.0723,-5.9573,-5.8389,-5.6934,-5.5818,-5.5074,-5.4329,-5.3788,-5.3518,-5.3518,-5.3518,-5.3518,-5.3518,-5.3518,-5.3518,-5.3518,-5.2841,-5.1623,-5.1352,0.0,0.0,-4.912,-4.8849,-4.8545,-4.8041,-4.7703,-4.7394,-4.6616,-4.6549,-4.665,0.0,0.0,0.0,0.0,0.0,-3.2348,-3.4831,-3.4951,-3.5818,-3.8721,-3.929,-3.9373,-3.9373,-3.8212,-3.7045,-3.6148,-3.5549,0.0,0.0,0.0,0.0,0.0,0.0,0.0,0.0,0.0,-3.5519,-3.5519,-3.5519,-3.5519,0.0,0.0,-3.5782,-3.6259,0.0,0.0,0.0,0.0,0.0,0.0,0.0,0.0,0.0,0.0,0.0,0.0,0.0,0.0,0.0,0.0,0.0,-3.6118,-3.5639,-3.6776,-3.9379,-4.5005,-4.9751,-5.416,-5.8946,-6.2312,-6.401,-6.2033,-5.6967,-5.1184,-4.6231,-4.1151,-3.7086,-3.575,-3.5519,-3.5519,-3.5519,-3.5519,-3.5718,-3.6477,-3.6823,-3.8495,-4.2795,-4.5533,-4.939,-5.5513,-5.7543,-5.9641,-6.2651,-6.3091,-6.2651,-6.14,-6.0554,-5.9471,-5.7983,-5.6494,-5.5378,-5.46,-5.389,-5.3518,-5.3518,-5.3518,-5.3518,-5.3518,-5.3518,-5.3518,-5.3518,-5.3518,-5.2909,-5.186,-5.142,0.0,0.0,-4.9187,-4.9018,-4.8951,-4.8443,-4.824,-4.8139,-4.7394,-4.7259,-4.7293,0.0,0.0,0.0,0.0,0.0,-3.2168,-3.4204,-3.507,-3.6178,-3.8153,-3.899,-3.9373,-3.9373,-3.8212,-3.7404,-3.7375,-3.5609,0.0,0.0,0.0,0.0,0.0,0.0,0.0,0.0,0.0,-3.5519,-3.5519,-3.5519,-3.5519,-3.5519,-3.5519,-3.5489,-3.5489,0.0,0.0,0.0,0.0,0.0,0.0,0.0,0.0,0.0,0.0,0.0,0.0,0.0,0.0,0.0,0.0,0.0,0.0,0.0,-3.5519,-3.6207,-3.9529,-4.5178,-5.0788,-5.2871,-5.5788,-5.8097,-5.7163,-5.217,-4.6841,-4.4548,-4.0173,-3.6384,-3.5651,-3.5519,-3.5519,-3.5519,-3.5519,-3.5718,-3.6477,-3.7263,-3.9105,-4.2861,-4.6002,-4.9018,-5.1995,-5.3721,-5.5818,-5.8795,-6.1095,-6.211,-6.1366,-6.0554,0.0,-5.7983,-5.6494,-5.5378,-5.46,-5.389,-5.3518,-5.3518,-5.3518,-5.3518,-5.3518,-5.3518,-5.3518,-5.3518,-5.3518,-5.3484,-5.3382,0.0,0.0,0.0,-4.9593,-4.9018,-4.9018,-4.8984,-4.8984,-4.8917,-4.8173,-4.8376,-4.8781,0.0,0.0,0.0,0.0,0.0,0.0,-3.3634,-3.4382,-3.537,-3.6896,-3.7285,-3.7734,-3.8631,-3.7554,-3.6956,-3.7375,-3.6028,0.0,0.0,0.0,0.0,0.0,0.0,0.0,0.0,-3.5519,-3.5729,-3.6178,-3.6178,-3.6178,-3.6178,-3.6178,-3.5938,-3.5519,-3.5519,-3.5519,0.0,0.0,0.0,0.0,0.0,0.0,-3.5519,0.0,0.0,0.0,0.0,0.0,0.0,0.0,0.0,0.0,0.0,0.0,0.0,-3.6746,-4.0426,-4.5061,-4.8907,-5.0951,-5.1969,-5.154,-4.8401,-4.4707,-4.192,-3.8868,-3.6384,-3.5651,-3.5519,-3.5519,-3.5519,-3.5911,-3.6475,-3.7157,-3.8337,-3.976,-4.1497,-4.4757,-4.869,-5.3315,-5.8355,-6.14,-6.1332,-6.1501,-6.1332,-6.0554,-5.9776,-5.8693,-5.7239,-5.6697,-5.5886,-5.4634,-5.389,-5.3518,-5.3518,-5.3518,-5.3518,-5.3518,-5.3518,-5.3518,-5.3518,-5.3518,-5.3213,0.0,0.0,0.0,0.0,-4.939,-4.9018,-4.9018,-4.9018,-4.9018,-4.8984,-4.8748,-4.8815,-4.8849,0.0,0.0,0.0,0.0,0.0,0.0,-3.3036,-3.3484,-3.4233,-3.5582,-3.5761,-3.636,-3.7853,-3.6896,-3.6477,-3.7345,-3.6237,0.0,0.0,0.0,0.0,0.0,0.0,0.0,-3.5519,-3.5519,-3.5938,-3.6836,-3.6836,-3.6956,-3.7195,-3.7195,-3.6716,-3.5878,-3.5878,-3.5729,0.0,0.0,0.0,0.0,0.0,0.0,-3.5519,0.0,0.0,0.0,0.0,0.0,0.0,0.0,0.0,0.0,0.0,0.0,0.0,0.0,-3.7255,-4.0016,-4.3943,-4.5642,-4.6315,-4.6416,-4.4327,-4.1695,-3.9843,-3.7732,-3.6134,-3.5943,-3.5911,-3.5911,-3.5911,-3.6538,-3.709,-3.7188,-3.8242,-3.9629,-4.1263,-4.3979,-4.7733,-5.3112,-5.866,-6.1704,-6.0791,-6.1061,-6.096,-6.0148,-5.9438,-5.849,-5.7273,-5.6697,-5.5953,-5.504,-5.4296,-5.3788,-5.3518,-5.3518,-5.3518,-5.3518,-5.3518,-5.3518,-5.3484,-5.3179,-5.2773,0.0,0.0,0.0,0.0,-4.9289,-4.9018,-4.9018,-4.9018,-4.9018,-4.9018,-4.9018,-4.9018,-4.8951,0.0,0.0,0.0,0.0,0.0,0.0,0.0,-3.2587,-3.3095,-3.4354,-3.4563,-3.525,-3.7075,-3.6207,-3.5998,-3.7165,-3.6178,0.0,0.0,0.0,0.0,0.0,0.0,0.0,-3.5519,-3.5519,-3.6118,-3.7404,-3.7464,-3.7823,-3.8452,-3.8512,-3.7853,-3.6626,-3.6567,-3.6178,-3.5519,-3.5519,-3.5519,-3.5519,-3.5519,-3.5519,0.0,0.0,0.0,0.0,0.0,0.0,0.0,0.0,0.0,0.0,0.0,0.0,0.0,0.0,0.0,0.0,0.0,-4.0038,-4.1153,-4.1752,-4.0044,-3.8182,-3.8182,-3.6806,0.0,-3.6384,-3.6538,-3.6538,-3.66,-3.7235,-3.7592,-3.6846,-3.7512,-3.9098,-4.1972,-4.3971,-4.7,-5.1999,-5.5881,-5.8076,-5.791,-5.9907,-6.0892,-6.008,-5.9336,-5.8592,-5.7848,-5.6528,-5.575,-5.5649,-5.4972,-5.4262,-5.3518,-5.3518,-5.3518,-5.3518,-5.3518,-5.3484,-5.3382,-5.2638,-5.2266,0.0,0.0,0.0,0.0,-4.9289,-4.9018,-4.9018,-4.9018,-4.9018,-4.9018,-4.9018,-4.9018,-4.9018,0.0,0.0,0.0,0.0,0.0,0.0,0.0,0.0,0.0,0.0,-3.4951,-3.5429,-3.5908,-3.5699,-3.5639,0.0,0.0,0.0,0.0,0.0,0.0,0.0,0.0,0.0,-3.5519,-3.5519,-3.6118,-3.7404,-3.7913,-3.8512,-3.92,-3.9679,-3.923,-3.7913,-3.7434,-3.6567,-3.5519,-3.5519,-3.5519,-3.5519,-3.5519,-3.5519,0.0,0.0,0.0,0.0,-3.5519,-3.5519,0.0,0.0,0.0,0.0,0.0,0.0,0.0,0.0,-3.5519,-3.5639,-3.6267,0.0,-3.6926,-3.7075,-3.6656,-3.6178,0.0,-3.5818,-3.5554,-3.5718,-3.575,-3.5901,-3.6414,-3.7218,-3.788,-3.8089,-3.9746,-4.1481,-4.2864,-4.8033,-5.2617,-5.5136,-5.8582,-5.9942,-5.7797,-5.9257,-6.008,-5.9336,-5.8592,-5.7848,-5.7103,-5.6731,-5.6021,-5.4905,-5.4668,-5.4262,-5.3518,-5.3518,-5.3518,-5.3518,-5.3518,-5.3179,-5.257,-5.2401,-5.1995,0.0,0.0,0.0,-5.0033,-4.9289,-4.9018,-4.9018,-4.9018,-4.9018,-4.9018,-4.9018,-4.9018,-4.9018,0.0,0.0,0.0,0.0,0.0,0.0,0.0,0.0,0.0,0.0,-3.4622,-3.516,-3.5459,-3.5519,-3.5519,0.0,0.0,0.0,0.0,0.0,0.0,0.0,0.0,-3.5519,-3.5519,-3.5519,-3.6447,-3.8332,-3.8691,-3.9529,-4.0756,-4.0816,-3.9978,-3.8332,-3.7075,-3.6148,-3.5519,-3.5519,-3.5519,-3.5519,-3.5519,0.0,0.0,0.0,0.0,0.0,-3.5519,-3.5519,0.0,-3.5519,-3.5519,-3.5519,0.0,0.0,0.0,0.0,-3.5519,-3.5519,-3.5519,-3.5519,-3.5519,-3.5519,-3.5519,-3.5519,-3.5519,-3.5519,-3.5587,-3.5911,-3.6006,-3.6128,-3.6462,-3.7246,-3.788,-3.8152,-3.9813,-4.2209,-4.5461,-5.0422,-5.4476,-5.6513,-5.9219,-6.0403,-5.9061,-5.9639,-5.9945,-5.9539,-5.8186,-5.7205,-5.6833,-5.6156,-5.5412,-5.46,-5.4262,-5.389,-5.3518,-5.3518,-5.3518,-5.3518,-5.3145,-5.2739,-5.2266,-5.1589,-5.1082,0.0,0.0,0.0,-4.956,-4.9154,-4.9018,-4.9018,-4.9018,-4.9018,-4.9018,-4.9018,-4.9018,-4.9018,0.0,0.0,0.0,0.0,0.0,0.0,0.0,0.0,0.0,0.0,0.0,0.0,0.0,0.0,0.0,0.0,0.0,0.0,0.0,0.0,0.0,0.0,-3.5519,-3.5609,-3.5789,-3.5699,-3.6896,-3.9373,-3.9619,-4.0636,-4.2381,-4.2021,-4.0666,-3.8482,-3.6716,-3.5789,-3.5519,-3.5519,-3.5519,-3.5519,-3.5519,0.0,0.0,0.0,0.0,0.0,0.0,0.0,0.0,-3.534,-3.534,-3.534,-3.534,0.0,0.0,0.0,0.0,0.0,-3.5519,-3.5639,-3.5759,-3.5549,-3.5519,-3.5519,-3.5519,-3.5519,-3.5683,-3.6291,-3.6446,-3.6477,-3.6569,-3.7426,-3.8162,-3.8121,-3.9912,-4.3358,-4.9194,-5.2268,-5.4745,-5.7001,-5.887,-6.0007,-5.9985,-5.9935,-5.9877,-5.9776,-5.7915,-5.6765,-5.663,-5.5344,-5.4532,-5.4431,-5.3822,-5.3518,-5.3518,-5.3518,-5.345,-5.3315,-5.2638,-5.2198,-5.1928,-5.0676,-5.0033,-4.9898,0.0,0.0,-4.9018,-4.9018,-4.9086,-4.9154,-4.9052,-4.9086,-4.9154,-4.9052,-4.9018,-4.9018,0.0,0.0,0.0,0.0,0.0,0.0,0.0,0.0,0.0,0.0,0.0,0.0,0.0,0.0,0.0,0.0,0.0,0.0,0.0,0.0,0.0,-3.5519,-3.5519,-3.5998,-3.7075,-3.6596,-3.7345,-3.9373,-4.0546,-4.1542,-4.241,-4.3389,-4.2222,-3.923,-3.8332,-3.7045,-3.5519,-3.5519,-3.5519,-3.5519,-3.5519,0.0,0.0,0.0,0.0,0.0,0.0,0.0,0.0,-3.4653,-3.4653,-3.4653,-3.4653,0.0,0.0,0.0,0.0,0.0,-3.5519,-3.6297,-3.6866,-3.5789,-3.5519,-3.5519,-3.5519,-3.5519,-3.5522,-3.5651,-3.5683,-3.5834,-3.6406,-3.8247,-3.9751,-4.0106,-4.4161,-4.8993,-5.3986,-5.5255,-5.6123,-5.7311,-5.8713,-5.8911,-5.7179,-5.8332,-5.893,-5.8287,-5.734,-5.6528,-5.5919,-5.5074,-5.4296,-5.3687,-5.3551,-5.3518,-5.3518,-5.3518,-5.3179,-5.2469,-5.2367,-5.1657,-5.0439,-5.0202,-4.9763,-4.9154,0.0,-4.9018,-4.9018,-4.9018,-4.9357,-4.9864,-4.9255,-4.939,-4.9864,-4.9221,-4.9018,-4.9018,0.0,0.0,0.0,0.0,0.0,0.0,0.0,0.0,0.0,0.0,0.0,0.0,0.0,0.0,0.0,0.0,0.0,0.0,0.0,0.0,-3.5818,-3.6507,-3.6207,-3.6477,-3.7375,-3.7464,-3.8841,-4.1496,-4.2491,-4.3509,-4.4466,-4.291,-4.0995,-3.8811,-3.7434,-3.6327,-3.5519,-3.5519,-3.5519,-3.5519,0.0,0.0,0.0,0.0,0.0,0.0,0.0,0.0,0.0,0.0,-3.504,-3.504,-3.504,0.0,0.0,0.0,0.0,0.0,-3.5519,-3.5938,-3.6327,-3.6088,-3.6297,-3.6357,-3.5669,-3.5519,-3.5709,-3.6527,-3.6377,-3.6565,-3.8121,-3.9155,-4.0889,-4.431,-4.8482,-5.2436,-5.5815,-5.6398,-5.6682,-5.7272,-5.8468,-5.8752,-5.7536,-5.8361,-5.8693,-5.7949,-5.6867,-5.5886,-5.5141,-5.4397,-5.3856,-5.3518,-5.3518,-5.3281,-5.2875,-5.3281,-5.3112,-5.23,-5.1894,-5.115,-5.0067,-4.9695,-4.9323,-4.9018,0.0,-4.9018,-4.9018,-4.9018,-4.9424,-5.0033,-4.9289,-4.9458,-4.9999,-4.9255,-4.9018,-4.9018,0.0,0.0,0.0,0.0,0.0,0.0,0.0,0.0,0.0,0.0,0.0,0.0,0.0,0.0,0.0,0.0,0.0,0.0,0.0,-3.5519,-3.5938,-3.6926,-3.6806,-3.7285,-3.8542,-3.8901,-4.0636,-4.3738,-4.4616,-4.5544,-4.6429,-4.2821,-4.0307,-3.8781,-3.6836,-3.5789,-3.5519,-3.5519,-3.5519,-3.5519,0.0,0.0,0.0,0.0,0.0,0.0,0.0,0.0,0.0,0.0,0.0,0.0,0.0,0.0,0.0,-3.5459,-3.5519,-3.5519,-3.5519,-3.5729,-3.5998,-3.6207,-3.6596,-3.6866,-3.6507,-3.6297,-3.6682,-3.8548,-3.8175,-3.8088,-4.0159,-4.0635,-4.2657,-4.8357,-5.1661,-5.4307,-5.664,-5.6908,-5.7193,-5.7812,-5.8313,-5.8495,-5.821,-5.8375,-5.8186,-5.7442,-5.619,-5.5209,-5.4634,-5.389,-5.3518,-5.3518,-5.3518,-5.3112,-5.23,-5.2909,-5.2739,-5.1792,-5.1386,-5.0744,-4.983,-4.9255,-4.9018,-4.9018,-4.9018,-4.9018,-4.9018,-4.9018,-4.9424,-5.0033,-4.9289,-4.9357,-4.9763,-4.9221,-4.9018,-4.9018,0.0,0.0,0.0,0.0,0.0,0.0,0.0,0.0,0.0,0.0,0.0,0.0,0.0,0.0,0.0,0.0,0.0,0.0,0.0,-3.5519,-3.5549,-3.5639,-3.6746,-3.8811,-4.1961,-4.1482,-4.2491,-4.5155,-4.6441,-4.713,-4.7189,-4.4436,-4.2132,-4.0157,-3.8153,-3.6626,-3.5519,-3.5519,-3.5519,-3.5519,-3.5519,0.0,0.0,0.0,0.0,0.0,0.0,0.0,0.0,0.0,0.0,0.0,0.0,0.0,-3.4713,-3.531,-3.5519,-3.5519,-3.5519,-3.6357,-3.7015,-3.5878,-3.5609,-3.6267,-3.8601,-3.8631,-3.9008,-4.1961,-4.1265,-4.0548,-4.1789,-4.328,-4.5871,-5.0758,-5.2702,-5.447,-5.6995,-5.7384,-5.7997,-5.9684,-5.8458,-5.7598,-5.7901,-5.7338,-5.6664,-5.5919,-5.5141,-5.4668,-5.46,-5.389,-5.3518,-5.3518,-5.3518,-5.3112,-5.23,-5.2367,-5.1657,-5.027,-5.0913,-5.0473,-4.9086,-4.9018,-4.9018,-4.9018,-4.9018,-4.9018,-4.9018,-4.9018,-4.9424,-5.0033,-4.9289,-4.9052,-4.9086,-4.9018,-4.9018,-4.9018,0.0,0.0,0.0,0.0,0.0,0.0,0.0,0.0,0.0,0.0,0.0,-3.5519,-3.5519,0.0,0.0,0.0,0.0,0.0,0.0,-3.5519,-3.5848,-3.6656,-3.6776,-3.8182,-4.1085,-4.2132,-4.4107,-4.716,-4.8087,-4.8117,-4.7219,-4.3748,-4.1294,-3.9679,-3.7285,-3.6178,-3.6088,-3.5669,-3.5729,-3.6088,-3.5669,-3.5519,0.0,0.0,0.0,0.0,0.0,0.0,0.0,0.0,-3.4951,-3.4801,-3.504,-3.513,-3.516,-3.5429,-3.519,-3.4861,-3.4861,-3.5818,-3.6626,-3.5729,-3.6816,-3.8327,-3.9187,-3.9529,-4.045,-4.3389,-4.3758,-4.3864,-4.4929,-4.6638,-4.8784,-5.1732,-5.3922,-5.5668,-5.6853,-5.7038,-5.7388,-5.8335,-5.7403,-5.6796,-5.72,-5.6562,-5.5818,-5.5074,-5.4769,-5.4397,-5.3923,-5.3653,-5.3518,-5.3518,-5.301,-5.2401,-5.1623,-5.1623,-5.0587,-4.856,-4.988,-4.9965,-4.9018,-4.9018,-4.9018,-4.9018,-4.9018,-4.9018,-4.9018,-4.9018,-4.9424,-5.0067,-4.9796,-4.939,-4.9018,-4.9018,-4.9018,-4.9018,0.0,0.0,0.0,0.0,0.0,0.0,0.0,0.0,-3.4412,0.0,0.0,0.0,0.0,-3.5519,0.0,0.0,0.0,0.0,-3.5519,-3.5519,-3.5908,-3.6776,-3.6776,-3.7704,-3.9709,-4.1923,-4.4466,-4.7339,-4.8416,-4.8177,-4.6591,-4.3479,-4.1414,-4.0217,-3.7584,-3.6776,-3.7345,-3.6267,-3.6058,-3.6417,-3.5759,-3.5519,0.0,0.0,0.0,0.0,0.0,0.0,0.0,0.0,-3.537,-3.522,-3.5429,-3.534,-3.519,-3.519,-3.4831,-3.4444,-3.4264,-3.5013,-3.5789,-3.5549,-3.7428,-3.9585,-4.0694,-4.134,-4.2629,-4.5881,-4.6826,-4.7089,-4.7126,-4.8312,-4.9746,-5.1383,-5.3431,-5.4994,-5.5493,-5.5597,-5.573,-5.6173,-5.5698,-5.5435,-5.5585,-5.5439,-5.504,-5.4296,-5.4262,-5.4025,-5.3518,-5.3518,-5.3382,-5.3145,-5.2604,-5.1826,-5.0879,-5.0554,-4.9459,-4.7638,-4.8758,-4.9046,-4.8576,-4.8861,-4.9018,-4.9018,-4.9018,-4.9018,-4.9018,-4.9018,-4.9289,-4.9729,-4.9729,-4.9424,-4.9018,-4.9018,-4.9018,-4.9018,0.0,0.0,0.0,0.0,0.0,0.0,0.0,0.0,-3.3724,-3.4414,-3.507,0.0,0.0,0.0,0.0,0.0,0.0,0.0,-3.5519,-3.5519,-3.5519,-3.5519,-3.6716,-3.7704,-3.8362,-4.1003,-4.3339,-4.5304,-4.7279,-4.7249,-4.5244,-4.3988,-4.3,-4.2261,-3.9589,-3.8781,-3.926,-3.7315,-3.6477,-3.6417,-3.5759,-3.5519,-3.5519,0.0,0.0,0.0,0.0,0.0,0.0,0.0,-3.504,-3.4623,-3.528,-3.504,-3.4503,-3.4503,-3.4503,-3.4354,-3.3664,-3.3993,-3.4683,-3.534,-3.6985,-3.9505,-4.3419,-4.4461,-4.5773,-4.9934,-5.0657,-4.9936,-4.8066,-4.7854,-4.8383,-4.9522,-5.0936,-5.2095,-5.2776,-5.29,-5.3059,-5.3515,-5.3492,-5.335,-5.3033,-5.3976,-5.4296,-5.3551,-5.3518,-5.3518,-5.3484,-5.3484,-5.3112,-5.23,-5.2266,-5.1589,-5.0101,-4.9161,-4.8297,-4.7572,-4.7572,-4.7572,-4.7605,-4.8576,-4.9018,-4.9018,-4.9018,-4.9018,-4.9018,-4.9018,-4.9018,-4.9018,-4.9018,-4.9018,-4.9018,-4.9018,-4.9018,-4.9018,0.0,0.0,0.0,0.0,0.0,0.0,0.0,0.0,-3.3724,-3.4414,-3.507,0.0,0.0,0.0,0.0,0.0,0.0,0.0,-3.5519,-3.5519,-3.5519,-3.5519,-3.5878,-3.6178,-3.6357,-3.8452,-4.1444,-4.5304,-4.5903,-4.5394,-4.3898,-4.2581,-4.1384,-4.0247,-3.9469,-3.8691,-3.7943,-3.6926,-3.6477,-3.6417,-3.5759,-3.5519,-3.5519,0.0,0.0,0.0,0.0,0.0,0.0,0.0,0.0,0.0,-3.5429,-3.537,-3.51,-3.4653,-3.4174,-3.3754,-3.3544,-3.4322,-3.5459,-3.6567,-3.9485,-4.2633,-4.4569,-4.5421,-4.6803,-5.0351,-5.0323,-4.976,-5.0088,-4.9299,-4.8889,-4.9884,-5.0278,-5.0402,-5.0379,-5.038,-5.0703,-5.159,-5.1865,-5.2294,-5.2935,-5.3472,-5.3754,-5.3518,-5.3518,-5.3247,-5.2706,-5.2672,-5.23,-5.1555,-5.1014,-5.0541,-5.0101,-4.8662,-4.7803,-4.7572,-4.7572,-4.7572,-4.7605,-4.8576,-4.9018,-4.9018,-4.9018,-4.9018,-4.9018,-4.9018,-4.9018,-4.9018,-4.9018,-4.9018,-4.9018,-4.9018,-4.9018,-4.9018,0.0,0.0,0.0,0.0,0.0,0.0,-3.2378,-3.3066,-3.3724,-3.4414,-3.507,-3.5519,0.0,0.0,0.0,0.0,0.0,0.0,-3.5519,-3.5519,-3.5519,-3.5519,-3.5519,-3.5759,-3.6237,-3.7913,-4.0038,-4.2551,-4.3359,-4.306,-4.1735,-4.2043,-4.1743,-4.0958,-4.1235,-4.0636,-3.929,-3.8153,-3.7345,-3.6806,-3.6148,-3.5908,-3.5908,0.0,0.0,0.0,0.0,0.0,0.0,0.0,0.0,0.0,-3.5519,-3.531,-3.5011,-3.4623,-3.3634,-3.2826,-3.3365,-3.4292,-3.5549,-3.7345,-4.0898,-4.4461,-4.6419,-4.7608,-4.8835,-5.081,-5.0728,-5.031,-5.0432,-4.9502,-4.8934,-4.9346,-4.9323,-4.9235,-4.9299,-4.9299,-4.9448,-4.9787,-5.0784,-5.1364,-5.1347,-5.2383,-5.2977,-5.2871,-5.2708,-5.2503,0.0,-5.2029,-5.1522,-5.0811,-5.0338,-4.9965,-4.9661,-4.803,-4.7309,-4.7572,-4.7012,-4.6881,-4.721,-4.8442,-4.9018,-4.9018,-4.9018,-4.9018,-4.9018,-4.9018,-4.9018,-4.9018,-4.9018,-4.9018,-4.9018,-4.9018,-4.9018,-4.9018,0.0,0.0,-3.1511,-3.1511,0.0,0.0,-3.2378,-3.3066,-3.3724,-3.4414,-3.507,-3.5519,0.0,0.0,0.0,-3.5519,0.0,0.0,0.0,-3.5519,-3.5519,-3.5519,-3.5579,-3.6178,-3.7375,-3.8542,-3.8841,-3.8212,-4.0157,-4.0516,-3.9433,-4.1944,-4.314,-4.323,-4.3868,-4.3389,-4.2021,-3.9978,-3.8422,-3.7195,-3.6626,-3.6387,-3.6387,-3.6387,0.0,0.0,0.0,0.0,0.0,0.0,0.0,0.0,-3.5519,-3.504,-3.4503,-3.4444,-3.3066,-3.1869,-3.3215,-3.4144,-3.5342,-3.8063,-4.1743,-4.5484,-4.861,-5.0182,-5.105,-5.105,-5.1379,-5.1172,-4.9643,-4.8986,-4.8569,-4.8394,-4.8265,-4.8416,-4.906,-4.912,-4.891,-4.8267,-4.9998,-5.0533,-4.886,-5.0844,-5.2068,-5.1729,-5.1396,0.0,-5.2063,-5.1454,-5.0744,-4.9932,-4.9965,-4.9627,-4.8917,-4.7299,-4.6913,-4.7704,-4.6155,-4.5826,-4.6681,-4.8205,-4.8951,-4.9018,-4.9018,-4.9018,-4.9018,-4.9018,-4.9018,-4.9018,-4.9018,-4.9018,-4.9018,-4.9018,-4.9018,-4.9018,0.0,0.0,-3.1511,-3.1511,0.0,0.0,-3.2378,-3.3066,-3.3724,-3.4414,-3.507,-3.5519,-3.5519,-3.5519,0.0,-3.5519,-3.5519,0.0,0.0,-3.5519,-3.5519,-3.5519,-3.5998,-3.6626,-3.7404,-3.7225,-3.7045,-3.6896,-3.8332,-3.917,-3.9469,-4.1055,-4.2073,-4.262,-4.274,-4.1773,-3.9918,-3.7943,-3.6656,-3.5908,-3.5759,-3.5729,-3.5729,-3.5729,-3.5639,0.0,0.0,0.0,0.0,0.0,0.0,0.0,-3.5519,-3.504,-3.4414,-3.3873,-3.3036,-3.2587,-3.3903,-3.5162,-3.6959,-4.0643,-4.4496,-4.7758,-4.903,-4.9539,-4.9703,-4.9703,-5.0545,-5.1001,-4.991,-4.8961,-4.8443,-4.8653,-4.8019,-4.7578,-4.7698,-4.7728,-4.7668,-4.7549,-4.8836,-4.9304,-4.8115,-5.0091,-5.1127,-5.0312,0.0,0.0,-5.0574,-5.0405,-4.9729,-4.8409,-4.8951,-4.8883,-4.8142,-4.7067,-4.7237,0.0,-4.6474,-4.6175,-4.7628,-4.798,-4.8477,-4.9018,-4.9018,-4.9018,-4.9018,-4.9018,-4.9018,-4.9018,-4.9018,-4.9018,-4.9018,-4.9018,-4.9018,-4.9018,0.0,0.0,0.0,0.0,0.0,0.0,0.0,0.0,-3.3844,-3.4831,-3.528,-3.537,-3.504,-3.531,0.0,0.0,-3.531,0.0,0.0,0.0,-3.5519,-3.5519,-3.6118,-3.6477,-3.6507,-3.6477,-3.6327,-3.6028,-3.6686,-3.7674,-3.896,-4.0935,-4.241,-4.3299,-4.3299,-4.2192,-4.0217,-3.8242,-3.6836,-3.5968,-3.5968,-3.5968,-3.5968,-3.5968,-3.5789,-3.5519,-3.5519,0.0,0.0,0.0,0.0,0.0,0.0,0.0,-3.4024,-3.3963,-3.2826,-3.1988,-3.3964,-3.5492,-3.7734,-4.297,-4.6292,-4.8446,-4.9179,-4.9299,-4.9209,-4.891,-4.9583,-5.0035,-4.9235,-4.8632,-4.8276,-4.811,-4.7365,-4.683,-4.683,-4.6561,-4.6352,-4.6352,-4.741,-4.7949,-4.7322,-4.8914,-4.9926,-4.9748,0.0,-5.0135,-5.0101,-4.9763,-4.9221,-4.8477,-4.8815,-4.8646,-4.7906,-4.7072,-4.7072,-4.7936,-4.5965,-4.5664,-4.6887,-4.7567,-4.8139,-4.8511,-4.8849,-4.9018,-4.9018,-4.9018,-4.9018,-4.9018,-4.9018,-4.9018,-4.9018,-4.9018,-4.9018,-4.9018,0.0,0.0,0.0,0.0,0.0,0.0,0.0,0.0,0.0,-3.5083,-3.5231,-3.5118,-3.4711,-3.516,-3.528,0.0,0.0,0.0,0.0,0.0,0.0,-3.5669,-3.6178,-3.6297,-3.5848,-3.6267,-3.6207,-3.5669,-3.5669,-3.6896,-3.929,-4.1302,-4.306,-4.4646,-4.4167,-4.3,-4.1235,-3.899,-3.7375,-3.6327,-3.6327,-3.6327,-3.6327,-3.6327,-3.5968,-3.5519,-3.5519,-3.5519,-3.5519,-3.5519,0.0,0.0,0.0,0.0,-3.3754,-3.4204,-3.2677,-3.139,-3.3845,-3.5911,-3.8691,-4.4407,-4.689,-4.8087,-4.867,-4.8745,-4.8596,-4.8057,-4.8566,-4.894,-4.8237,-4.8027,-4.7758,-4.7219,-4.6561,-4.6142,-4.6142,-4.5663,-4.5304,-4.5304,-4.614,-4.6648,-4.6531,-4.7741,-4.8758,0.0,0.0,-4.9086,-4.9695,-4.9018,-4.8545,-4.8443,-4.8545,-4.8274,-4.75,-4.6921,-4.665,-4.6786,-4.5432,-4.5026,-4.5568,-4.6921,-4.7635,-4.7939,-4.868,-4.9018,-4.9018,-4.9018,-4.9018,-4.9018,-4.9018,-4.9018,-4.9018,-4.9018,-4.9018,-4.9018,0.0,0.0,0.0,0.0,0.0,0.0,0.0,0.0,0.0,0.0,-3.4211,-3.4514,-3.5272,-3.5459,-3.5459,-3.537,-3.5459,-3.5519,-3.5519,0.0,0.0,-3.6327,-3.6447,-3.6686,-3.7135,-3.6716,-3.6447,-3.6357,-3.6357,-3.8542,-4.2701,-4.1893,-4.315,-4.592,-4.3658,-4.2201,-4.1212,-3.8063,-3.6297,-3.5639,-3.5639,-3.5639,-3.5639,-3.5639,-3.5579,-3.5519,-3.5519,-3.5519,-3.5519,-3.5519,-3.5519,0.0,0.0,0.0,-3.4294,-3.3754,-3.2976,-3.2557,-3.4114,-3.7558,-4.1235,-4.3269,-4.5185,-4.6621,-4.6681,-4.6711,-4.6681,-4.6621,-4.7549,-4.8207,-4.7549,-4.698,-4.6561,-4.6429,-4.5873,-4.5424,-4.5424,-4.5364,-4.5304,-4.5304,-4.5633,-4.5858,-4.582,-4.7001,-4.777,0.0,-4.7981,-4.8075,-4.8176,-4.7496,-4.6786,-4.6177,-4.6752,-4.6752,-4.6007,-4.5906,-4.6177,-4.6786,-4.594,-4.5263,-4.4784,-4.5602,-4.6718,-4.7939,-4.868,-4.9018,-4.9018,-4.9018,-4.9018,-4.9018,-4.9018,-4.9018,-4.9018,-4.9018,-4.9018,-4.9018,0.0,0.0,0.0,0.0,0.0,0.0,0.0,0.0,0.0,0.0,0.0,-3.4886,-3.4919,-3.528,-3.534,-3.4951,-3.528,-3.5519,-3.5519,-3.5519,-3.5639,-3.5938,-3.5938,-3.6058,-3.6327,-3.6088,-3.5938,-3.5938,-3.5938,-3.8661,-4.3898,-4.3688,-4.5544,-4.888,-4.5933,-4.3808,-4.2222,-3.8571,-3.6417,-3.5519,-3.5519,-3.5729,-3.6028,-3.5639,-3.5729,-3.5998,-3.5639,-3.5519,-3.5519,-3.5519,-3.5519,-3.5519,-3.5519,0.0,0.0,0.0,-3.3335,-3.2886,-3.4592,-3.7315,-4.0127,-4.1833,-4.3479,-4.4695,-4.5083,-4.5484,-4.5753,-4.5753,-4.6202,-4.6531,-4.6232,-4.5933,-4.5753,-4.5753,-4.5185,-4.4736,-4.4736,-4.4436,-4.4047,-4.3728,-4.3793,-4.4243,-4.5295,-4.5576,0.0,0.0,-4.7454,-4.7293,-4.7293,-4.6989,-4.665,-4.6312,-4.6616,-4.6447,-4.5703,-4.5703,-4.5669,-4.5563,-4.5229,-4.4891,-4.4649,-4.5771,-4.6684,-4.7327,-4.8071,-4.8612,-4.9018,-4.9018,-4.9018,-4.9018,-4.9018,-4.9018,-4.9018,-4.9018,-4.9018,-4.9018,0.0,0.0,0.0,0.0,0.0,0.0,0.0,0.0,0.0,0.0,0.0,-3.4874,-3.4771,0.0,0.0,0.0,-3.522,-3.5519,-3.5519,-3.5519,-3.5519,-3.5519,-3.5519,-3.5519,-3.5519,-3.5519,-3.5519,-3.5519,-3.5669,-3.896,-4.5095,-4.5753,-4.8626,-5.3054,-4.9254,-4.613,-4.3559,-3.9948,-3.7883,-3.6896,-3.5908,-3.5789,-3.6207,-3.6058,-3.6207,-3.6447,-3.6118,-3.5878,-3.5729,-3.5579,-3.5519,-3.5519,-3.5519,-3.516,0.0,0.0,0.0,-3.3335,-3.4831,-3.6656,-3.8452,-3.9798,-4.1384,-4.2662,-4.321,-4.3838,-4.4347,-4.4526,-4.4407,-4.4287,-4.4287,-4.4556,-4.4796,-4.4796,-4.4107,-4.3569,-4.3569,-4.315,-4.2641,-4.2201,-4.2141,-4.2877,-4.4724,-4.4413,0.0,0.0,-4.6955,-4.6515,-4.6515,-4.6346,-4.6244,-4.6244,-4.6244,-4.5974,-4.5432,-4.5432,-4.5128,-4.4615,-4.4615,-4.4615,-4.4649,-4.5766,-4.6447,-4.6853,-4.78,-4.8511,-4.9018,-4.9018,-4.9018,-4.9018,-4.9018,-4.9018,-4.9018,-4.9018,-4.9018,-4.9018,0.0,0.0,0.0,0.0,0.0,0.0,0.0,0.0,0.0,0.0,0.0,0.0,-3.5272,-3.5489,-3.5489,-3.5459,-3.5489,-3.5519,-3.5519,-3.5519,-3.5519,-3.5519,-3.5519,0.0,-3.5519,-3.5519,-3.5519,-3.5519,-3.6118,-4.0127,-4.716,-4.7818,-5.1917,-5.8471,-5.3264,-4.8805,-4.5005,-4.2312,-4.1145,-4.0793,-3.7015,-3.5519,-3.5699,-3.6866,-3.6956,-3.6567,-3.7105,-3.6926,-3.6327,-3.5699,-3.5519,-3.5519,-3.5519,-3.5489,-3.531,0.0,0.0,0.0,-3.4533,-3.5968,-3.7345,-3.6866,-3.8661,-4.0576,-4.0606,-4.1115,-4.1773,-4.244,-4.2051,-4.1594,-4.1594,-4.2611,-4.3379,-4.3379,-4.2372,-4.1534,-4.1534,-4.1504,-4.1474,-4.1482,-4.1482,-4.2138,-4.3988,-4.4125,0.0,0.0,-4.6177,-4.5771,-4.5771,-4.5094,-4.4716,-4.4716,-4.4716,-4.4716,-4.4682,-4.4682,-4.4649,-4.4615,-4.4615,-4.4615,-4.4615,-4.4682,-4.5495,-4.6887,-4.8308,-4.8951,-4.9018,-4.9018,-4.9018,-4.9018,-4.9018,-4.9018,-4.9018,-4.9018,-4.9018,-4.9018,0.0,0.0,0.0,0.0,0.0,0.0,0.0,0.0,0.0,0.0,0.0,0.0,0.0,-3.5519,-3.5519,-3.5519,-3.5519,-3.5519,-3.5519,-3.5519,-3.5519,-3.5519,-3.5519,-3.5519,-3.5519,-3.5519,-3.5519,-3.5519,-3.5729,-3.8691,-4.4208,-4.5663,-4.8207,-5.1498,-5.087,-4.9553,-4.7562,-4.2312,-3.9858,-3.926,-3.7015,-3.6626,-3.7255,-3.6477,-3.6836,-3.7584,-3.6537,-3.6327,-3.6387,-3.5729,-3.5519,-3.5519,-3.5519,-3.5519,-3.537,-3.4713,-3.4771,-3.4951,-3.4083,-3.4981,-3.6028,-3.5402,-3.6836,-3.8362,-3.7973,-3.905,-4.0068,-3.9858,-3.9978,-4.0127,-4.0127,-4.1205,-4.2073,-4.2073,-4.1324,-4.0905,-4.1324,-4.1025,-4.0756,-4.0756,-4.0756,-4.1249,-4.2473,0.0,0.0,0.0,0.0,-4.4759,-4.4168,-4.3905,-4.3532,-4.2953,-4.2923,-4.3199,-4.3739,-4.4327,-4.4615,-4.4615,-4.4615,-4.4615,-4.4615,-4.5094,-4.5602,-4.6177,-4.7665,-4.8578,-4.9018,-4.9018,-4.9018,-4.9018,-4.9018,-4.9018,-4.9018,-4.9018,-4.9018,-4.9018,0.0,0.0,0.0,-3.4143,0.0,-3.4593,-3.4771,-3.5011,-3.525,-3.5459,0.0,0.0,0.0,0.0,-3.5133,-3.5457,-3.5519,-3.5519,-3.5519,-3.5519,-3.5519,-3.5519,-3.5519,-3.5519,-3.5519,-3.5519,-3.5519,-3.5519,-3.5729,-3.7973,-4.2111,-4.3638,-4.5603,-4.7967,-4.7698,-4.8207,-4.9,-4.4347,-4.1863,-4.0816,-3.8182,-3.7913,-3.896,-3.8123,-3.8601,-3.9559,-3.8272,-3.7674,-3.7255,-3.5938,-3.534,-3.519,-3.5429,-3.5519,-3.54,-3.4951,-3.516,-3.531,-3.4412,-3.4831,-3.534,-3.4683,-3.5459,-3.6267,-3.5639,-3.6656,-3.7704,-3.7464,-3.7973,-3.8512,-3.8721,-3.9469,-4.0127,-4.0337,-3.9828,-3.9559,-3.9978,-3.9679,-3.9469,-3.9709,-3.9738,-4.0182,-4.1372,0.0,0.0,0.0,0.0,0.0,-4.2987,-4.2687,-4.2257,-4.1661,-4.1885,-4.2426,-4.329,-4.3889,-4.4327,-4.4615,-4.4615,-4.4615,-4.4615,-4.5094,-4.5466,-4.5771,-4.7022,-4.7784,-4.8178,-4.8444,-4.8545,-4.8545,-4.8545,-4.8736,-4.9018,-4.9018,-4.9018,-4.9018,-3.537,-3.4981,-3.4711,-3.54,-3.4951,-3.4773,-3.54,-3.4951,-3.4741,-3.54,0.0,0.0,0.0,0.0,0.0,-3.5422,-3.5519,-3.5519,-3.5519,-3.5519,-3.5519,-3.5519,-3.5519,-3.5519,-3.5519,-3.5519,-3.5519,-3.5519,-3.6148,-3.8093,-4.1302,-4.1961,-4.4717,-4.885,-4.4417,-4.4926,-4.906,-4.8267,-4.7309,-4.5771,-4.0487,-3.923,-4.0636,-4.1841,-4.2351,-4.241,-4.2351,-4.1085,-3.911,-3.6477,-3.516,-3.4773,-3.534,-3.5519,-3.5519,-3.5519,-3.5519,-3.5519,0.0,0.0,0.0,-3.4653,-3.4503,-3.4324,-3.3634,-3.3963,-3.4653,-3.525,-3.5938,-3.6567,-3.7165,-3.7285,-3.7494,-3.8153,-3.7764,-3.7375,-3.7404,-3.7404,-3.7614,-3.8272,-3.8397,-3.9028,-4.0674,0.0,0.0,0.0,-4.2579,-4.2169,-4.2166,-4.1389,-4.0894,-4.0894,-4.1565,-4.2362,-4.3164,-4.3257,-4.3706,-4.4581,-4.4581,-4.4581,-4.4615,-4.4615,-4.4993,-4.5703,-4.6481,-4.6675,-4.6519,-4.7342,-4.7671,-4.7671,-4.7605,-4.8193,-4.9018,-4.8954,-4.8954,-4.8954,-3.5459,-3.534,-3.528,-3.5459,-3.534,-3.528,-3.5459,-3.534,-3.528,0.0,0.0,0.0,-3.3979,-3.4445,-3.5112,-3.6141,-3.6207,-3.5998,-3.5549,-3.5519,-3.5519,-3.5519,-3.5519,-3.5519,-3.5519,-3.5519,-3.5519,-3.5519,-3.5699,-3.6477,-3.7853,-3.8996,-4.0696,-4.2851,-4.303,-4.3579,-4.4148,-4.1504,-4.2132,-4.4436,-3.9619,-3.9918,-4.294,-4.0427,-4.0965,-4.288,-4.1444,-4.1205,-4.1145,-3.8482,-3.7793,-3.7823,-3.6596,-3.5878,-3.5519,-3.5519,-3.5519,-3.54,-3.4891,0.0,0.0,0.0,0.0,0.0,-3.3036,-3.3305,-3.3544,-3.2766,-3.3544,-3.4233,-3.3933,-3.4262,-3.4651,-3.4831,-3.5908,-3.6896,-3.7345,-3.7015,-3.6985,-3.7614,-3.8189,-3.8756,0.0,0.0,0.0,0.0,-4.0702,-4.0341,-3.9723,-3.8859,-3.8394,-3.8394,-3.9724,-4.0601,-4.0845,-4.1996,-4.2947,-4.3741,-4.3741,-4.4045,-4.4615,-4.4615,-4.4716,-4.4987,-4.6244,-4.6404,-4.5891,-4.782,-4.8608,-4.8545,-4.7868,-4.8193,-4.8923,-4.8225,-4.7966,-4.7966,-3.5519,-3.5519,-3.5519,-3.5519,-3.5729,-3.5908,-3.5908,-3.5908,-3.5908,0.0,0.0,0.0,-3.4825,-3.5697,-3.6347,-3.647,-3.6477,-3.6207,-3.5549,-3.5519,-3.5519,-3.5519,-3.5519,-3.5519,-3.5519,-3.5519,-3.5519,-3.5519,-3.5519,-3.5699,-3.6088,-3.6836,-3.7764,-3.8811,-3.9709,-4.0337,-4.0554,-3.7793,-3.911,-4.291,-4.0756,-4.1833,-4.4496,-4.2462,-4.324,-4.5185,-4.3479,-4.3359,-4.3539,-4.0307,-3.911,-3.8601,-3.6357,-3.5759,-3.5848,-3.5579,-3.5519,-3.54,-3.5011,-3.519,-3.531,-3.4532,0.0,0.0,-3.2378,-3.2168,-3.1958,-3.0941,-3.1539,-3.2228,-3.2079,-3.2647,-3.3095,-3.3095,-3.4292,-3.5459,-3.6088,-3.6118,-3.6327,-3.6956,-3.7422,-3.782,0.0,-3.8654,-3.9089,-3.9454,-3.9179,-3.8654,-3.782,-3.7288,-3.7015,-3.7015,-3.8553,-3.9532,-3.9902,-4.1139,-4.2165,-4.2963,-4.324,-4.3673,-4.4113,-4.4445,-4.4412,-4.4164,-4.5574,-4.5901,-4.5593,-4.7593,-4.8418,-4.8353,-4.7803,-4.8193,-4.8923,-4.8418,-4.8193,-4.8129,0.0,-3.5519,-3.5519,-3.5609,-3.6148,-3.6626,-3.6776,-3.6746,-3.6776,0.0,-3.6172,-3.5812,-3.6483,-3.7473,-3.7784,-3.6888,-3.6686,-3.6297,-3.5549,-3.5519,-3.5519,-3.5519,-3.5519,-3.5519,-3.5519,-3.5519,-3.5519,-3.5519,-3.5519,-3.5519,-3.5519,-3.5519,-3.5818,-3.6357,-3.5759,-3.6447,-3.7973,-3.6477,-3.7793,-4.1055,-4.2372,-4.3898,-4.5454,-4.5992,-4.704,-4.8027,-4.686,-4.6399,-4.5831,-4.2102,-3.9738,-3.8003,-3.5729,-3.5639,-3.6267,-3.5759,-3.5579,-3.5519,-3.5519,-3.5519,-3.5519,-3.5519,-3.4592,0.0,-3.2019,-3.1241,-3.0612,-2.9834,-3.0193,-3.0791,-3.1301,-3.1929,-3.2378,-3.2378,-3.2946,-3.3604,-3.4294,-3.4951,-3.5579,-3.6088,-3.6367,-3.6758,-3.7311,-3.7436,-3.781,-3.8599,-3.7841,-3.7084,-3.639,-3.6387,-3.6387,-3.6387,-3.7696,-3.8779,-3.9646,-4.0388,-4.1255,-4.2185,-4.2929,-4.3308,-4.3409,-4.4131,-4.4035,-4.3388,-4.4774,-4.5463,-4.5625,-4.711,-4.777,-4.777,-4.7671,-4.8129,-4.8829,-4.8736,-4.8608,-4.8418,-3.5519,-3.5519,-3.5669,-3.6207,-3.6806,-3.7584,-3.8691,-3.8392,-3.8601,-4.0217,-3.9618,-3.9257,-3.9855,-3.9247,-3.8806,-3.8859,-3.7853,-3.6746,-3.5579,-3.5519,-3.5519,-3.5519,-3.5519,-3.5519,-3.5519,-3.5519,-3.5519,-3.5519,-3.5519,-3.5519,-3.5519,-3.5519,-3.5579,-3.5699,-3.5579,-3.5699,-3.6148,-3.7315,-3.7973,-3.8302,-3.9649,-4.2581,-4.6082,-4.5663,-4.6322,-4.7459,-4.7219,-4.71,-4.6741,-4.4347,-4.1265,-3.8392,-3.8422,-3.7195,-3.5789,-3.6178,-3.5908,-3.5519,-3.5519,-3.5519,-3.5519,-3.5519,-3.531,0.0,-3.3425,-3.3006,-3.2407,-3.0672,-3.0851,-3.1182,-3.0791,-3.1241,-3.169,-3.169,-3.2258,-3.2946,-3.3604,-3.4262,-3.4563,-3.4113,-3.5551,0.0,-3.6012,-3.6476,-3.6878,-3.703,-3.6347,-3.5832,-3.5699,-3.5699,-3.5699,-3.5699,-3.6565,-3.7371,-3.8176,-3.8949,-4.002,-4.1407,-4.2151,-4.2828,-4.3409,-4.3494,-4.3472,-4.3388,-4.4836,-4.5494,-4.5656,-4.7814,-4.8736,-4.8639,-4.7901,-4.7704,-4.777,-4.7004,-4.6276,-4.5593,-3.5519,-3.5519,-3.5699,-3.6357,-3.6985,-3.7853,-3.9194,-3.9409,-3.9978,-4.1692,-4.2347,-4.2511,-4.2147,-4.1234,-4.0364,-3.9493,-3.8182,-3.7135,-3.6507,-3.6447,-3.6327,-3.5998,-3.5998,-3.5848,-3.5519,-3.5519,-3.5519,-3.5519,-3.5519,-3.5519,-3.5519,-3.5519,-3.531,-3.5011,-3.534,-3.531,-3.507,-3.6387,-3.7135,-3.7674,-4.0666,-4.324,-4.5424,-4.6411,-4.7189,-4.7788,-4.7788,-4.7369,-4.6501,-4.4456,-4.2731,-4.0995,-3.902,-3.7973,-3.7464,-3.7434,-3.6746,-3.5998,-3.5998,-3.5998,-3.5998,-3.5998,-3.5489,0.0,0.0,-3.3484,-3.2617,-3.1271,-3.1002,-3.0883,-3.0582,-3.0763,-3.1002,-3.1002,-3.154,-3.2108,-3.2467,-3.3365,-3.3873,-3.3544,-3.4424,0.0,-3.4607,-3.5186,-3.5674,-3.6039,-3.5686,-3.5519,-3.5519,-3.5519,-3.5519,-3.5519,-3.6228,-3.6783,-3.7203,-3.7962,-3.8884,-4.0,-4.0753,-4.1478,-4.2144,-4.2505,-4.2645,-4.2743,-4.4171,-4.4789,-4.4952,-4.6815,-4.7572,-4.7572,-4.7572,-4.7572,-4.7473,-4.6523,-4.5889,-4.5416,-3.5519,-3.5519,-3.5699,-3.6357,-3.7105,-3.8063,-3.9409,-4.0068,-4.0965,-4.256,-4.4347,-4.5125,-4.4157,-4.306,-4.1901,-4.0666,-3.8512,-3.7494,-3.8123,-3.7464,-3.6836,-3.6327,-3.6297,-3.5998,-3.531,-3.5429,-3.5519,-3.5519,-3.5519,-3.5519,-3.5519,-3.5519,-3.522,-3.4743,-3.525,-3.534,-3.5102,-3.5639,-3.6686,-3.8332,-4.2342,-4.3928,-4.4257,-4.704,-4.8027,-4.7938,-4.8057,-4.7429,-4.6232,-4.4306,-4.3858,-4.3449,-3.9589,-3.8751,-3.917,-3.8871,-3.7853,-3.6866,-3.7015,-3.7045,-3.6985,-3.6716,-3.5971,-3.5132,0.0,0.0,0.0,-3.2049,0.0,0.0,0.0,0.0,0.0,0.0,0.0,0.0,0.0,-3.2407,0.0,-3.3125,-3.3215,0.0,-3.3484,-3.4203,-3.4921,-3.5459,-3.5651,-3.5651,-3.5519,-3.5651,-3.5651,-3.5489,-3.6101,-3.6477,-3.66,-3.7359,-3.8214,-3.9055,-3.9951,-4.072,-4.1392,-4.1978,-4.2269,-4.2301,-4.3552,-4.4125,-4.4221,-4.5597,-4.6208,-4.6279,-4.7036,-4.7205,-4.6968,-4.6208,-4.5782,-4.553,-3.5519,-3.5519,-3.5699,-3.6357,-3.7494,-3.8721,-4.0098,-4.0337,-4.1294,-4.3778,-4.5334,-4.6381,-4.68,-4.4167,-4.301,-4.4496,-3.9709,-3.7823,-4.0756,-3.7674,-3.5699,-3.5609,-3.5609,-3.531,-3.4653,-3.519,-3.5519,-3.5519,-3.5519,-3.5519,-3.5519,-3.5519,-3.5459,-3.54,-3.5459,-3.6088,-3.7075,-3.7165,-3.8302,-4.0217,-4.1931,-4.262,-4.298,-4.6172,-4.704,-4.6621,-4.7219,-4.7309,-4.698,-4.5544,-4.4347,-4.32,-4.2201,-4.0277,-3.8721,-3.9858,-3.923,-3.8302,-3.8931,-3.9044,-3.8811,0.0,-3.7614,-3.7345,0.0,0.0,-3.4801,-3.3544,0.0,0.0,0.0,0.0,0.0,0.0,0.0,0.0,-3.1511,-3.163,-3.172,-3.172,-3.2228,0.0,0.0,-3.4651,-3.5429,-3.5489,-3.6102,-3.6196,-3.5522,-3.6102,-3.6165,-3.5522,-3.5587,-3.5943,-3.6569,-3.7282,-3.8421,-3.9977,-4.1296,-4.2369,-4.3099,-4.3138,-4.3139,-4.3207,-4.3847,-4.4125,-4.4221,-4.5597,-4.6208,-4.6208,-4.6314,-4.585,-4.5116,-4.4999,-4.4396,-4.3615,-3.5519,-3.5519,-3.5699,-3.6357,-3.6926,-3.7853,-3.9559,-4.2432,-4.4945,-4.6411,-4.7758,-4.879,-4.9494,-4.6651,-4.5155,-4.6352,-4.2432,-4.0344,-4.1362,-3.911,-3.7584,-3.7195,-3.7165,-3.6686,-3.5669,-3.5938,-3.5878,-3.5519,-3.5519,-3.5519,-3.5519,-3.5519,-3.5519,-3.5519,-3.5519,-3.6207,-3.7404,-3.7404,-3.8571,-4.0487,-4.1452,-4.2291,-4.3309,-4.6202,-4.7369,-4.7459,-4.7339,-4.7309,-4.704,0.0,-4.4885,0.0,0.0,0.0,-4.0763,-4.0905,-4.0307,-3.9619,-3.9918,0.0,0.0,0.0,0.0,0.0,-3.6507,0.0,-3.5818,0.0,0.0,0.0,0.0,0.0,0.0,0.0,-3.2079,0.0,0.0,0.0,-3.1062,0.0,0.0,0.0,0.0,0.0,0.0,0.0,-3.5952,-3.629,-3.5522,-3.6196,-3.6259,-3.5522,-3.5519,-3.5651,-3.5943,-3.6643,-3.7487,-3.856,-4.004,-4.0865,-4.1116,-4.1564,-4.1788,-4.1851,-4.2879,-4.3336,-4.3427,-4.4777,-4.5011,-4.4517,-4.4517,-4.4631,-4.4737,-4.4128,-4.3654,-4.329,-3.5519,-3.5519,-3.5639,-3.6118,-3.6507,-3.7464,-3.9619,-4.321,-4.6172,-4.7578,-4.8416,-4.9448,-5.105,-4.8446,-4.7309,-4.9045,-4.5334,-4.294,-4.3,-4.0756,-3.896,-3.7913,-3.8033,-3.7434,-3.5968,-3.6297,-3.6178,-3.5519,-3.5519,-3.5519,-3.5519,-3.5519,-3.5519,-3.5519,-3.6058,-3.7015,-3.8242,-3.8601,-3.9918,-4.1773,-4.2073,-4.3,-4.4407,-4.6322,-4.7429,-4.7967,-4.7489,-4.7309,-4.707,-4.5424,-4.5394,0.0,-4.3,-4.2321,-4.2261,0.0,0.0,0.0,-4.0487,0.0,0.0,0.0,0.0,0.0,0.0,0.0,0.0,0.0,0.0,0.0,0.0,0.0,-3.3544,-3.2886,0.0,-3.2318,0.0,-3.1182,0.0,0.0,0.0,0.0,0.0,0.0,0.0,0.0,0.0,-3.6168,-3.5816,-3.6291,-3.6353,-3.5814,-3.5619,-3.5579,-3.5759,-3.6417,-3.7181,-3.8054,-3.9336,-4.0023,-4.013,-4.0758,-4.1062,-4.1125,-4.2288,-4.2736,-4.2819,-4.3919,-4.3966,-4.329,-4.329,-4.3732,-4.4282,-4.3566,-4.329,-4.329,-3.5519,-3.5519,-3.5519,-3.5519,-3.6567,-3.8272,-4.0905,-4.1474,-4.2731,-4.5963,-4.5843,-4.692,-5.078,-4.8865,-4.9075,-5.3593,-4.8027,-4.5065,-4.698,-4.2282,-3.8571,-3.6626,-3.7135,-3.6537,-3.4623,-3.5851,-3.6178,-3.5519,-3.5519,-3.5519,-3.5519,-3.5519,-3.5519,-3.5579,-3.7464,-3.905,-4.0397,-4.1692,-4.3369,-4.5095,-4.4466,-4.5035,-4.619,-4.6279,-4.677,-4.7339,-4.7309,0.0,0.0,-4.6501,-4.5843,0.0,0.0,0.0,0.0,0.0,0.0,0.0,0.0,0.0,0.0,-3.9888,0.0,0.0,0.0,0.0,-3.7973,0.0,0.0,0.0,0.0,-3.4503,-3.4264,-3.3574,-3.2916,0.0,0.0,0.0,0.0,0.0,0.0,0.0,0.0,0.0,0.0,0.0,0.0,0.0,-3.6538,-3.6569,-3.6569,-3.6569,-3.5847,-3.5818,-3.6447,-3.7075,-3.8118,-3.9637,-4.0318,-4.1131,-4.1949,-4.1949,-4.1949,-4.1981,-4.2497,-4.2695,-4.2716,-4.315,-4.3329,-4.329,-4.329,-4.3329,-4.3329,-4.3329,-4.329,-4.329,-3.5519,-3.5519,-3.5519,-3.5519,-3.6207,-3.7823,-4.0905,-4.2851,-4.5304,-4.9075,-4.9733,-5.1528,-5.5957,-5.485,-5.4431,-5.5987,-5.2905,-5.0212,-4.8686,-4.5693,-4.305,-4.1115,-4.1167,-4.0217,-3.7793,-3.8631,-3.8332,-3.6776,-3.6357,-3.6148,-3.6148,-3.5699,-3.5729,-3.6207,-3.7255,-3.8721,-4.0487,-4.1841,-4.3279,-4.4706,-4.5364,-4.6441,-4.7578,0.0,-4.71,-4.7309,-4.7309,-4.701,0.0,-4.689,-4.5933,-4.4616,-4.4377,-4.3718,-4.288,-4.2261,-4.2491,0.0,0.0,0.0,-4.2731,-4.1654,0.0,0.0,0.0,0.0,0.0,0.0,0.0,0.0,0.0,-3.516,-3.4951,-3.4294,-3.3963,-3.3664,0.0,0.0,0.0,0.0,0.0,-3.3245,0.0,0.0,0.0,0.0,0.0,0.0,0.0,-3.7128,-3.7144,-3.66,-3.6304,-3.6267,-3.6477,-3.7524,-3.8327,-3.8849,-4.0108,-4.0554,-4.0305,-4.0894,-4.0826,-4.0331,-4.1383,-4.1842,-4.1933,-4.2908,-4.329,-4.329,-4.329,-4.329,-4.329,-4.329,-4.329,-4.329,-3.5549,-3.5699,-3.5848,-3.5848,-3.6985,-3.8751,-4.1362,-4.4377,-4.7429,-5.0435,-5.2067,-5.4491,-5.865,-5.8112,-5.7663,-5.8112,-5.6376,-5.3533,-4.9569,-4.8297,-4.616,-4.2791,-4.326,-4.2183,-3.911,-3.9948,-3.932,-3.7075,-3.6896,-3.6806,-3.6806,-3.6148,-3.6088,-3.6537,-3.7883,-3.905,-4.0187,-4.2192,-4.3688,-4.4766,-4.5873,-4.698,0.0,0.0,-4.704,-4.7578,0.0,-4.6681,-4.6381,-4.68,-4.5933,-4.4616,-4.4377,-4.3828,-4.311,-4.2282,-4.2641,-4.314,-4.2453,-4.2641,0.0,-4.2201,-4.2051,0.0,-4.0397,0.0,-4.0636,0.0,0.0,0.0,0.0,0.0,-3.537,-3.4921,-3.4683,-3.4264,0.0,-3.3694,0.0,0.0,-3.3634,-3.3484,0.0,0.0,0.0,0.0,0.0,0.0,0.0,0.0,-3.7114,-3.66,-3.6546,-3.6596,-3.6806,-3.7853,-3.8512,-3.8751,-3.9777,-3.992,-3.9409,-3.999,-4.0041,-3.9828,-4.0905,-4.1542,-4.1841,-4.288,-4.329,-4.329,-4.329,-4.329,-4.329,-4.329,-4.3439,-4.3678,-3.5669,-3.6148,-3.6626,-3.6626,-3.8691,-4.0816,-4.2291,-4.5795,-4.8775,-5.0196,-5.2755,-5.5628,-5.889,-5.871,-5.88,-5.9967,-5.8351,-5.5089,-5.0048,-5.0182,-4.7878,-4.2073,-4.3569,-4.2701,-3.8721,-3.9918,-3.932,-3.6686,-3.7225,-3.7494,-3.7434,-3.6776,-3.6507,-3.6626,-3.917,-3.9978,-3.9582,-4.288,-4.4676,-4.5364,-4.6052,-4.6711,-4.716,-4.5753,-4.6471,-4.8027,-4.677,-4.6249,-4.619,-4.6249,-4.5813,-4.5095,-4.4496,-4.3828,-4.305,-4.1833,-4.2372,-4.2901,-4.1055,-4.1444,-4.2291,-4.1624,0.0,0.0,0.0,0.0,-4.1085,0.0,0.0,0.0,0.0,0.0,0.0,-3.5519,-3.4951,-3.4324,-3.3634,-3.4144,-3.4533,-3.4503,-3.3933,-3.3544,-3.3604,-3.3515,0.0,0.0,0.0,0.0,0.0,0.0,-3.6631,-3.6662,-3.6576,-3.6836,-3.7434,-3.8093,-3.8781,-3.9373,-3.9373,-3.9373,-3.9373,-3.9403,-3.9798,-4.0427,-4.1115,-4.1811,-4.244,-4.306,-4.329,-4.329,-4.329,-4.3319,-4.3349,-4.3349,-4.3768,-4.4436,-3.6178,-3.7554,-3.8661,-3.8661,-3.923,-4.0606,-4.3389,-4.5933,-4.8925,-5.2695,-5.5478,-5.8201,-6.1014,-6.1194,-6.0805,-6.0146,-5.9608,-5.8112,-5.5269,-5.4341,-5.2127,-4.8147,-4.7997,-4.6142,-4.2192,-4.288,-4.2013,-3.9409,-3.905,-3.8631,-3.8123,-3.7015,-3.6716,-3.7225,-3.8392,-3.908,-3.9553,-4.2363,-4.4257,-4.5364,-4.6052,-4.6711,-4.71,0.0,-4.5514,-4.677,-4.6399,-4.5651,-4.4975,-4.595,-4.5173,-4.3858,-4.4227,-4.3828,-4.323,-4.2901,-4.3021,-4.317,-4.2692,-4.2821,-4.306,-4.288,-4.2821,-4.2701,0.0,0.0,0.0,0.0,0.0,0.0,0.0,0.0,0.0,-3.5579,-3.537,-3.5011,-3.4354,-3.4801,-3.504,-3.4563,-3.4354,-3.4412,-3.4951,0.0,0.0,0.0,0.0,0.0,0.0,0.0,0.0,-3.7312,-3.721,-3.7494,-3.8123,-3.8811,-3.926,-3.9373,-3.9373,-3.9373,-3.9439,-3.9918,-4.0247,-4.0457,-4.1662,-4.2231,-4.244,-4.306,-4.329,-4.329,-4.329,-4.3589,-4.4047,-4.4047,-4.4466,-4.5065,-3.7195,-3.914,-4.0876,-4.1444,-4.2282,-4.3389,-4.4945,-4.689,-4.9404,-5.2875,-5.5867,-5.8231,-5.9757,-6.0954,-6.1253,-6.0176,-6.0086,-5.889,-5.6017,-5.5957,-5.4042,-4.9583,-4.9583,-4.7578,-4.3069,-4.3269,-4.2162,-3.9529,-3.914,-3.8781,-3.8362,-3.7644,-3.7345,-3.7434,-3.8422,-3.905,-3.9553,-4.2183,-4.4077,-4.5304,-4.5394,-4.5843,0.0,-4.4526,-4.4485,-4.5454,-4.5454,-4.4945,-4.4436,-4.5185,-4.4665,-4.3738,-4.3828,-4.3589,-4.329,-4.329,-4.329,-4.329,-4.329,-4.329,-4.329,-4.329,-4.312,-4.288,-4.2791,-4.2402,-4.1713,0.0,0.0,0.0,0.0,0.0,0.0,-3.5579,-3.5519,-3.537,-3.4981,-3.525,-3.537,-3.4981,-3.4921,0.0,0.0,0.0,0.0,0.0,0.0,0.0,0.0,0.0,0.0,-3.7111,-3.7586,-3.8003,-3.8392,-3.9349,-3.9709,-3.9373,-3.9373,-3.9373,-3.9403,-4.0098,-4.0546,-4.0876,-4.1961,-4.256,-4.2821,-4.314,-4.329,-4.329,-4.329,-4.3858,-4.4736,-4.4736,-4.5155,-4.5783,-3.8512,-4.0726,-4.2821,-4.3868,-4.5933,-4.7339,-4.701,-4.8716,-5.072,-5.2606,-5.5628,-5.7603,-5.7483,-5.9578,-6.0655,-5.9907,-5.9817,-5.8351,-5.482,-5.6077,-5.4581,-4.9164,-4.9853,-4.8027,-4.3039,-4.268,-4.1362,-3.8901,-3.8661,-3.8571,-3.8661,-3.8482,-3.8123,-3.7704,-3.8811,-3.9313,-3.9553,-4.2094,-4.3808,-4.4766,-4.4436,-4.4646,-4.5035,-4.3768,-4.3708,-4.4317,-4.4227,-4.4197,-4.4197,-4.4287,-4.4257,-4.4077,-4.3469,-4.329,-4.329,-4.329,-4.329,-4.329,-4.329,-4.329,-4.329,-4.329,-4.2851,-4.256,-4.306,-4.1743,-4.0576,-4.1145,-3.9349,-3.7614,0.0,0.0,0.0,-3.5609,0.0,0.0,0.0,-3.5519,-3.5519,-3.5519,-3.5429,0.0,0.0,0.0,0.0,0.0,0.0,0.0,0.0,0.0,0.0,-3.66,-3.7674,-3.8392,-3.8661,0.0,-4.0038,-3.9559,-3.9469,-3.9373,-3.9439,-4.0187,-4.0846,-4.1452,-4.2201,-4.2821,-4.329,-4.329,-4.329,-4.329,-4.3379,-4.4227,-4.5304,-4.5394,-4.5873,-4.6488,-3.9798,-4.1743,-4.306,-4.28,-4.5693,-4.8626,-5.0122,-5.2516,-5.467,-5.6047,-5.868,-6.0206,-5.9608,-5.9967,-5.9787,-5.859,-5.8471,-5.7932,-5.6675,-5.6436,-5.5149,-5.2426,-5.1498,-4.9344,-4.5723,-4.4047,-4.2701,-4.1692,-4.0038,-3.9529,-4.0038,-3.8901,-3.8631,-3.905,-3.8721,-3.8871,-3.9559,-4.1654,0.0,-4.2192,-4.3718,-4.4377,-4.4407,-4.3589,-4.3708,-4.4257,-4.3648,-4.3469,-4.3559,-4.4137,-4.3917,-4.3439,-4.3319,-4.329,-4.329,-4.329,-4.329,-4.329,-4.329,-4.329,-4.329,-4.329,-4.2851,-4.244,-4.253,-4.1414,-4.0427,-4.0546,-3.9768,-3.8721,-3.7614,0.0,0.0,0.0,0.0,0.0,0.0,0.0,-3.5519,-3.5519,-3.5011,-3.4891,0.0,0.0,0.0,0.0,0.0,0.0,0.0,0.0,0.0,0.0,-3.7464,0.0,0.0,0.0,-3.9798,-4.0217,-3.9679,-3.9373,-3.9469,-4.0666,-4.1265,-4.1444,-4.2641,-4.32,-4.329,-4.329,-4.329,-4.3349,-4.3888,-4.4616,-4.5364,-4.5933,-4.6561,-4.716,-4.2731,-4.3988,-4.5095,-4.5855,-4.8955,-5.2007,-5.3952,-5.6226,-5.7334,-5.6256,-5.7244,-5.7782,-5.7124,-5.8261,-5.868,-5.7693,-5.7573,-5.7304,-5.6645,-5.6346,-5.5119,-5.2785,-5.1738,-4.9673,-4.6339,-4.4047,-4.274,-4.241,-4.0397,-3.9589,-3.9888,-3.9589,-3.923,-3.8871,-3.8901,-3.9499,-4.0487,0.0,0.0,-4.2521,-4.3778,-4.4317,-4.4317,-4.4347,-4.4347,-4.4287,-4.3917,-4.3589,-4.3349,-4.3648,-4.3559,-4.329,-4.329,-4.329,-4.329,-4.329,-4.329,-4.329,-4.329,-4.329,-4.329,-4.329,-4.2581,-4.1991,-4.2321,-4.1085,-3.9978,-4.0337,-3.9589,-3.8482,-3.7165,-3.6417,0.0,0.0,0.0,0.0,0.0,0.0,-3.5878,-3.5549,-3.522,-3.513,0.0,0.0,0.0,0.0,-3.4861,-3.4771,0.0,0.0,0.0,0.0,0.0,0.0,0.0,0.0,0.0,-4.0905,-4.0247,-4.0098,-4.0457,-4.1482,-4.1931,-4.1991,-4.291,-4.329,-4.329,-4.329,-4.3499,-4.3828,-4.4197,-4.4945,-4.5873,-4.6202,-4.6741,-4.7309,-4.5753,-4.6471,-4.7519,-4.9374,-5.2426,-5.5089,-5.6466,-5.862,-5.9219,-5.6765,-5.6196,-5.5777,-5.5119,-5.6885,-5.7782,-5.6974,-5.6885,-5.6645,-5.6017,-5.5957,-5.491,-5.2516,-5.1768,-4.9942,-4.68,-4.4137,-4.274,-4.262,-4.0606,-3.9709,-3.9858,-4.0367,-3.9888,-3.8631,0.0,0.0,0.0,0.0,-4.2043,-4.321,-4.3988,-4.4496,-4.4796,-4.5155,-4.4975,-4.4496,-4.4377,-4.3858,-4.329,-4.329,-4.329,-4.329,-4.329,-4.329,-4.329,-4.329,-4.329,-4.329,-4.329,-4.329,-4.329,-4.329,-4.2342,-4.1542,-4.2081,-4.0726,-3.9559,-4.0098,-3.923,-3.8093,-3.7075,-3.6656,0.0,0.0,0.0,0.0,0.0,0.0,-3.6297,-3.5789,-3.5579,-3.5519,-3.5519,0.0,0.0,0.0,0.0,-3.4921,-3.5459,-3.5519,-3.6088,0.0,0.0,-3.905,-4.0397,0.0,-4.0726,-4.1422,-4.0726,-4.0756,-4.1414,-4.2111,-4.241,-4.244,-4.306,-4.329,-4.329,-4.3439,-4.3798,-4.4347,-4.4616,-4.5394,-4.6352,-4.6429,-4.686,-4.7309,-4.7638,-4.858,-4.9434,-5.081,-5.3773,-5.5837,-5.5418,-5.8052,-6.0206,-6.0505,-5.9488,-5.8501,-5.7842,-5.7909,-5.7633,-5.6376,-5.6308,-5.5987,-5.5329,-5.5269,-5.464,-5.3144,-5.2456,-5.084,-4.8147,-4.5484,-4.3838,0.0,-4.1265,-4.0606,0.0,-4.1265,0.0,0.0,0.0,0.0,0.0,-4.0606,-4.1841,-4.259,-4.3808,-4.5035,-4.604,-4.5514,-4.5244,-4.5125,-4.4526,-4.3858,-4.329,-4.329,-4.329,-4.329,-4.329,-4.329,-4.329,-4.329,-4.329,-4.329,-4.329,-4.329,-4.329,-4.329,-4.2342,-4.1422,-4.1482,-4.0397,-3.9439,-3.9499,-3.8901,-3.8362,-3.8242,-3.7255,-3.6656,0.0,0.0,0.0,0.0,0.0,-3.6477,-3.6387,0.0,0.0,-3.5519,-3.5519,0.0,0.0,-3.5459,-3.5429,-3.5519,-3.5519,-3.6088,-3.7375,0.0,-3.905,-4.0397,-4.0397,-4.0726,-4.1422,-4.0726,-4.0756,-4.1414,-4.2111,-4.241,-4.244,-4.306,-4.329,-4.3349,-4.3988,-4.4257,-4.4436,-4.5622,-4.616,-4.6339,-4.698,-4.7249,-4.7309,-4.9883,-5.0272,-5.1109,-5.3234,-5.5029,0.0,0.0,-5.9249,-6.0176,-6.0446,-5.9668,-5.886,-5.8201,-5.8112,-5.7752,-5.6795,-5.6376,-5.6128,-5.5807,-5.5418,-5.476,-5.3832,-5.2785,-5.1528,-5.0092,-4.707,-4.5352,0.0,0.0,0.0,0.0,0.0,0.0,0.0,0.0,-3.9738,-3.9709,-4.1332,-4.2342,-4.309,-4.4825,-4.5843,-4.6249,-4.6022,-4.5903,-4.5813,-4.5155,-4.4496,-4.3947,-4.4377,-4.3988,-4.329,-4.329,-4.329,-4.329,-4.329,-4.329,-4.329,-4.329,-4.329,-4.329,-4.329,-4.2342,-4.1422,-4.1422,-4.0367,-3.9373,-3.9373,-3.8871,-3.8392,-3.8392,-3.7644,-3.7255,0.0,0.0,0.0,0.0,0.0,0.0,-3.5998,0.0,-3.5519,-3.5519,-3.5519,0.0,0.0,0.0,-3.5519,-3.5519,-3.5878,0.0,-3.7375,0.0,-3.905,-4.0397,-4.0008,-4.0546,-4.1991,-4.1294,-4.1534,-4.2551,-4.2821,-4.294,-4.294,-4.32,-4.329,-4.3349,-4.4007,-4.4556,-4.5005,-4.5963,-4.6561,-4.695,-4.7219,-4.7309,-4.7309,-5.2217,0.0,-5.3234,0.0,-5.6735,-5.7663,-5.9518,-5.9787,-5.9787,-5.9787,-5.9398,-5.886,-5.8201,-5.7932,-5.7633,-5.7124,-5.6526,-5.6308,-5.6436,-5.5837,-5.5089,-5.4251,-5.3114,0.0,-5.096,-4.8476,-4.689,-4.6279,-4.4874,0.0,0.0,0.0,0.0,0.0,-4.0487,-4.0816,-4.1324,-4.2252,-4.324,-4.4276,-4.5502,-4.6262,-4.6578,-4.6578,-4.6459,-4.6262,-4.5783,-4.5155,-4.4676,-4.5125,-4.4676,-4.3828,-4.3648,-4.3589,-4.3559,-4.3349,-4.329,-4.329,-4.329,-4.329,-4.329,-4.329,-4.2342,-4.1422,-4.1422,-4.0367,-3.9373,-3.9373,-3.902,-3.8631,-3.8422,-3.7853,-3.7614,-3.8272,0.0,0.0,0.0,-3.7524,0.0,-3.6178,-3.5908,-3.5789,-3.5789,-3.5789,0.0,0.0,0.0,0.0,0.0,0.0,0.0,0.0,0.0,0.0,0.0,-4.0038,-4.0696,-4.2111,-4.1841,-4.2252,-4.329,-4.329,-4.329,-4.329,-4.329,-4.329,-4.3349,-4.4257,-4.4885,-4.5394,-4.6262,-4.689,-4.7309,-4.7309,-4.7309,-4.7309,-5.461,-5.5149,-5.5987,-5.859,-5.9069,-5.9069,-5.9129,-5.9129,-5.9129,-5.9129,-5.9099,-5.886,-5.8201,-5.7513,-5.7094,-5.7094,-5.6526,-5.6436,-5.7034,-5.6496,-5.5568,0.0,0.0,-5.2247,-5.0255,-4.9583,-4.8267,-4.6279,0.0,0.0,-4.329,0.0,-4.294,-4.2381,-4.3,-4.326,-4.326,-4.326,-4.4426,-4.619,-4.5574,-4.6112,-4.7309,-4.7309,-4.689,-4.6279,-4.6279,-4.5873,-4.5274,-4.5304,-4.5274,-4.5155,-4.4496,-4.4317,-4.4167,-4.3469,-4.329,-4.329,-4.329,-4.329,-4.329,-4.329,-4.2342,-4.1422,-4.1422,-4.0367,-3.9373,-3.9373,-3.9373,-3.92,-3.8512,-3.7853,-3.7614,-3.8272,0.0,0.0,0.0,-3.7823,0.0,-3.7375,-3.6836,-3.6477,-3.6477,-3.6477,0.0,0.0,0.0,0.0,0.0,0.0,0.0,-3.7375,-3.8721,0.0,-3.9403,-4.0696,-4.1422,-4.1414,-4.2081,-4.2701,-4.329,-4.329,-4.329,-4.329,-4.329,-4.329,-4.3379,-4.4736,-4.5274,-4.5424,-4.677,-4.7309,-4.7309,-4.7309,-4.7309,-4.7309,-5.5029,-5.5538,-5.6256,-5.7513,-5.8112,-5.859,-5.9039,-5.9099,-5.9099,-5.9099,-5.9099,-5.886,-5.8201,-5.7932,-5.7603,0.0,-5.6526,-5.6308,0.0,-5.5867,-5.5119,-5.4251,-5.3563,-5.2665,-5.1588,-5.0481,-4.9404,-4.8327,0.0,0.0,0.0,-4.3977,-4.3658,-4.306,-4.3718,-4.3977,-4.4037,-4.4934,-4.5681,-4.6309,-4.6591,-4.692,-4.7249,-4.68,-4.68,-4.692,-4.6429,-4.613,-4.6052,-4.6531,-4.6381,-4.5963,-4.5753,-4.5065,-4.4197,-4.3499,-4.329,-4.329,-4.329,-4.329,-4.329,-4.329,-4.2701,-4.2081,-4.2081,-4.1025,-3.9948,-3.9463,-3.9373,-3.92,-3.8512,-3.7853,-3.7614,-3.8272,-3.7853,0.0,0.0,0.0,-3.7075,-3.6207,-3.6327,-3.6477,-3.6477,-3.6866,0.0,0.0,0.0,0.0,0.0,0.0,0.0,0.0,-3.92,0.0,-4.0756,-4.0726,-4.1175,-4.2081,-4.2291,-4.2701,-4.329,-4.329,-4.329,-4.329,-4.329,-4.329,-4.3379,-4.4766,-4.5304,-4.5424,-4.677,-4.7309,-4.7309,-4.7309,-4.7309,-4.7309,-5.5508,-5.5897,-5.6376,-5.6974,-5.7453,-5.7872,-5.8291,-5.8351,-5.8351,-5.8351,-5.859,-5.8471,-5.7812,-5.7962,0.0,-5.7154,-5.6526,-5.6286,-5.6496,-5.5927,-5.5149,-5.4251,-5.3563,-5.2755,-5.1858,-5.102,0.0,-4.9643,-4.8057,-4.6651,-4.5424,-4.4915,-4.4616,-4.4426,-4.4844,-4.5214,-4.5484,-4.6082,-4.6429,-4.6711,-4.686,-4.71,-4.7249,-4.686,-4.695,-4.7249,-4.683,-4.6681,-4.6741,-4.716,-4.704,-4.6651,-4.6411,-4.5753,-4.4885,-4.3917,-4.3678,-4.3618,-4.3349,-4.329,-4.329,-4.329,-4.2851,-4.2261,-4.1782,-4.0995,-4.0217,-3.9559,-3.9373,-3.929,-3.8841,-3.8242,-3.7913,-3.8332,-3.7853,-3.7315,-3.7105,0.0,-3.7105,0.0,0.0,0.0,0.0,-3.7554,-3.7674,0.0,0.0,0.0,0.0,0.0,0.0,-3.902,-3.9529,0.0,-4.0995,-4.1085,-4.1602,-4.241,-4.265,-4.294,-4.329,-4.3559,-4.3529,-4.3319,-4.3828,-4.3888,-4.3768,-4.5125,-4.5693,-4.5783,-4.689,-4.7309,-4.7309,-4.7309,-4.7309,-4.7309,-5.5987,-5.6158,-5.6286,0.0,-5.7034,0.0,-5.7094,-5.7094,-5.7124,-5.7154,-5.7723,-5.7872,-5.7184,-5.7663,-5.7752,-5.7034,0.0,0.0,0.0,-5.6406,-5.5508,-5.4192,-5.3533,-5.2576,-5.1259,-5.1229,-5.0853,-5.0196,-4.8416,-4.7459,-4.7339,-4.6082,-4.5813,-4.6339,-4.6339,-4.6741,-4.7279,-4.6651,-4.6741,-4.7249,-4.6651,-4.6741,-4.7309,-4.7309,-4.7309,-4.7309,-4.7309,-4.7309,-4.7309,-4.7309,-4.7309,-4.7189,-4.6591,-4.6339,-4.6142,-4.4766,-4.4347,-4.4167,-4.3529,-4.3319,-4.329,-4.329,-4.288,-4.2111,-4.0756,-4.0457,-4.0277,-3.9559,-3.9373,-3.9373,-3.9313,-3.8811,-3.8392,-3.8392,-3.7853,-3.7225,-3.6686,0.0,-3.7404,0.0,0.0,0.0,0.0,-3.8422,-3.8212,0.0,0.0,0.0,0.0,0.0,-3.8542,-3.8601,-3.9768,-4.0457,-4.0606,-4.1811,-4.241,-4.247,-4.309,-4.3349,-4.3379,-4.4077,-4.4047,-4.3499,-4.4766,-4.4945,-4.4496,-4.5741,-4.6279,-4.6381,-4.704,-4.7309,-4.7309,-4.7309,-4.7309,-4.7309,0.0,0.0,-5.5628,-5.6286,-5.6376,-5.6555,-5.7034,-5.7094,-5.7274,-5.7812,-5.8022,-5.7872,-5.7184,-5.7244,-5.6885,-5.5748,-5.5957,-5.6017,-5.5658,-5.5508,-5.482,-5.3473,-5.3264,-5.2576,-5.1259,-5.1229,-5.0853,-5.0196,-4.9717,-4.9045,-4.8057,-4.7728,-4.7399,-4.707,-4.707,-4.716,-4.7309,-4.713,-4.716,-4.7309,-4.713,-4.716,-4.7309,-4.7309,-4.7309,-4.7309,-4.7309,-4.7309,-4.7309,-4.7309,-4.7309,-4.7279,-4.713,-4.707,-4.68,-4.5454,-4.4706,-4.4287,-4.4137,-4.3678,-4.329,-4.329,-4.317,-4.2761,-4.1444,-4.1145,-4.0816,-3.9649,-3.9373,-3.926,-3.8721,-3.8512,-3.8392,-3.8392,-3.7853,-3.7524,-3.7883,-3.7644,0.0,0.0,-3.7973,-3.8392,-3.8392,-3.8871,-3.932,0.0,0.0,0.0,0.0,-3.9918,-4.0157,-4.0666,-4.0487,-4.1115,-4.2602,-4.2462,-4.265,-4.312,-4.3778,-4.4077,-4.4107,-4.4766,-4.4975,-4.4855,-4.5155,-4.5214,-4.5125,-4.5963,-4.6279,-4.6381,-4.704,-4.7309,-4.7309,-4.7309,-4.7309,-4.7309,-5.5179,-5.5179,-5.5299,-5.5658,-5.5718,-5.5837,-5.6166,-5.6226,-5.6466,-5.7154,-5.7483,-5.7513,-5.7124,-5.7363,-5.7034,-5.5748,-5.5688,-5.5568,-5.5209,-5.5179,-5.4581,-5.3234,-5.3174,-5.2576,-5.1259,-5.1229,-5.1003,-5.0644,-5.0345,-4.9837,-4.9164,-4.8566,-4.8087,-4.7728,-4.7429,-4.7309,-4.7309,-4.7309,-4.7309,-4.7309,-4.7309,-4.7309,-4.7309,-4.7309,-4.7309,-4.7309,-4.7309,-4.7309,-4.7309,-4.7309,-4.7309,-4.7309,-4.7309,-4.7309,-4.716,-4.6441,-4.5514,-4.4706,-4.4407,-4.3798,-4.329,-4.329,-4.329,-4.3021,-4.2111,-4.1871,-4.1572,-4.0516,-4.0068,-3.9768,-3.9379,-3.905,-3.8751,-3.8452,-3.8093,-3.7883,-3.7943,-3.7883,0.0,-3.8302,-3.8901,-3.9409,-3.9738,-4.0098,-4.0457,-4.0816,-4.0516,0.0,-4.0816,-4.0846,-4.0876,-4.0935,-4.1175,-4.1803,-4.288,-4.2851,-4.312,-4.3738,-4.4137,-4.4466,-4.4796,-4.5454,-4.5603,-4.5334,-4.5933,-4.6052,-4.5813,-4.6501,-4.677,-4.68,-4.716,-4.7309,-4.7309,-4.7309,-4.7309,-4.7309,-5.5179,-5.5179,-5.5179,-5.5179,-5.5179,-5.5179,-5.5179,-5.5179,-5.5448,-5.6226,-5.6765,-5.7124,-5.7244,-5.7693,-5.7483,-5.6286,-5.5568,-5.5179,-5.5179,-5.5089,-5.4491,-5.3234,-5.3084,-5.2456,-5.1259,-5.1229,-5.1229,-5.1229,-5.0614,-5.0285,-5.0166,-4.9105,-4.8476,-4.8267,-4.7698,-4.7399,-4.7309,-4.7309,-4.7309,-4.7309,-4.7309,-4.7309,-4.7309,-4.7309,-4.7369,-4.7429,-4.7339,-4.7369,-4.7429,-4.7339,-4.7309,-4.7309,-4.7309,-4.7309,-4.7309,-4.7309,-4.6411,-4.5304,-4.4646,-4.3858,-4.329,-4.329,-4.329,-4.311,-4.256,-4.241,-4.2201,-4.1542,-4.0935,-4.0546,-4.0546,-4.0008,-3.9379,-3.8781,-3.8512,-3.8242,-3.7764,0.0,-3.8691,-3.9469,-4.0068,-4.0666,-4.1324,-4.1422,-4.1452,-4.1542,-4.1482,-4.1414,-4.1572,-4.1572,-4.1265,-4.0726,-4.1811,-4.25,-4.268,-4.321,-4.3768,-4.4466,-4.4556,-4.4915,-4.5484,-4.6172,-4.6142,-4.5663,-4.68,-4.698,-4.6531,-4.707,-4.7309,-4.7309,-4.7309,-4.7309,-4.7309,-4.7309,-4.7309,-4.7309,-5.5179,-5.5179,-5.5179,-5.5179,-5.5179,-5.5179,-5.5179,-5.5179,-5.5628,-5.6795,-5.7034,-5.7304,-5.7902,-5.7543,-5.6974,-5.6278,-5.5568,-5.5179,-5.5179,-5.467,-5.4012,-5.3204,-5.2665,-5.2007,-5.1229,-5.1229,-5.1229,-5.1229,-5.1109,-5.0734,-5.0196,-4.9986,-4.9344,-4.8297,-4.8177,-4.7818,-4.7309,-4.7309,-4.7309,-4.7309,-4.7309,-4.7309,-4.7309,-4.7309,-4.7638,-4.8057,-4.7489,-4.7668,-4.8057,-4.7489,-4.7309,-4.7309,-4.7309,-4.7309,-4.7309,-4.7309,-4.677,-4.6022,-4.5334,-4.4257,-4.329,-4.329,-4.329,-4.311,-4.256,-4.241,-4.2201,-4.1542,-4.1332,-4.1235,-4.1235,-4.0696,-4.0217,-4.0098,-3.914,-3.8571,-3.9014,0.0,-3.8841,-4.0098,-4.0337,-4.0666,-4.1324,-4.1422,-4.1662,-4.2201,-4.1722,-4.1662,-4.2201,-4.2261,-4.2201,-4.2081,-4.2291,-4.292,-4.3988,-4.4107,-4.4496,-4.5155,-4.5723,-4.601,-4.6202,-4.686,-4.71,-4.701,-4.7219,-4.7249,-4.716,-4.7279,-4.7309,-4.7309,-4.7309,-4.7309,-4.7309,-4.7309,-4.7309,-4.7309,-5.5179,-5.5179,-5.5179,-5.5179,-5.5179,-5.5179,-5.5179,-5.5179,-5.5658,-5.6915,-5.7094,-5.7363,-5.8052,-5.7513,-5.6974,-5.6705,-5.5748,-5.5329,-5.5688,-5.476,-5.3892,-5.3204,-5.2546,-5.1887,-5.1229,-5.1229,-5.1229,-5.1229,-5.1229,-5.105,-5.0704,-5.0375,-4.9867,-4.9314,-4.8985,-4.8446,-4.7848,-4.7848,-4.7638,-4.7309,-4.7309,-4.7309,-4.7309,-4.7309,-4.7728,-4.8207,-4.7549,-4.7728,-4.8177,-4.7519,-4.7309,-4.7309,-4.7309,-4.7309,-4.7309,-4.7309,-4.683,-4.613,-4.5484,-4.4855,-4.4317,-4.3958,-4.3828,-4.3688,-4.303,-4.288,-4.2791,-4.2491,-4.2162,-4.1961,-4.1961,-4.1085,-4.0516,-4.0876,-3.9798,0.0,0.0,-3.9679,-3.9828,-4.0816,-4.1235,-4.1713,-4.2372,-4.2432,-4.2551,-4.2851,-4.2611,-4.2551,-4.288,-4.288,-4.288,-4.288,-4.288,-4.3359,-4.4317,-4.4317,-4.4825,-4.5843,-4.613,-4.6501,-4.686,-4.716,-4.7309,-4.7309,-4.7309,-4.7309,-4.7309,-4.7309,-4.7309,-4.7309,-4.7309,-4.7309,-4.7309,-4.7309,-4.7309,-4.7309,-5.5179,-5.5179,-5.5179,-5.5179,-5.5179,-5.5179,-5.5179,-5.5179,-5.5598,-5.6735,-5.7004,-5.7304,-5.7812,-5.7423,-5.7094,-5.7094,-5.5927,-5.5478,-5.6188,-5.494,-5.3892,-5.3204,-5.2396,-5.1738,-5.1229,-5.1229,-5.1229,-5.1229,-5.1229,-5.1229,-5.1199,-5.0644,-5.0345,-5.0166,-4.9553,-4.903,-4.8506,-4.8177,-4.7848,-4.7549,-4.7549,-4.7549,-4.7549,-4.7698,-4.8177,-4.8626,-4.7818,-4.7967,-4.8416,-4.7758,-4.7429,-4.7339,-4.7489,-4.7429,-4.7309,-4.7309,-4.695,-4.6411,-4.5723,-4.5424,-4.5185,-4.4676,-4.4556,-4.4407,-4.3858,-4.3738,-4.3738,-4.3738,-4.3269,-4.286,-4.286,-4.1743,-4.1025,-4.1572,0.0,0.0,0.0,-4.0636,-4.0876,-4.1572,-4.2081,-4.2611,-4.323,-4.329,-4.329,-4.329,-4.329,-4.329,-4.329,-4.329,-4.3349,-4.3529,-4.3529,-4.3917,-4.4766,-4.4725,-4.5364,-4.6518,-4.6518,-4.68,-4.7309,-4.7309,-4.7309,-4.7309,-4.7309,-4.7309,-4.7309,-4.7309,-4.7309,-4.7309,-4.7309,-4.7309,-4.7309,-4.7309,-4.7399,-4.7549,-5.5179,-5.5179,-5.5179,-5.5179,-5.5179,-5.5179,-5.5179,-5.5179,-5.5448,-5.6188,-5.6735,-5.7124,-5.7154,-5.7124,-5.7094,-5.7094,-5.5927,-5.5478,-5.6188,-5.494,-5.3892,-5.3204,-5.1977,-5.1259,-5.1229,-5.1229,-5.1229,-5.1229,-5.1229,-5.1229,-5.1229,-5.1169,-5.0764,-5.0166,-4.9553,-4.9269,-4.9149,-4.7908,-4.7698,-4.8207,-4.8207,-4.8207,-4.8267,-4.894,-4.9523,-4.9897,-4.8656,-4.8626,-4.9149,-4.8446,-4.7818,-4.7429,-4.8027,-4.7788,-4.7309,-4.7309,-4.7279,-4.71,-4.6441,-4.5783,-4.5274,-4.5244,-4.5214,-4.5214,-4.5155,-4.5155,-4.5155,-4.5155,-4.4616,-4.4167,-4.4167,-4.309,-4.2261,-4.2321,0.0,0.0,-4.1294,-4.1362,-4.1602,-4.2261,-4.2381,-4.2611,-4.323,-4.329,-4.329,-4.329,-4.329,-4.329,-4.329,-4.329,-4.3559,-4.4227,-4.4257,-4.4855,-4.613,-4.613,-4.6488,-4.7249,-4.7249,-4.7249,-4.7309,-4.7309,-4.7309,-4.7309,-4.7309,-4.7309,-4.7309,-4.7309,-4.7309,-4.7309,-4.7309,-4.7309,-4.7309,-4.7309,-4.7698,-4.8207,-5.5179,-5.5179,-5.5179,-5.5179,-5.5179,-5.5179,-5.5179,-5.5179,-5.5418,-5.6077,-5.6376,-5.6675,-5.7064,-5.6765,-5.6675,-5.7064,-5.5927,-5.5478,-5.6188,-5.5329,-5.4132,-5.2636,-5.1708,-5.1229,-5.1229,-5.1229,-5.1229,-5.1229,-5.1229,-5.1229,-5.1229,-5.1229,-5.1079,-5.0794,-5.0601,-5.0242,-4.9823,-4.9344,-4.9045,-4.894,-4.894,-4.894,-4.897,-4.9209,-4.9673,-5.0016,-4.8745,-4.8955,-4.9703,-4.8656,-4.8117,-4.7967,-4.8207,-4.7848,-4.7309,-4.7309,-4.7309,-4.7249,-4.701,-4.6741,-4.6441,-4.6022,-4.5933,-4.5813,-4.5394,-4.5304,-4.5304,-4.5304,-4.5095,-4.4915,-4.4915,-4.4167,-4.3688,-4.4107,0.0,-4.2132,-4.2551,-4.2252,-4.2111,-4.2381,-4.3129,-4.3658,-4.3928,-4.4317,-4.4556,-4.4556,-4.4556,-4.4556,-4.4556,-4.4556,-4.4855,-4.5502,-4.5544,-4.5771,-4.6279,-4.6279,-4.6651,-4.7309,-4.7309,-4.7309,-4.7309,-4.7309,-4.7309,-4.7309,-4.7309,-4.7309,-4.7309,-4.7309,-4.7309,-4.7309,-4.7309,-4.7309,-4.7369,-4.7758,-4.8087,-4.8356,-5.5179,-5.5179,-5.5179,-5.5179,-5.5179,-5.5179,-5.5179,-5.5179,-5.5359,-5.5807,-5.6047,-5.6256,-5.6466,-5.6286,-5.6346,-5.6765,-5.5807,-5.5478,-5.6188,-5.5149,-5.3952,-5.2576,-5.1678,-5.1229,-5.1229,-5.1229,-5.1229,-5.1229,-5.1229,-5.1229,-5.1229,-5.1229,-5.1229,-5.1199,-5.099,-5.0734,-5.0465,-5.0122,-4.9793,-4.9583,-4.9583,-4.9583,-4.9583,-4.9793,-5.0152,-5.0345,-4.9284,-4.9494,-5.0046,-4.9194,-4.8775,-4.8596,-4.8596,-4.7997,-4.7339,-4.7549,-4.7608,-4.7578,-4.7369,-4.7608,-4.7728,-4.686,-4.6621,-4.6501,-4.6022,-4.5933,-4.5933,-4.5933,-4.5753,-4.5603,-4.5603,-4.5065,-4.4766,-4.5214,-4.4167,-4.3449,-4.3898,-4.3569,-4.3339,-4.3339,-4.4077,-4.4616,-4.4616,-4.5035,-4.5304,-4.5304,-4.5304,-4.5304,-4.5304,-4.5514,-4.5843,-4.6279,-4.6531,-4.6621,-4.6621,-4.6621,-4.686,-4.7309,-4.7309,-4.7309,-4.7309,-4.7309,-4.7309,-4.7309,-4.7309,-4.7309,-4.7309,-4.7309,-4.7309,-4.7309,-4.7309,-4.7309,-4.7369,-4.8027,-4.8416,-4.8686,-5.5209,-5.5179,-5.5179,-5.5209,-5.5179,-5.5179,-5.5179,-5.5179,-5.5179,-5.5179,-5.5748,-5.5927,-5.5269,-5.5777,-5.6218,-5.6218,-5.5568,-5.5478,-5.6188,-5.4281,-5.3204,-5.3204,-5.1917,-5.1229,-5.1229,-5.1229,-5.1229,-5.1229,-5.1229,-5.1229,-5.1229,-5.1229,-5.1229,-5.1199,-5.0495,-5.0554,-5.1139,-4.9823,-4.9643,-5.0196,-5.0196,-5.0196,-5.0285,-5.0913,-5.1229,-5.1139,-5.0435,-5.0196,-5.0196,-5.0196,-4.9793,-4.9329,-4.9299,-4.8386,-4.7459,-4.8087,-4.8297,-4.8147,-4.7489,-4.8267,-4.9,-4.7638,-4.7309,-4.7309,-4.7309,-4.7309,-4.7309,-4.7309,-4.68,-4.6279,-4.6279,-4.5783,-4.5304,-4.5304,-4.5304,-4.5304,-4.5304,-4.5304,-4.5304,-4.5304,-4.5304,-4.5304,-4.5304,-4.5304,-4.5304,-4.5304,-4.5304,-4.5304,-4.5304,-4.5963,-4.6279,-4.6279,-4.695,-4.7309,-4.7309,-4.7309,-4.7309,-4.7309,-4.7309,-4.7309,-4.7309,-4.7309,-4.7309,-4.7309,-4.7309,-4.7309,-4.7309,-4.7309,-4.7309,-4.7309,-4.7309,-4.7309,-4.7399,-4.8057,-4.876,-4.9419,-5.5777,-5.5508,-5.5329,-5.5807,-5.5508,-5.5179,-5.5179,-5.5179,-5.5179,-5.5179,-5.5359,-5.5418,-5.5209,-5.5359,-5.5478,-5.5478,-5.5299,-5.5269,-5.5478,-5.4491,-5.3892,-5.3892,-5.2187,-5.1229,-5.1229,-5.1229,-5.1229,-5.1229,-5.1229,-5.1229,-5.1229,-5.1229,-5.1229,-5.1199,-5.102,-5.0973,-5.1199,-5.081,-5.102,-5.1558,-5.1109,-5.1199,-5.1588,-5.1319,-5.1229,-5.1139,-5.0435,-5.0495,-5.0794,-5.0345,-5.0076,-4.9883,-4.9449,-4.906,-4.876,-4.897,-4.903,-4.897,-4.8745,-4.903,-4.9,-4.7638,-4.7638,-4.7878,-4.7429,-4.7309,-4.7309,-4.7309,-4.716,-4.701,-4.701,-4.683,-4.6711,-4.6711,-4.6322,-4.6022,-4.6022,-4.5603,-4.5304,-4.5304,-4.5723,-4.6022,-4.6022,-4.6441,-4.6711,-4.6711,-4.6711,-4.6711,-4.6711,-4.689,-4.701,-4.701,-4.7219,-4.7309,-4.7309,-4.7309,-4.7309,-4.7309,-4.7309,-4.7309,-4.7309,-4.7309,-4.7309,-4.7309,-4.7309,-4.7309,-4.7309,-4.7309,-4.7309,-4.7309,-4.7309,-4.7309,-4.7429,-4.8566,-4.9149,-4.9479,-5.5718,-5.5478,-5.5329,-5.5718,-5.5448,-5.5179,-5.5179,-5.5179,-5.5179,-5.5179,-5.5179,-5.5179,-5.5179,-5.5179,-5.5179,-5.5179,-5.5179,-5.5089,-5.482,-5.4431,-5.4072,-5.3803,-5.2636,-5.1887,-5.1618,-5.1349,-5.1229,-5.1229,-5.1468,-5.1618,-5.1618,-5.1618,-5.1618,-5.1588,-5.1319,-5.1379,-5.1618,-5.1618,-5.1977,-5.2546,-5.2157,-5.2067,-5.2187,-5.2037,-5.1828,-5.1588,-5.1439,-5.1648,-5.1887,-5.1229,-5.0614,-5.0166,-5.0092,-4.9719,-4.9359,-4.9583,-4.9643,-4.9583,-4.9389,-4.9689,-4.9733,-4.8416,-4.8177,-4.8237,-4.8117,-4.7878,-4.7758,-4.8027,-4.7878,-4.7698,-4.7698,-4.7489,-4.7309,-4.7309,-4.698,-4.6711,-4.6711,-4.6352,-4.6082,-4.6082,-4.6471,-4.6711,-4.6711,-4.707,-4.7309,-4.7309,-4.7309,-4.7309,-4.7309,-4.7309,-4.7309,-4.7309,-4.7309,-4.7309,-4.7309,-4.7309,-4.7309,-4.7309,-4.7309,-4.7309,-4.7309,-4.7309,-4.7309,-4.7309,-4.7309,-4.7309,-4.7309,-4.7309,-4.7309,-4.7309,-4.7309,-4.7309,-4.7429,-4.8506,-4.909,-4.9449,-5.5269,-5.5239,-5.5209,-5.5269,-5.5239,-5.5179,-5.5179,-5.5179,-5.5179,-5.5179,-5.5179,-5.5179,-5.5179,-5.5179,-5.5179,-5.5179,-5.5179,-5.494,-5.4341,-5.4311,-5.4012,-5.3384,-5.3294,-5.2995,-5.2396,-5.1738,-5.1379,-5.1319,-5.1977,-5.2276,-5.2276,-5.2217,-5.2187,-5.2187,-5.1498,-5.1558,-5.2127,-5.2187,-5.2576,-5.3174,-5.3174,-5.2845,-5.2426,-5.2965,-5.2815,-5.2366,-5.2965,-5.3174,-5.3084,-5.2426,-5.1409,-5.0465,-5.105,-5.0391,-4.9553,-5.0152,-5.0285,-5.0136,-4.9613,-5.0301,-5.093,-4.9733,-4.8955,-4.8596,-4.9179,-4.885,-4.8536,-4.9179,-4.882,-4.8356,-4.8297,-4.7848,-4.7429,-4.7339,-4.7369,-4.7369,-4.7309,-4.7309,-4.7309,-4.7309,-4.7309,-4.7309,-4.7309,-4.7309,-4.7309,-4.7309,-4.7309,-4.7309,-4.7309,-4.7309,-4.7309,-4.7309,-4.7369,-4.7399,-4.7399,-4.7459,-4.7429,-4.7309,-4.7309,-4.7309,-4.7309,-4.7309,-4.7309,-4.7309,-4.7309,-4.7309,-4.7309,-4.7309,-4.7309,-4.7309,-4.7309,-4.7309,-4.7399,-4.8117,-4.876,-4.9329,-5.5867,-5.5538,-5.5359,-5.5867,-5.5538,-5.5179,-5.5179,-5.5179,-5.5179,-5.5179,-5.5179,-5.5179,-5.5179,-5.5179,-5.5179,-5.5179,-5.5179,-5.5119,-5.497,-5.497,-5.491,-5.476,-5.4251,-5.3922,-5.3773,-5.3114,-5.2516,-5.1977,-5.2636,-5.2965,-5.2965,-5.2456,-5.2187,-5.2187,-5.1498,-5.1289,-5.1468,-5.1977,-5.2576,-5.3174,-5.3174,-5.3414,-5.3713,-5.3324,-5.3084,-5.2995,-5.3144,-5.3174,-5.3084,-5.2426,-5.2007,-5.1708,-5.1349,-5.102,-5.081,-5.096,-5.0973,-5.0913,-5.084,-5.099,-5.1139,-5.087,-5.0301,-4.9733,-4.9389,-4.9209,-4.9149,-4.9269,-4.9209,-4.894,-4.8386,-4.8596,-4.8506,-4.7489,-4.7728,-4.7908,-4.7369,-4.7309,-4.7309,-4.7309,-4.7309,-4.7309,-4.7309,-4.7309,-4.7309,-4.7309,-4.7309,-4.7309,-4.7309,-4.7309,-4.7309,-4.7309,-4.7818,-4.8087,-4.8087,-4.8566,-4.8327,-4.7309,-4.7309,-4.7309,-4.7309,-4.7309,-4.7309,-4.7309,-4.7309,-4.7309,-4.7309,-4.7309,-4.7309,-4.7309,-4.7309,-4.7309,-4.7459,-4.8626,-4.885,-4.8656,-5.5628,-5.5418,-5.5299,-5.5658,-5.5418,-5.5179,-5.5179,-5.5448,-5.5658,-5.5658,-5.5658,-5.5658,-5.5658,-5.5388,-5.5179,-5.5179,-5.5179,-5.5179,-5.5179,-5.5179,-5.5179,-5.5179,-5.485,-5.4521,-5.4221,-5.4162,-5.3653,-5.2665,-5.3354,-5.3503,-5.3174,-5.2815,-5.2516,-5.2187,-5.1498,-5.1558,-5.2157,-5.2187,-5.2965,-5.4102,-5.3803,-5.3892,-5.4192,-5.4162,-5.3952,-5.3713,-5.4042,-5.3952,-5.3623,-5.3264,-5.2725,-5.2127,-5.1798,-5.1468,-5.1229,-5.1229,-5.1229,-5.1229,-5.1229,-5.1229,-5.1289,-5.1618,-5.1199,-5.0554,-5.0272,-4.9942,-4.9823,-5.0122,-4.9942,-4.9613,-4.9284,-4.9254,-4.909,-4.8356,-4.8536,-4.8506,-4.7878,-4.7788,-4.7668,-4.7339,-4.7309,-4.7309,-4.7309,-4.7309,-4.7309,-4.7309,-4.7309,-4.7309,-4.7309,-4.7608,-4.7788,-4.7788,-4.8416,-4.879,-4.879,-4.9149,-4.897,-4.8237,-4.8237,-4.8237,-4.8237,-4.8237,-4.8237,-4.8237,-4.7908,-4.7788,-4.7758,-4.7429,-4.7309,-4.7309,-4.7309,-4.7309,-4.7399,-4.8087,-4.8506,-4.8895,-5.5179,-5.5179,-5.5179,-5.5179,-5.5179,-5.5179,-5.5179,-5.5658,-5.6068,-5.6068,-5.6068,-5.6068,-5.6068,-5.5508,-5.5179,-5.5179,-5.5179,-5.5179,-5.5179,-5.5179,-5.5179,-5.5179,-5.5179,-5.494,-5.4401,-5.491,-5.4581,-5.3354,-5.4042,-5.4072,-5.3533,-5.3294,-5.2875,-5.2336,-5.1558,-5.1828,-5.2815,-5.2396,-5.3234,-5.482,-5.4371,-5.4281,-5.4431,-5.497,-5.485,-5.4431,-5.4999,-5.485,-5.4371,-5.4251,-5.3473,-5.2516,-5.2396,-5.2007,-5.1558,-5.1558,-5.1468,-5.1409,-5.1528,-5.1468,-5.1558,-5.2187,-5.1947,-5.1558,-5.1558,-5.1003,-5.0644,-5.1139,-5.0823,-5.0465,-5.0226,-4.9883,-4.9569,-4.9359,-4.9419,-4.9194,-4.8536,-4.8356,-4.8087,-4.7549,-4.7489,-4.7519,-4.7638,-4.7549,-4.7519,-4.7638,-4.7549,-4.7519,-4.7638,-4.8147,-4.8446,-4.8446,-4.9105,-4.9434,-4.9434,-4.9599,-4.9629,-4.9629,-4.9629,-4.9539,-4.9299,-4.9299,-4.9299,-4.9269,-4.8566,-4.8356,-4.8416,-4.7758,-4.7549,-4.7638,-4.7638,-4.7638,-4.7638,-4.7519,-4.8386,-4.9689,-5.5179,-5.5179,-5.5179,-5.5179,-5.5179,-5.5179,-5.5179,-5.5269,-5.5329,-5.5329,-5.5329,-5.5329,-5.5329,-5.5239,-5.5179,-5.5179,-5.5179,-5.5179,-5.5179,-5.5179,-5.5179,-5.5179,-5.5179,-5.5149,-5.5059,-5.5149,-5.482,-5.4072,-5.473,-5.4999,-5.488,-5.3713,-5.3144,-5.2995,-5.1768,-5.1319,-5.1498,-5.2007,-5.2695,-5.3503,-5.4012,-5.4551,-5.5059,-5.5149,-5.5119,-5.5059,-5.5149,-5.5119,-5.497,-5.4401,-5.4102,-5.3832,-5.3234,-5.2995,-5.2905,-5.2905,-5.2516,-5.2187,-5.2755,-5.2516,-5.2217,-5.2875,-5.2995,-5.2905,-5.2905,-5.2396,-5.1798,-5.1319,-5.1588,-5.1588,-5.0405,-5.0631,-5.0571,-4.9509,-4.9733,-4.9883,-4.9224,-4.87,-4.8267,-4.8177,-4.8147,-4.8386,-4.9,-4.8476,-4.8386,-4.9,-4.8476,-4.8386,-4.903,-4.912,-4.9179,-4.9179,-4.9763,-5.0076,-5.0076,-5.0661,-5.096,-5.096,-5.096,-5.0361,-4.9299,-4.9299,-4.9299,-4.9269,-4.8566,-4.864,-4.912,-4.8416,-4.8506,-4.906,-4.906,-4.906,-4.897,-4.8356,-4.9344,-5.081,-5.5179,-5.5179,-5.5179,-5.5179,-5.5179,-5.5179,-5.5179,-5.5508,-5.5748,-5.5748,-5.5748,-5.5748,-5.5748,-5.5418,-5.5179,-5.5179,-5.5179,-5.5179,-5.5179,-5.5179,-5.5179,-5.5179,-5.5179,-5.5179,-5.5179,-5.5179,-5.5059,-5.476,-5.5059,-5.4999,-5.464,-5.4042,-5.3563,-5.3144,-5.2576,-5.2546,-5.2875,-5.2785,-5.3354,-5.4311,-5.4221,-5.461,-5.5179,-5.5179,-5.5179,-5.5179,-5.5179,-5.5179,-5.5149,-5.485,-5.4521,-5.4162,-5.3862,-5.3503,-5.3174,-5.3174,-5.2965,-5.2815,-5.3114,-5.2965,-5.2905,-5.3593,-5.3473,-5.3294,-5.3653,-5.3533,-5.3144,-5.2456,-5.2546,-5.2456,-5.1498,-5.1887,-5.2007,-5.105,-5.1139,-5.1109,-5.0451,-4.9793,-4.9254,-4.8865,-4.888,-4.9,-4.9269,-4.906,-4.9,-4.9299,-4.906,-4.9,-4.9299,-4.9613,-4.9793,-4.9793,-5.0451,-5.0734,-5.0734,-5.1079,-5.1229,-5.1229,-5.1229,-5.093,-5.0361,-5.0361,-5.0361,-5.0331,-4.9673,-4.9553,-4.9763,-4.9105,-4.906,-4.9299,-4.9299,-4.9299,-4.9269,-4.9,-4.9613,-5.0554]},{"header":{"parameterUnit":"m.s-1","parameterCategory":1,"la1":30.6,"la2":28.766,"lo1":-90.7593,"lo2":-88.6598,"dy":0.0162,"dx":0.0183,"nx":116,"ny":114,"refTime":"2024-04-15T12:00:00:Z","depth":0,"parameterNumber":3,"parameterNumberName":"V-component_of_WINDS"},"data":[0.0,0.0,0.0,0.0,0.0,0.0,0.0,0.0,0.0,0.0,0.0,0.0,0.0,0.0,0.0,0.0,0.0,0.0,0.0,0.0,0.0,0.0,0.0,0.0,0.0,0.0,0.0,0.0,0.0,0.0,0.0,0.0,0.0,0.0,0.0,0.0,0.0,0.0,0.0,0.0,0.0,0.0,0.0,0.0,0.0,0.0,0.0,0.0,0.0,0.0,0.0,0.0,0.0,0.0,0.0,0.0,0.0,0.0,0.0,0.0,0.0,0.0,0.0,0.0,0.0,0.0,0.0,0.0,0.0,0.0,0.0,0.0,0.0,0.0,0.0,0.0,0.0,0.0,0.0,0.0,0.0,0.0,0.0,0.0,0.0,0.0,0.0,0.0,0.0,0.0,0.0,0.0,0.0,0.0,0.0,0.0,0.0,0.0,0.0,0.0,0.0,0.0,0.0,0.0,0.0,0.0,0.0,0.0,0.0,0.0,0.0,0.0,0.0,0.0,0.0,0.0,0.0,0.0,0.0,0.0,0.0,0.0,0.0,0.0,0.0,0.0,0.0,0.0,0.0,0.0,0.0,0.0,0.0,0.0,0.0,0.0,0.0,0.0,0.0,0.0,0.0,0.0,0.0,0.0,0.0,0.0,0.0,0.0,0.0,0.0,0.0,0.0,0.0,0.0,0.0,0.0,0.0,0.0,0.0,0.0,0.0,0.0,0.0,0.0,0.0,0.0,0.0,0.0,0.0,0.0,0.0,0.0,0.0,0.0,0.0,0.0,0.0,0.0,0.0,0.0,0.0,0.0,0.0,0.0,0.0,0.0,0.0,0.0,0.0,0.0,0.0,0.0,0.0,0.0,0.0,0.0,0.0,0.0,0.0,0.0,0.0,0.0,0.0,0.0,0.0,0.0,0.0,0.0,0.0,0.0,0.0,0.0,0.0,0.0,0.0,0.0,0.0,0.0,0.0,0.0,0.0,0.0,0.0,0.0,0.0,0.0,0.0,0.0,0.0,0.0,0.0,0.0,0.0,0.0,0.0,0.0,0.0,0.0,0.0,0.0,0.0,0.0,0.0,0.0,0.0,0.0,0.0,0.0,0.0,0.0,0.0,0.0,0.0,0.0,0.0,0.0,0.0,0.0,0.0,0.0,0.0,0.0,0.0,0.0,0.0,0.0,0.0,0.0,0.0,0.0,0.0,0.0,0.0,0.0,0.0,0.0,0.0,0.0,0.0,0.0,0.0,0.0,0.0,0.0,0.0,0.0,0.0,0.0,0.0,0.0,0.0,0.0,0.0,0.0,0.0,0.0,0.0,0.0,0.0,0.0,0.0,0.0,0.0,0.0,0.0,0.0,0.0,0.0,0.0,0.0,0.0,0.0,0.0,0.0,0.0,0.0,0.0,0.0,0.0,0.0,0.0,0.0,0.0,0.0,0.0,0.0,0.0,0.0,0.0,0.0,0.0,0.0,0.0,0.0,0.0,0.0,0.0,0.0,0.0,0.0,0.0,0.0,0.0,0.0,0.0,0.0,0.0,0.0,0.0,0.0,0.0,0.0,0.0,0.0,0.0,0.0,0.0,0.0,0.0,0.0,0.0,0.0,0.0,0.0,0.0,0.0,0.0,0.0,0.0,0.0,0.0,0.0,0.0,0.0,0.0,0.0,0.0,0.0,0.0,0.0,0.0,0.0,0.0,0.0,0.0,0.0,0.0,0.0,0.0,0.0,0.0,0.0,0.0,0.0,0.0,0.0,0.0,0.0,0.0,0.0,0.0,0.0,0.0,0.0,0.0,0.0,0.0,0.0,0.0,0.0,0.0,0.0,0.0,0.0,0.0,0.0,0.0,0.0,0.0,0.0,0.0,0.0,0.0,0.0,0.0,0.0,0.0,0.0,0.0,0.0,0.0,0.0,0.0,0.0,0.0,0.0,0.0,0.0,0.0,0.0,0.0,0.0,0.0,0.0,0.0,0.0,0.0,0.0,0.0,0.0,0.0,0.0,0.0,0.0,0.0,0.0,0.0,0.0,0.0,0.0,0.0,0.0,0.0,0.0,0.0,0.0,0.0,0.0,0.0,0.0,0.0,0.0,0.0,0.0,0.0,0.0,0.0,0.0,0.0,0.0,0.0,0.0,0.0,0.0,0.0,0.0,0.0,0.0,0.0,0.0,0.0,0.0,0.0,0.0,0.0,0.0,0.0,0.0,0.0,0.0,0.0,0.0,0.0,0.0,0.0,0.0,0.0,0.0,0.0,0.0,0.0,0.0,0.0,0.0,0.0,0.0,0.0,0.0,0.0,0.0,0.0,0.0,0.0,0.0,0.0,0.0,0.0,0.0,0.0,0.0,0.0,0.0,0.0,0.0,0.0,0.0,0.0,0.0,0.0,0.0,0.0,0.0,0.0,0.0,0.0,0.0,0.0,0.0,0.0,0.0,0.0,0.0,0.0,0.0,0.0,0.0,0.0,0.0,0.0,0.0,0.0,0.0,0.0,0.0,0.0,0.0,0.0,0.0,0.0,0.0,0.0,0.0,0.0,0.0,0.0,0.0,0.0,0.0,0.0,0.0,0.0,0.0,0.0,0.0,0.0,0.0,0.0,0.0,0.0,0.0,0.0,0.0,0.0,0.0,0.0,0.0,0.0,0.0,0.0,0.0,0.0,0.0,0.0,0.0,0.0,0.0,0.0,0.0,0.0,0.0,0.0,0.0,0.0,0.0,0.0,0.0,0.0,0.0,0.0,0.0,0.0,0.0,0.0,0.0,0.0,0.0,0.0,0.0,0.0,0.0,0.0,0.0,0.0,0.0,0.0,0.0,0.0,0.0,0.0,0.0,0.0,0.0,0.0,0.0,0.0,0.0,0.0,0.0,0.0,0.0,0.0,0.0,0.0,0.0,0.0,0.0,0.0,0.0,0.0,0.0,0.0,0.0,0.0,0.0,0.0,0.0,0.0,0.0,0.0,0.0,0.0,0.0,0.0,0.0,0.0,0.0,0.0,0.0,0.0,0.0,0.0,0.0,0.0,0.0,0.0,0.0,0.0,0.0,0.0,0.0,0.0,0.0,0.0,0.0,0.0,0.0,0.0,0.0,0.0,0.0,0.0,0.0,0.0,0.0,0.0,0.0,0.0,0.0,0.0,0.0,0.0,0.0,0.0,0.0,0.0,0.0,0.0,0.0,0.0,0.0,0.0,0.0,0.0,0.0,0.0,0.0,0.0,0.0,0.0,0.0,0.0,0.0,0.0,0.0,0.0,0.0,0.0,0.0,0.0,0.0,0.0,0.0,0.0,0.0,0.0,0.0,0.0,0.0,0.0,0.0,0.0,0.0,0.0,0.0,0.0,0.0,0.0,0.0,0.0,0.0,0.0,0.0,0.0,0.0,0.0,0.0,0.0,0.0,0.0,0.0,0.0,0.0,0.0,0.0,0.0,0.0,0.0,0.0,0.0,0.0,0.0,0.0,0.0,0.0,0.0,0.0,0.0,0.0,0.0,0.0,0.0,0.0,0.0,0.0,0.0,0.0,0.0,0.0,0.0,0.0,0.0,0.0,0.0,0.0,0.0,0.0,0.0,0.0,0.0,0.0,0.0,0.0,0.0,0.0,0.0,0.0,0.0,0.0,0.0,0.0,0.0,0.0,0.0,0.0,0.0,0.0,0.0,0.0,0.0,0.0,0.0,0.0,0.0,0.0,0.0,0.0,0.0,0.0,0.0,0.0,0.0,0.0,0.0,0.0,0.0,0.0,0.0,0.0,0.0,0.0,0.0,0.0,0.0,0.0,0.0,0.0,0.0,0.0,0.0,0.0,0.0,0.0,0.0,0.0,0.0,0.0,0.0,0.0,0.0,0.0,0.0,0.0,0.0,0.0,0.0,0.0,0.0,0.0,0.0,0.0,0.0,0.0,0.0,0.0,0.0,0.0,0.0,0.0,0.0,0.0,0.0,0.0,0.0,0.0,0.0,0.0,0.0,0.0,0.0,0.0,0.0,0.0,0.0,0.0,0.0,0.0,0.0,0.0,0.0,0.0,0.0,0.0,0.0,0.0,0.0,0.0,0.0,0.0,0.0,0.0,0.0,0.0,0.0,0.0,0.0,0.0,0.0,0.0,0.0,0.0,0.0,0.0,0.0,0.0,0.0,0.0,0.0,0.0,0.0,0.0,0.0,0.0,0.0,0.0,0.0,0.0,0.0,0.0,0.0,0.0,0.0,0.0,0.0,0.0,0.0,0.0,0.0,0.0,0.0,0.0,0.0,0.0,0.0,0.0,0.0,0.0,0.0,0.0,0.0,0.0,0.0,0.0,0.0,0.0,0.0,0.0,0.0,0.0,0.0,0.0,0.0,0.0,0.0,0.0,0.0,0.0,0.0,0.0,0.0,0.0,0.0,0.0,0.0,0.0,0.0,0.0,0.0,0.0,0.0,0.0,0.0,0.0,0.0,0.0,0.0,0.0,0.0,0.0,0.0,0.0,0.0,0.0,0.0,0.0,0.0,0.0,0.0,0.0,0.0,0.0,0.0,0.0,0.0,0.0,0.0,0.0,0.0,0.0,0.0,0.0,0.0,0.0,0.0,0.0,0.0,0.0,0.0,0.0,0.0,0.0,0.0,0.0,0.0,0.0,0.0,0.0,0.0,0.0,0.0,0.0,0.0,0.0,0.0,0.0,0.0,0.0,0.0,0.0,0.0,0.0,0.0,0.0,0.0,0.0,0.0,0.0,0.0,0.0,0.0,0.0,0.0,0.0,0.0,0.0,0.0,0.0,0.0,0.0,0.0,0.0,0.0,0.0,0.0,0.0,0.0,0.0,0.0,0.0,0.0,0.0,0.0,0.0,0.0,0.0,0.0,0.0,0.0,0.0,0.0,0.0,0.0,0.0,0.0,0.0,0.0,0.0,0.0,0.0,0.0,0.0,0.0,0.0,0.0,0.0,0.0,0.0,0.0,0.0,0.0,0.0,0.0,0.0,0.0,0.0,0.0,0.0,0.0,0.0,0.0,0.0,0.0,0.0,0.0,0.0,0.0,0.0,0.0,0.0,0.0,0.0,0.0,0.0,0.0,0.0,0.0,0.0,0.0,0.0,0.0,0.0,0.0,0.0,0.0,0.0,0.0,0.0,0.0,0.0,0.0,0.0,0.0,0.0,0.0,0.0,0.0,0.0,0.0,0.0,0.0,0.0,0.0,0.0,0.0,0.0,0.0,0.0,0.0,0.0,0.0,0.0,0.0,0.0,0.0,0.0,0.0,0.0,0.0,0.0,0.0,0.0,0.0,0.0,0.0,0.0,0.0,0.0,0.0,0.0,0.0,0.0,0.0,0.0,0.0,0.0,0.0,0.0,0.0,0.0,0.0,0.0,0.0,0.0,0.0,0.0,0.0,0.0,0.0,0.0,0.0,0.0,0.0,0.0,0.0,0.0,0.0,0.0,0.0,0.0,0.0,0.0,0.0,0.0,0.0,0.0,0.0,0.0,0.0,0.0,0.0,0.0,0.0,0.0,0.0,0.0,0.0,0.0,0.0,0.0,0.0,0.0,0.0,0.0,0.0,0.0,0.0,0.0,0.0,0.0,0.0,0.0,0.0,0.0,0.0,0.0,0.0,0.0,0.0,0.0,0.0,0.0,0.0,0.0,0.0,0.0,0.0,0.0,0.0,0.0,0.0,0.0,0.0,0.0,0.0,0.0,0.0,0.0,0.0,0.0,0.0,0.0,0.0,0.0,0.0,0.0,0.0,0.0,0.0,0.0,0.0,0.0,0.0,0.0,0.0,0.0,0.0,0.0,0.0,0.0,0.0,0.0,0.0,0.0,0.0,0.0,0.0,0.0,0.0,0.0,0.0,0.0,0.0,0.0,0.0,0.0,0.0,0.0,0.0,0.0,0.0,0.0,0.0,0.0,0.0,0.0,0.0,0.0,0.0,0.0,0.0,0.0,0.0,0.0,0.0,0.0,0.0,0.0,0.0,0.0,0.0,0.0,0.0,0.0,0.0,0.0,0.0,0.0,0.0,0.0,0.0,0.0,0.0,0.0,0.0,0.0,0.0,0.0,0.0,0.0,0.0,0.0,0.0,0.0,0.0,0.0,0.0,0.0,0.0,0.0,0.0,0.0,1.8251,0.0,0.0,0.0,0.0,0.0,0.0,0.0,0.0,0.0,0.0,0.0,0.0,0.0,0.0,0.0,0.0,0.0,0.0,0.0,0.0,0.0,0.0,0.0,0.0,2.5693,2.5693,2.5693,2.5693,2.5693,2.5693,0.0,0.0,0.0,0.0,0.0,2.4727,2.4531,2.4629,2.5011,2.4883,2.4974,2.531,2.7019,2.7338,2.6572,0.0,0.0,0.0,0.0,0.0,0.0,0.0,0.0,0.0,0.0,0.0,0.0,0.0,0.0,0.0,0.0,0.0,0.0,0.0,0.0,0.0,0.0,0.0,0.0,0.0,0.0,0.0,0.0,0.0,0.0,0.0,0.0,0.0,0.0,0.0,0.0,0.0,0.0,0.0,0.0,0.0,0.0,0.0,0.0,0.0,0.0,0.0,0.0,0.0,0.0,0.0,0.0,0.0,0.0,0.0,0.0,0.0,0.0,0.0,0.0,0.0,0.0,0.0,0.0,0.0,0.0,0.0,0.0,0.0,0.0,0.0,1.9426,0.0,0.0,0.0,0.0,0.0,0.0,0.0,0.0,0.0,0.0,0.0,0.0,0.0,0.0,0.0,0.0,0.0,0.0,0.0,0.0,0.0,2.5713,2.5791,2.581,2.583,2.5908,2.5849,2.581,2.581,2.5732,0.0,0.0,0.0,2.5176,2.5176,2.4824,2.4914,2.5625,2.4809,2.5549,2.7764,2.9903,3.0079,2.8635,2.8891,0.0,0.0,0.0,0.0,0.0,0.0,0.0,0.0,0.0,0.0,0.0,0.0,0.0,0.0,0.0,0.0,0.0,0.0,0.0,0.0,0.0,0.0,0.0,0.0,0.0,0.0,0.0,0.0,0.0,0.0,0.0,0.0,0.0,0.0,0.0,0.0,0.0,0.0,0.0,0.0,0.0,0.0,0.0,0.0,0.0,0.0,0.0,0.0,0.0,0.0,0.0,0.0,0.0,0.0,0.0,0.0,0.0,0.0,0.0,0.0,0.0,0.0,0.0,2.6484,2.6641,2.6504,2.6426,2.5605,2.418,2.3047,2.168,2.0273,2.0566,0.0,0.0,0.0,0.0,0.0,0.0,0.0,0.0,0.0,0.0,0.0,0.0,0.0,0.0,0.0,0.0,0.0,0.0,0.0,2.5879,2.6269,2.6309,2.6445,2.6816,2.6504,2.6309,2.6309,2.5957,2.5693,2.5693,2.5635,2.5596,2.5596,2.5538,2.543,2.5156,2.6295,2.8215,3.0918,3.1608,3.2466,3.3354,3.0433,2.9749,3.0712,0.0,0.0,0.0,0.0,0.0,0.0,0.0,0.0,0.0,0.0,0.0,0.0,0.0,0.0,0.0,0.0,0.0,0.0,0.0,0.0,0.0,0.0,0.0,0.0,0.0,0.0,0.0,0.0,0.0,0.0,0.0,0.0,0.0,0.0,0.0,0.0,0.0,0.0,0.0,0.0,0.0,2.2559,2.2886,0.0,0.0,0.0,0.0,0.0,0.0,0.0,0.0,0.0,0.0,0.0,0.0,0.0,2.6211,2.6582,2.7441,2.7519,2.6855,2.7656,2.7656,2.6914,2.6562,2.6269,2.6016,2.5469,0.0,2.1602,2.1249,0.0,0.0,0.0,0.0,0.0,0.0,0.0,0.0,0.0,0.0,0.0,0.0,0.0,0.0,0.0,0.0,0.0,0.0,0.0,0.0,0.0,2.6602,2.6914,2.7344,2.7871,2.7773,2.6797,2.6797,2.6387,2.541,2.5371,2.5371,2.5371,2.5371,2.5273,2.5106,2.8455,3.0511,3.1259,3.3479,3.4895,3.5474,3.357,3.263,3.245,3.2391,0.0,0.0,0.0,0.0,0.0,0.0,0.0,0.0,0.0,0.0,0.0,0.0,0.0,0.0,0.0,0.0,0.0,0.0,0.0,0.0,0.0,0.0,0.0,0.0,0.0,0.0,0.0,0.0,0.0,0.0,0.0,0.0,0.0,0.0,0.0,0.0,0.0,0.0,0.0,2.3437,2.3978,2.3198,2.418,2.4531,0.0,0.0,0.0,0.0,0.0,0.0,0.0,0.0,0.0,2.6816,2.7461,2.7891,2.8086,2.8926,2.918,2.8809,2.9453,2.9414,2.8789,2.8613,2.8262,2.7793,2.7617,2.6484,2.4668,2.3242,2.2246,2.1562,0.0,0.0,0.0,0.0,2.0859,2.0996,0.0,0.0,0.0,0.0,0.0,0.0,0.0,0.0,0.0,0.0,0.0,0.0,2.6621,2.709,2.7598,2.8262,2.8941,2.8789,2.7734,2.7148,2.6406,2.5449,2.5243,2.5106,2.5106,2.5341,2.5566,2.5947,3.0378,3.2314,3.1987,3.5576,3.726,3.7235,3.6784,3.5719,3.4267,3.3987,3.3676,3.3153,0.0,0.0,0.0,0.0,0.0,0.0,0.0,0.0,0.0,0.0,0.0,0.0,0.0,0.0,0.0,0.0,0.0,0.0,0.0,0.0,0.0,0.0,0.0,0.0,0.0,0.0,0.0,0.0,0.0,0.0,0.0,0.0,0.0,0.0,0.0,0.0,0.0,2.4746,2.5343,2.3919,2.5479,2.6074,0.0,0.0,0.0,0.0,0.0,0.0,2.7148,2.791,2.8418,2.8652,2.9258,2.9629,2.9746,3.0391,3.0644,3.0547,3.0898,3.082,3.0371,3.0254,2.9785,2.9082,2.8965,2.8262,2.7031,2.5098,2.3594,2.2519,2.2285,2.2207,2.2229,2.1973,2.1953,2.2051,0.0,0.0,0.0,0.0,0.0,0.0,0.0,0.0,0.0,0.0,0.0,2.5273,2.7383,2.7969,2.873,2.9961,2.9023,2.8672,2.9394,2.6387,2.5098,2.6269,2.5556,2.5106,2.5106,2.5898,2.6914,2.8125,3.1551,3.363,3.4477,3.7934,3.9521,3.9521,3.9496,3.8325,3.6256,3.4582,3.3906,3.3859,3.2531,0.0,0.0,0.0,0.0,0.0,0.0,0.0,0.0,0.0,0.0,0.0,0.0,0.0,0.0,0.0,0.0,0.0,0.0,0.0,0.0,0.0,0.0,0.0,0.0,0.0,0.0,0.0,0.0,0.0,0.0,0.0,0.0,0.0,0.0,0.0,0.0,0.0,0.0,2.5615,2.7832,0.0,0.0,0.0,0.0,2.6875,2.7656,2.8496,2.9411,2.9863,3.0431,3.1289,3.1367,3.1582,3.1992,3.2111,3.1855,3.1445,3.1484,3.1269,3.084,3.0391,2.9961,2.9512,2.9101,2.8437,2.7591,2.6191,2.505,2.4199,2.3354,2.3086,2.3051,2.2229,2.2129,2.2363,0.0,0.0,0.0,0.0,0.0,2.3789,2.3789,2.4394,2.4883,2.5106,2.5664,2.6699,2.8301,2.9609,3.0781,3.1777,3.1699,3.125,3.0469,2.7969,2.6719,2.7239,2.5889,2.5469,2.6309,2.6894,2.7695,2.8691,3.2362,3.4634,3.56,3.8732,4.0601,4.1307,4.0902,4.0508,3.9981,3.7217,3.5379,3.432,3.2788,3.1981,0.0,0.0,0.0,0.0,0.0,0.0,0.0,0.0,0.0,0.0,0.0,0.0,0.0,0.0,0.0,0.0,0.0,0.0,0.0,0.0,0.0,0.0,0.0,0.0,0.0,0.0,0.0,0.0,0.0,0.0,0.0,0.0,0.0,0.0,0.0,0.0,0.0,2.8594,3.041,0.0,2.8809,2.8633,2.8769,2.9043,2.9883,3.0742,3.1601,3.2324,3.2715,3.2734,3.2734,3.2695,3.2578,3.2305,3.1953,3.1523,3.1523,3.1133,3.043,3.0273,2.9824,2.9141,2.8984,2.8594,2.8027,2.7578,2.6719,2.5605,2.4727,2.4375,2.4362,2.373,2.3437,2.3281,0.0,0.0,0.0,0.0,0.0,2.3574,2.3574,2.418,2.4629,2.4629,2.5781,2.7187,2.875,3.0469,3.1914,3.291,3.2734,3.2148,3.1172,2.8398,2.7043,2.7422,2.6211,2.6055,2.7207,2.793,2.8652,2.9355,3.3212,3.5433,3.614,3.9291,4.1178,4.1882,4.1681,4.1706,4.1756,3.9722,3.7688,3.5705,3.4198,3.3926,3.4065,0.0,0.0,0.0,0.0,0.0,0.0,0.0,0.0,0.0,0.0,0.0,0.0,0.0,0.0,0.0,0.0,0.0,0.0,0.0,0.0,0.0,0.0,0.0,0.0,0.0,0.0,0.0,0.0,0.0,0.0,0.0,0.0,0.0,0.0,2.9121,3.0762,3.1035,3.2871,3.3301,3.1269,3.1211,3.1289,3.1289,3.2246,3.3066,3.3652,3.4062,3.416,3.3867,3.3437,3.3066,3.2793,3.2383,3.1953,3.1523,3.1523,3.1055,3.0195,3.0195,2.9726,2.8926,2.8926,2.8672,2.8281,2.8144,2.7578,2.6758,2.6016,2.5547,2.5234,2.4805,2.4453,2.418,0.0,0.0,0.0,0.0,0.0,2.3125,2.3125,2.3516,2.3789,2.3789,2.498,2.6571,2.8711,3.0527,3.209,3.334,3.1894,3.1074,3.1465,2.748,2.5664,2.6953,2.6641,2.6855,2.7787,2.9019,2.9805,3.0234,3.4181,3.6106,3.6185,3.9679,4.1326,4.1351,4.1957,4.1907,4.1376,4.1957,4.0626,3.804,3.6908,3.606,3.5325,0.0,0.0,0.0,0.0,0.0,0.0,0.0,0.0,0.0,0.0,0.0,0.0,0.0,0.0,0.0,0.0,0.0,0.0,0.0,0.0,0.0,0.0,0.0,0.0,0.0,0.0,0.0,0.0,0.0,0.0,0.0,0.0,0.0,2.8281,3.0957,3.2851,3.291,3.5156,3.5723,3.3184,3.4062,3.4434,3.3574,3.4707,3.543,3.541,3.498,3.4726,3.4707,3.3457,3.2793,3.2773,3.2344,3.1914,3.1504,3.1504,3.1035,3.0176,3.0176,2.9707,2.8906,2.8906,2.8652,2.8242,2.7885,2.7708,2.763,2.7168,2.6484,2.5654,2.5234,2.5106,2.4949,0.0,0.0,0.0,2.4986,2.4619,2.4339,2.4339,2.4007,2.3789,2.3789,2.6016,2.8047,2.9258,3.1777,3.3516,3.3867,3.2324,3.1269,3.1074,2.7598,2.5996,2.6973,2.75,2.832,2.9473,2.9844,3.0391,3.1152,3.4769,3.6745,3.7276,4.0463,4.2133,4.2559,4.3112,4.3037,4.2534,4.2685,4.2137,4.083,3.8114,3.6891,3.6526,0.0,0.0,0.0,0.0,0.0,0.0,0.0,0.0,0.0,0.0,0.0,0.0,0.0,0.0,0.0,0.0,0.0,0.0,0.0,0.0,0.0,0.0,0.0,0.0,0.0,0.0,0.0,0.0,0.0,0.0,0.0,2.8809,3.0019,3.0566,3.2422,3.4199,3.5449,3.6777,3.7187,3.6152,3.6387,3.623,3.5371,3.5937,3.6172,3.5859,3.543,3.5039,3.4707,3.3457,3.2656,3.2344,3.1601,3.1172,3.1055,3.1055,3.0605,2.9746,2.9746,2.9277,2.8457,2.8457,2.8223,2.7885,2.7767,2.7356,2.6719,2.6602,2.6406,2.6113,2.5352,2.4715,2.4062,0.0,0.0,0.0,2.5681,2.5552,2.5336,2.4872,2.46,2.4246,2.358,2.6152,2.8281,2.8965,3.1406,3.3008,3.3008,3.1758,3.0566,2.9609,2.748,2.6484,2.6992,2.834,2.9434,3.0176,3.0742,3.1604,3.2752,3.5678,3.762,3.8666,4.1279,4.2715,4.3011,4.3564,4.3614,4.3313,4.3313,4.3137,4.2635,4.0277,3.9396,3.9371,3.7161,3.603,3.5454,3.4031,3.3476,3.2974,3.0158,0.0,0.0,0.0,0.0,0.0,0.0,0.0,0.0,0.0,0.0,0.0,0.0,0.0,0.0,0.0,0.0,0.0,0.0,0.0,0.0,0.0,0.0,0.0,0.0,3.0508,3.209,3.3242,3.4258,3.5469,3.7012,3.7793,3.8027,3.7598,3.7734,3.7402,3.6367,3.668,3.6582,3.5801,3.5332,3.4902,3.4453,3.3203,3.2422,3.2229,3.1328,3.0898,3.0898,3.0898,3.043,2.9626,2.9626,2.9101,2.8301,2.8301,2.8164,2.7891,2.7539,2.709,0.0,0.0,0.0,0.0,0.0,2.4629,2.3984,0.0,0.0,0.0,2.6069,2.626,2.6229,2.5168,2.5187,2.4813,2.3315,2.5742,2.7695,2.7969,2.998,3.1309,3.1309,3.0449,2.9277,2.7826,2.7305,2.7168,2.7363,2.9238,3.0312,3.041,3.1621,3.3035,3.4564,3.6626,3.847,4.0096,4.2096,4.2986,4.3011,4.3614,4.3865,4.3815,4.394,4.3915,4.3714,4.2791,4.2564,4.2559,4.0551,4.0023,4.0017,3.7761,3.6141,3.4768,3.2761,0.0,0.0,0.0,0.0,0.0,0.0,0.0,0.0,0.0,0.0,0.0,0.0,0.0,0.0,0.0,0.0,0.0,0.0,0.0,0.0,0.0,0.0,0.0,0.0,3.2246,3.3809,3.5879,3.6172,3.6601,3.7793,3.8301,3.8398,3.7969,3.8281,3.8008,3.6836,3.7051,3.6699,3.5449,0.0,0.0,0.0,0.0,3.2148,3.209,3.1289,3.0898,3.0898,3.0898,3.043,2.9626,2.9626,2.9101,2.8301,2.8301,2.8262,2.8164,2.7402,2.7031,2.6894,2.6484,2.6055,2.5557,2.5156,2.4727,2.4277,0.0,0.0,0.0,2.7594,2.7363,2.6936,2.6292,2.5464,2.4485,2.3276,2.5469,2.6914,2.6259,2.8457,2.9941,2.9941,2.8848,2.808,2.7748,2.765,2.8144,2.9512,3.0332,3.1074,3.1777,3.2363,3.3496,3.5047,3.7072,3.8915,4.0507,4.2213,4.2986,4.3011,4.4016,4.4217,4.3865,4.4769,4.4644,4.379,4.3564,4.2735,4.1501,4.0701,3.9873,3.9094,3.8091,3.8464,3.883,3.5633,3.6004,3.7089,3.2708,3.1194,0.0,0.0,0.0,0.0,0.0,0.0,0.0,0.0,0.0,0.0,0.0,0.0,0.0,0.0,0.0,0.0,0.0,0.0,0.0,3.2617,3.4043,3.5391,3.6855,3.7051,3.7266,3.7851,3.8301,3.8398,3.7969,3.8008,3.7812,3.7226,3.6934,3.6387,3.5449,3.4961,3.4336,3.3574,3.2656,3.1992,3.1641,3.1152,3.0898,3.0898,0.0,0.0,2.9626,2.9626,2.9101,2.8301,2.8301,2.8105,2.7826,2.7598,2.7129,2.6465,2.6035,2.5586,2.5137,2.4707,2.4277,2.3848,0.0,0.0,0.0,2.8021,2.8076,2.7903,2.7371,2.6808,2.5859,2.4168,2.613,2.7318,2.6317,2.8255,2.9343,2.8571,2.721,2.6691,2.7305,2.7949,2.8867,3.0137,3.125,3.2051,3.248,3.2891,3.4288,3.6714,3.7998,3.9857,4.2234,4.3298,4.379,4.384,4.4669,4.4895,4.4669,4.5246,4.4995,4.4192,4.3915,4.3137,4.2133,4.1856,4.1053,4.0074,3.9772,3.9672,3.9368,3.7268,3.7271,3.7468,3.4004,3.27,3.2039,0.0,0.0,0.0,0.0,0.0,0.0,0.0,0.0,0.0,0.0,0.0,0.0,0.0,0.0,2.8867,2.9822,0.0,3.3223,3.4512,3.582,3.6816,3.7246,3.748,3.7617,3.7617,3.7793,3.7851,3.7637,3.7617,3.7441,3.7012,3.6797,3.6191,3.5098,3.4824,3.4199,3.3144,3.25,3.1953,3.1523,3.1094,3.0898,3.0898,3.0898,3.0547,2.9883,2.9668,2.9219,2.8594,2.8379,2.8184,2.7949,2.7519,2.6973,2.6348,2.5849,2.5605,2.5352,2.4902,2.4473,2.4043,0.0,0.0,0.0,2.7846,2.8398,2.8548,2.8028,2.8036,2.74,2.5378,2.6955,2.7854,2.6759,2.8259,2.8833,2.756,2.6459,2.628,2.7475,2.8564,2.959,3.0547,3.207,3.291,3.291,3.334,3.5107,3.8358,3.8851,4.0808,4.3966,4.4418,4.4618,4.4644,4.5221,4.5497,4.5497,4.5598,4.5321,4.4744,4.4192,4.3564,4.2961,4.2557,4.2038,4.148,4.12,4.0049,3.8517,3.8266,3.7362,3.6138,3.4691,3.3788,3.2865,3.0649,2.9387,0.0,0.0,0.0,0.0,0.0,0.0,0.0,0.0,2.6992,2.7324,2.8491,2.9805,3.1172,3.2324,3.3867,3.5254,3.6133,3.7129,3.7656,3.7226,3.7383,3.7324,3.6738,3.7051,3.7226,3.707,3.7129,3.7031,3.6699,3.6523,3.5918,3.4766,3.4551,3.3906,3.2715,3.2266,3.1836,3.1406,3.1055,3.0898,3.0898,3.0898,3.0644,3.0176,2.9766,2.9336,2.8906,2.8476,2.8301,2.8242,2.7461,2.6894,2.6465,2.6035,2.5771,2.5635,2.5234,2.4785,2.4355,0.0,0.0,0.0,0.0,0.0,2.804,2.7478,2.7798,2.7683,2.6483,2.7186,2.7455,2.661,2.7366,2.7877,2.7679,2.8073,2.8681,2.9528,2.9868,3.0625,3.1894,3.2851,3.3359,3.3359,3.3769,3.5641,3.8934,3.9366,4.1285,4.4543,4.4593,4.4618,4.4644,4.5221,4.5497,4.5522,4.6024,4.5899,4.5347,4.4769,4.3915,4.2799,4.1047,4.1058,4.1986,4.0953,3.922,3.7513,3.8467,3.7737,3.6508,3.7265,3.6235,3.4572,3.3505,3.1549,2.9648,2.9233,2.8222,2.7435,2.7851,2.7109,2.7226,0.0,3.0293,2.9785,3.1797,3.2676,3.3223,3.375,3.4961,3.6152,3.7012,3.7266,3.7226,3.6797,3.6445,3.5781,3.457,3.6133,3.6992,3.623,3.6523,3.6719,3.668,3.5976,3.5293,3.4726,3.3984,3.3164,3.2266,3.1816,3.1387,3.0957,3.0918,3.0898,3.0898,3.0898,3.0644,3.0176,2.9766,2.9336,2.8906,2.8476,2.8301,2.8262,2.7793,2.7344,2.6894,2.6484,2.6074,2.5635,2.5234,2.4785,2.4355,0.0,0.0,0.0,0.0,0.0,2.7776,2.8147,2.8428,2.8285,2.7539,2.8285,2.8566,2.7528,2.773,2.7944,2.7944,2.8388,2.8807,2.9173,3.0526,3.1692,3.2522,3.334,3.4398,3.5636,3.4898,3.6538,4.0931,4.0377,4.1883,4.5121,4.5447,4.5598,4.5623,4.5849,4.5974,4.5974,4.62,4.5999,4.5447,4.4844,4.3966,4.2755,4.0631,3.9628,3.9143,3.8148,3.7121,0.0,3.6408,3.5732,3.5059,3.6171,3.5256,3.3839,3.4184,3.2741,3.0674,2.8858,2.8482,2.8466,2.8048,2.8476,2.9492,3.1367,3.1426,3.1484,3.2871,3.3906,3.4785,3.5449,3.6641,3.7617,3.7988,3.8047,3.7715,3.6797,3.6094,3.5078,3.3516,3.4336,3.5,3.4902,3.5508,3.582,3.5547,3.5449,3.5078,3.4375,3.375,3.3027,3.2268,3.1738,3.1328,3.0898,3.0898,3.0898,3.0898,3.0898,3.0781,3.0586,3.0137,2.957,2.8906,2.8476,2.8301,2.8242,2.7559,2.7187,2.6953,2.6269,2.5849,2.5674,2.5527,2.5176,2.4727,0.0,0.0,0.0,0.0,0.0,2.7369,2.8323,2.8687,2.8748,2.8358,2.9188,2.9482,2.8648,2.8569,2.8569,2.8569,2.8719,2.8811,2.8752,3.059,3.1864,3.2248,3.3203,3.4585,3.6366,3.5261,3.7019,4.177,4.1024,4.242,4.5723,4.6125,4.6301,4.6326,4.6476,4.6451,4.6326,4.6476,4.6125,4.5422,4.4694,4.3639,4.2228,3.929,3.7518,3.6416,3.5746,3.4913,0.0,3.4248,3.3736,3.3314,3.4653,3.4007,3.3001,3.4164,3.3101,3.106,2.8852,2.8768,2.924,2.87,2.9902,3.1445,3.2226,3.2637,3.3105,3.3965,3.4902,3.5762,3.6387,3.7344,3.8047,3.8047,3.8047,3.7598,3.6309,3.5391,3.4199,3.248,3.2539,3.2851,3.3164,3.4297,3.4883,3.4551,3.4844,3.4687,3.3945,3.3379,3.2734,3.2012,3.1562,3.1191,3.0898,3.0898,3.0898,3.0898,3.0898,3.0898,3.0879,3.0293,2.9609,2.8906,2.8476,2.8301,2.8242,2.7617,2.7226,2.6953,2.6328,2.5888,2.5693,2.5693,2.5371,2.4844,0.0,0.0,0.0,0.0,0.0,2.67,2.7243,2.8247,2.8888,2.8875,2.9414,2.9804,2.974,2.974,2.974,2.974,2.9542,2.9265,2.903,3.0016,3.075,3.0957,3.2168,3.3285,3.4191,3.4557,3.6606,4.0545,4.0976,4.2958,4.6276,4.6301,4.6301,4.6326,4.6878,4.6803,4.6351,4.6878,4.6476,4.5397,4.4267,4.2836,4.086,3.6162,3.4523,3.4756,3.471,0.0,3.1009,3.2591,3.2416,3.1746,3.342,3.3305,3.2673,3.3648,3.2381,3.0548,3.0006,2.9688,2.9715,3.0596,3.1465,3.2559,3.4219,3.4609,3.4863,3.5762,3.5976,3.6016,3.6035,3.6406,3.6738,3.6738,3.6738,3.6269,3.4941,3.4023,3.2851,3.1152,3.0957,3.0976,3.0976,3.2871,3.4101,3.4101,3.4101,3.3926,3.3457,3.2656,3.2012,3.1562,3.1133,3.0898,3.0898,3.0898,3.0898,3.0898,3.0898,3.0898,3.0859,2.998,2.9355,2.8906,2.8476,2.8301,2.8301,2.8262,2.7754,2.7012,2.6992,2.6415,2.5693,2.5693,2.5148,2.4434,0.0,0.0,0.0,0.0,0.0,0.0,2.6751,2.767,2.8524,2.8838,2.9428,0.0,0.0,0.0,0.0,0.0,3.0034,3.0049,2.9683,3.1329,3.2214,3.1942,3.3066,3.484,3.7155,3.5004,3.6206,4.1098,3.9179,4.0068,4.3662,4.3662,4.42,4.5221,4.5773,4.5723,4.5221,4.5799,4.5397,4.4242,4.276,4.1404,3.9819,3.599,3.39,3.2968,0.0,0.0,3.0633,3.0834,3.035,2.991,3.1265,3.0954,3.0238,3.1365,3.1461,3.1085,3.0474,3.0884,3.162,3.2038,3.3008,3.416,3.5312,3.5371,3.5078,3.4785,3.4277,3.3789,3.3516,3.3809,3.4375,3.5234,3.5625,3.5664,3.5215,3.4648,3.3437,3.1172,3.1387,3.1289,3.0137,3.1719,3.293,3.3203,3.3476,3.3457,3.3027,3.248,3.1973,3.1523,3.1113,3.0898,3.0898,3.0898,3.0898,3.0898,3.0898,3.0898,3.0859,3.0254,2.9746,2.9336,2.8887,2.8555,2.8242,2.7676,2.7266,2.6953,2.6337,2.5947,2.5693,2.5693,2.5128,2.4414,0.0,0.0,0.0,0.0,0.0,0.0,0.0,0.0,0.0,0.0,0.0,0.0,0.0,0.0,0.0,0.0,0.0,3.0096,2.9607,3.1125,3.1872,3.1444,3.2459,3.4096,3.6378,3.4195,3.5055,3.9315,3.7456,3.7901,4.0407,4.0789,4.1499,4.2542,4.3227,4.3507,4.3463,4.384,4.3237,4.1907,4.045,3.9069,3.7564,3.4442,3.2673,0.0,0.0,2.9965,3.0256,2.9905,2.951,2.9197,2.9582,2.9114,2.8743,3.0022,3.0584,3.0849,3.0954,3.178,3.2773,3.3332,3.4219,3.5098,3.5664,3.5215,3.4394,3.3379,3.248,3.1641,3.0918,3.0996,3.166,3.3105,3.3594,3.4004,3.4609,3.418,3.3184,3.1543,3.1699,3.1504,3.0371,3.1269,3.2051,3.2324,3.2871,3.3008,3.2598,3.2324,3.1973,3.1523,3.1113,3.0898,3.0898,3.0898,3.0898,3.0898,3.0898,3.0898,3.0879,3.041,2.9961,2.9551,2.9101,2.8672,2.8262,2.7695,2.7285,2.6953,2.6356,2.5947,2.5693,2.5693,2.5128,2.4414,0.0,0.0,0.0,0.0,0.0,0.0,0.0,0.0,0.0,0.0,0.0,0.0,0.0,0.0,0.0,0.0,0.0,0.0,2.8903,2.9607,2.9979,2.9744,3.0573,3.1422,3.2229,3.214,3.3131,3.5329,3.5718,3.6161,3.6701,3.7649,3.8233,3.8467,3.9364,4.022,4.0864,4.0943,4.007,3.8542,3.7462,3.6056,3.4315,3.1622,0.0,0.0,0.0,2.8885,2.9804,2.9804,2.9829,2.9699,2.8586,2.8171,2.836,2.9764,2.9939,3.0037,3.165,3.2513,3.3262,3.4492,3.5098,3.5391,3.5332,3.4277,3.2949,3.172,3.0702,2.9721,2.8466,2.829,2.8843,3.0547,3.0918,3.1582,3.3281,3.2871,3.2424,3.2346,3.1934,3.168,3.1601,3.1582,3.1582,3.1582,0.0,3.2598,3.2226,3.2207,3.1992,3.1523,3.1133,3.0918,3.0898,3.0898,3.0898,3.0898,3.0898,3.0898,3.0879,3.043,3.0,2.9607,2.9141,2.8711,2.8281,2.8242,2.7754,2.7012,2.6973,2.6445,2.5693,2.5693,2.5128,2.4414,0.0,0.0,0.0,0.0,0.0,0.0,0.0,0.0,0.0,0.0,0.0,0.0,0.0,0.0,0.0,0.0,0.0,0.0,2.9564,3.0498,3.0851,3.0379,3.1123,3.1971,3.2838,3.1488,3.1362,3.2501,3.1578,3.1511,3.2325,3.2567,3.3324,3.4574,3.5201,3.5357,3.527,3.6488,3.6281,3.5137,0.0,3.4248,3.3319,0.0,0.0,0.0,2.9692,2.9546,2.9804,2.9804,3.0331,3.0873,3.017,3.0296,3.1017,3.2417,3.2583,3.2545,3.3935,3.4739,3.5351,3.5996,3.5781,3.5215,3.457,3.3164,3.1781,3.1005,2.9615,2.8257,2.7283,2.7938,2.8897,2.9797,3.125,3.291,3.4648,3.5254,3.5039,3.375,3.4062,3.3906,3.2598,3.2461,3.2461,3.2461,3.2383,3.2422,3.2617,3.2637,3.2285,3.1543,3.1406,3.1211,3.0898,3.0898,3.0898,3.0898,3.0898,3.0898,3.0879,3.0762,3.0293,2.957,2.9453,2.8984,2.8242,2.7598,2.7207,2.6953,2.6309,2.5888,2.5693,2.5693,2.5128,2.4414,0.0,0.0,0.0,0.0,0.0,0.0,0.0,0.0,0.0,0.0,0.0,0.0,0.0,0.0,0.0,0.0,0.0,0.0,0.0,3.0357,3.0557,3.0256,3.0646,3.1094,3.1637,3.0635,3.0316,3.0775,3.0171,0.0,2.9146,2.9558,2.9996,3.0474,3.094,3.1349,3.1679,3.2321,0.0,0.0,0.0,0.0,0.0,0.0,0.0,3.0206,2.9905,2.9955,3.0177,3.0433,3.1055,3.181,3.2172,3.2934,3.3773,3.4253,3.4819,3.5417,3.5743,3.6293,3.6816,3.6699,3.5742,3.4531,3.3476,3.2019,3.046,2.9446,2.8501,2.7448,2.613,2.6455,2.7297,2.8318,2.9629,3.1484,3.416,3.4941,3.5176,3.4961,3.5195,3.5,3.4023,3.375,3.3555,3.3359,3.2793,3.2539,3.2793,3.2793,3.2578,3.209,3.1719,3.1328,3.0898,3.0898,3.0898,3.0898,3.0898,3.0898,3.0898,3.0898,3.041,2.9626,0.0,2.9082,2.8262,2.7773,2.7363,2.6973,2.6434,2.6025,2.5693,2.5693,2.5128,2.4414,0.0,0.0,0.0,0.0,0.0,0.0,0.0,0.0,0.0,0.0,2.9176,2.9453,0.0,0.0,0.0,0.0,0.0,0.0,0.0,0.0,0.0,2.9804,2.9804,2.9804,2.9804,2.9804,2.9702,2.9585,3.0059,2.9083,0.0,0.0,0.0,0.0,0.0,0.0,0.0,0.0,0.0,0.0,0.0,0.0,0.0,0.0,0.0,2.9804,2.9804,3.0105,3.0623,3.152,3.2067,3.2697,3.4463,3.5541,3.6196,3.6353,3.7169,3.8009,3.7568,3.7712,3.7812,3.6953,3.5351,3.3613,3.2226,3.0761,2.9247,2.7746,2.7608,2.7232,2.555,2.5211,2.5636,2.7062,2.7663,2.9238,3.3047,3.3691,3.4375,3.5996,3.5859,3.5625,3.5566,3.5098,3.4648,3.4277,3.3457,3.2949,3.2871,3.2871,3.2832,3.2715,3.1934,3.1328,3.0898,3.0898,3.0898,3.0898,3.0898,3.0898,3.0898,3.0898,3.041,2.9626,2.9626,0.0,2.8281,2.8223,2.7734,2.7012,2.6953,2.6445,2.5693,2.5693,2.5167,2.4512,0.0,0.0,0.0,0.0,0.0,0.0,0.0,0.0,0.0,0.0,2.949,2.8875,0.0,0.0,0.0,0.0,0.0,0.0,0.0,0.0,0.0,0.0,2.9804,2.9804,2.9804,2.9804,2.9326,2.8386,2.8483,2.7394,0.0,0.0,0.0,0.0,0.0,0.0,0.0,0.0,0.0,0.0,0.0,0.0,0.0,0.0,0.0,0.0,2.9804,2.9854,3.0367,3.3177,3.3853,3.4042,3.714,3.719,3.701,4.1594,4.058,3.8416,4.0616,3.9878,3.8262,3.7402,3.5351,3.3008,3.1016,2.9373,2.8187,2.774,2.7846,2.7934,2.7585,2.7363,2.756,2.8711,2.91,3.0469,3.3984,3.5117,3.5937,3.6953,3.7012,3.6836,3.6484,3.5742,3.5234,3.5176,3.4355,3.3691,3.334,3.332,3.2988,3.2305,3.1777,3.1328,3.0898,3.0898,3.0898,3.0898,3.0898,3.0898,3.0898,3.0898,3.041,2.9626,2.9626,0.0,2.8262,2.791,2.748,2.6973,2.6641,2.6191,2.5693,2.5693,2.541,2.5008,0.0,0.0,0.0,0.0,0.0,0.0,0.0,2.8976,2.9478,3.0834,3.0557,3.0005,2.9478,2.9088,2.9013,0.0,0.0,0.0,0.0,0.0,0.0,0.0,0.0,0.0,2.9804,2.9804,2.9521,2.8988,0.0,2.8148,2.6521,2.6521,2.5608,2.3973,2.3973,2.3671,2.3144,2.3671,0.0,2.6565,2.7035,2.8291,0.0,0.0,0.0,0.0,0.0,2.998,3.0583,3.3043,3.363,3.4106,3.8255,4.0246,4.1345,4.3272,4.2432,4.1129,4.2144,4.1069,3.9219,3.7676,3.5176,3.2583,3.0814,2.909,2.7871,2.7912,2.8505,2.8806,2.8227,2.8169,2.8402,2.8769,2.8616,2.9648,3.3075,3.3816,3.4746,3.6738,3.7168,3.7226,3.7012,3.6426,3.5879,3.543,3.5,3.4473,3.3789,3.334,3.2812,3.2248,3.1738,3.1328,3.0898,3.0898,3.0898,3.0898,3.0898,3.0898,3.0898,3.0898,3.041,2.9626,2.9626,0.0,2.8281,2.8066,2.7734,2.7305,2.6875,2.6445,2.6055,2.5771,2.5449,2.5106,0.0,0.0,0.0,0.0,0.0,0.0,2.9352,2.9704,3.0306,3.1738,3.1712,3.1461,3.1185,2.993,2.9202,0.0,0.0,0.0,0.0,0.0,0.0,0.0,0.0,0.0,0.0,0.0,0.0,2.9804,2.9804,0.0,0.0,0.0,0.0,0.0,2.5168,2.4681,2.38,2.356,2.4766,0.0,0.0,2.7851,0.0,0.0,0.0,0.0,0.0,3.008,3.0683,3.234,3.2955,3.3743,3.7887,4.1296,4.3759,4.3484,4.3287,4.3115,4.3162,4.1841,3.9883,3.7812,3.4883,3.2156,3.0744,2.8983,2.7685,2.8032,2.9028,2.9546,2.8648,2.8562,2.8667,2.8743,2.7899,2.8466,3.1926,3.2374,3.3359,3.6191,3.6973,3.7305,3.7305,3.6836,3.625,3.5586,3.5351,3.4902,3.4121,3.3262,3.2598,3.2187,3.1738,3.1328,3.0898,3.0898,3.0898,3.0898,3.0898,3.0898,3.0898,3.0898,3.0449,2.9707,2.9665,0.0,0.0,2.834,2.8047,2.7689,2.7285,2.6894,2.6465,2.6035,2.5703,2.5449,0.0,0.0,0.0,0.0,0.0,0.0,2.875,2.9453,3.0733,3.3319,3.2767,3.2315,3.2835,3.0959,2.9327,0.0,0.0,0.0,0.0,0.0,0.0,0.0,0.0,0.0,0.0,0.0,0.0,2.9804,2.9804,0.0,0.0,0.0,0.0,0.0,0.0,2.6318,2.611,2.5083,0.0,0.0,0.0,0.0,0.0,0.0,0.0,0.0,0.0,2.9829,3.0105,3.1738,3.2657,3.3402,3.5326,3.6974,3.9069,4.3222,4.2875,4.1699,4.4381,4.2627,3.9531,3.7734,3.4453,3.1348,3.0212,2.8537,2.7321,2.7962,2.9028,2.974,2.9663,2.8855,2.8532,2.9659,2.8117,2.7987,3.145,3.2395,3.3574,3.582,3.6797,3.7305,3.7305,3.6562,3.6035,3.5976,3.5215,3.457,3.4101,3.3262,3.2598,3.2187,3.1738,3.1328,3.0898,3.0898,3.0898,3.0898,3.0898,3.0898,3.0898,3.0898,3.0605,3.0117,2.9726,0.0,0.0,2.8457,2.8047,2.7708,2.7669,2.7344,2.6914,2.6484,2.6543,2.6719,0.0,0.0,0.0,0.0,0.0,0.0,2.9151,2.9352,3.0256,3.3043,3.3018,3.2817,3.3043,3.1687,3.0306,2.9227,0.0,0.0,0.0,0.0,0.0,0.0,0.0,0.0,0.0,0.0,2.9804,2.9804,2.9804,0.0,0.0,0.0,0.0,0.0,0.0,2.7075,2.6483,2.6005,0.0,0.0,0.0,0.0,0.0,0.0,0.0,0.0,0.0,0.0,2.9905,3.0532,3.1135,3.1662,3.1989,3.3353,3.5872,4.1072,4.1769,4.1345,4.3729,4.2992,4.0813,3.7685,3.4199,3.1325,3.0704,2.8598,2.7204,2.8776,2.9482,2.9804,2.9804,2.9443,2.9065,2.8899,2.7341,2.6884,2.889,2.9266,3.0586,3.4043,3.5215,3.6152,3.7187,3.6758,3.6191,3.5684,3.5059,3.4394,3.3711,3.2871,3.2226,3.1797,3.1367,3.1055,3.0898,3.0898,3.0898,3.0898,3.0898,3.0898,3.0898,3.0898,3.0508,2.9805,2.9648,0.0,0.0,2.8359,2.8203,2.8027,2.7806,2.7611,2.7363,2.6914,2.6875,2.6934,0.0,0.0,0.0,0.0,0.0,2.7203,2.9227,2.9327,3.0055,3.2491,3.2968,3.3111,3.3111,3.2064,3.1085,3.0331,2.9829,0.0,0.0,0.0,0.0,0.0,0.0,0.0,0.0,0.0,2.9804,2.9804,2.9804,2.9804,0.0,0.0,2.9365,2.8585,0.0,0.0,0.0,0.0,0.0,0.0,0.0,0.0,0.0,0.0,0.0,0.0,0.0,0.0,0.0,0.0,0.0,3.0306,2.9905,3.0859,3.3043,3.7764,3.9485,4.0351,4.2143,4.2228,4.1074,3.82,3.4654,3.1828,3.1699,2.9218,2.7504,2.9404,2.9804,2.9804,2.9804,2.9804,2.9443,2.8307,2.6938,2.6334,2.7264,2.7292,2.8516,3.2051,3.3223,3.4434,3.6172,3.6426,3.6172,3.5449,3.4961,3.4336,3.3476,3.2617,3.1973,3.1523,3.1113,3.0898,3.0898,3.0898,3.0898,3.0898,3.0898,3.0898,3.0898,3.0898,3.0547,2.9941,2.9687,0.0,0.0,2.8398,2.8301,2.8262,2.7969,2.7851,2.7793,2.7363,2.7285,2.7305,0.0,0.0,0.0,0.0,0.0,2.7052,2.8637,2.9428,3.0357,3.2014,3.2717,3.3111,3.3111,3.2064,3.1386,3.1361,2.988,0.0,0.0,0.0,0.0,0.0,0.0,0.0,0.0,0.0,2.9804,2.9804,2.9804,2.9804,2.9804,2.9804,2.9779,2.9779,0.0,0.0,0.0,0.0,0.0,0.0,0.0,0.0,0.0,0.0,0.0,0.0,0.0,0.0,0.0,0.0,0.0,0.0,0.0,2.9804,3.0382,3.3169,3.5695,3.8012,3.9661,3.9977,3.9743,3.9379,3.6023,3.2875,3.3115,3.0548,2.8426,2.9585,2.9804,2.9804,2.9804,2.9804,2.9443,2.8307,2.7197,2.6688,2.7306,2.7573,2.8301,3.0019,3.1016,3.2226,3.3945,3.5273,3.5859,3.543,3.4961,0.0,3.3476,3.2617,3.1973,3.1523,3.1113,3.0898,3.0898,3.0898,3.0898,3.0898,3.0898,3.0898,3.0898,3.0898,3.0879,3.082,0.0,0.0,0.0,2.8633,2.8301,2.8301,2.8281,2.8281,2.8242,2.7812,2.793,2.8164,0.0,0.0,0.0,0.0,0.0,0.0,2.8222,2.885,2.9679,3.0959,3.1286,3.1662,3.2416,3.1512,3.1009,3.1361,3.0231,0.0,0.0,0.0,0.0,0.0,0.0,0.0,0.0,2.9804,2.998,3.0357,3.0357,3.0357,3.0357,3.0357,3.0156,2.9804,2.9804,2.9804,0.0,0.0,0.0,0.0,0.0,0.0,2.9804,0.0,0.0,0.0,0.0,0.0,0.0,0.0,0.0,0.0,0.0,0.0,0.0,3.0834,3.3251,3.5843,3.6938,3.753,3.7326,3.5422,3.2955,3.1087,3.1019,2.9489,2.8426,2.9585,2.9804,2.9804,2.9804,2.9145,2.8626,2.8641,2.8045,2.739,2.6756,2.8035,2.9546,3.0937,3.3691,3.5449,3.541,3.5508,3.541,3.4961,3.4512,3.3887,3.3047,3.2734,3.2266,3.1543,3.1113,3.0898,3.0898,3.0898,3.0898,3.0898,3.0898,3.0898,3.0898,3.0898,3.0723,0.0,0.0,0.0,0.0,2.8516,2.8301,2.8301,2.8301,2.8301,2.8281,2.8144,2.8184,2.8203,0.0,0.0,0.0,0.0,0.0,0.0,2.772,2.8097,2.8725,2.979,2.9941,3.0442,3.1763,3.0959,3.0608,3.1336,3.0407,0.0,0.0,0.0,0.0,0.0,0.0,0.0,2.9804,2.9804,3.0156,3.0909,3.0909,3.1009,3.121,3.121,3.0809,3.0105,3.0105,2.998,0.0,0.0,0.0,0.0,0.0,0.0,2.9804,0.0,0.0,0.0,0.0,0.0,0.0,0.0,0.0,0.0,0.0,0.0,0.0,0.0,3.126,3.3134,3.4486,3.542,3.5699,3.4268,3.2427,3.0994,3.085,2.9745,2.8806,2.9106,2.9145,2.9145,2.9145,2.8227,2.776,2.8471,2.7976,2.7236,2.6542,2.795,2.9538,3.0819,3.3867,3.5625,3.5098,3.5254,3.5195,3.4726,3.4316,3.3769,3.3066,3.2734,3.2305,3.1777,3.1348,3.1055,3.0898,3.0898,3.0898,3.0898,3.0898,3.0898,3.0879,3.0703,3.0469,0.0,0.0,0.0,0.0,2.8457,2.8301,2.8301,2.8301,2.8301,2.8301,2.8301,2.8301,2.8262,0.0,0.0,0.0,0.0,0.0,0.0,0.0,2.7344,2.777,2.8762,2.8938,2.9578,3.111,3.0382,3.0206,3.1185,3.0357,0.0,0.0,0.0,0.0,0.0,0.0,0.0,2.9804,2.9804,3.0306,3.1386,3.1436,3.1738,3.2265,3.2315,3.1763,3.0733,3.0683,3.0357,2.9804,2.9804,2.9804,2.9804,2.9804,2.9804,0.0,0.0,0.0,0.0,0.0,0.0,0.0,0.0,0.0,0.0,0.0,0.0,0.0,0.0,0.0,0.0,0.0,3.3596,3.4455,3.4956,3.3527,3.2039,3.2039,3.0884,0.0,2.8426,2.8227,2.8227,2.8275,2.7302,2.6876,2.8018,2.7254,2.6559,2.6739,2.7744,2.9014,3.0401,3.2507,3.3784,3.3603,3.4675,3.5156,3.4687,3.4258,3.3828,3.3398,3.2637,3.2187,3.2129,3.1738,3.1328,3.0898,3.0898,3.0898,3.0898,3.0898,3.0879,3.082,3.0391,3.0176,0.0,0.0,0.0,0.0,2.8457,2.8301,2.8301,2.8301,2.8301,2.8301,2.8301,2.8301,2.8301,0.0,0.0,0.0,0.0,0.0,0.0,0.0,0.0,0.0,0.0,2.9327,2.9729,3.0131,2.9955,2.9905,0.0,0.0,0.0,0.0,0.0,0.0,0.0,0.0,0.0,2.9804,2.9804,3.0306,3.1386,3.1813,3.2315,3.2893,3.3294,3.2918,3.1813,3.1411,3.0683,2.9804,2.9804,2.9804,2.9804,2.9804,2.9804,0.0,0.0,0.0,0.0,2.9804,2.9804,0.0,0.0,0.0,0.0,0.0,0.0,0.0,0.0,2.9804,2.9905,3.0432,0.0,3.0984,3.111,3.0758,3.0357,0.0,3.0055,2.9702,2.9443,2.9404,2.9528,2.995,2.811,2.7144,2.9095,2.8025,2.7067,2.7373,3.0674,3.344,3.4202,3.6428,3.7274,3.5766,3.5167,3.4687,3.4258,3.3828,3.3398,3.2969,3.2754,3.2344,3.1699,3.1562,3.1328,3.0898,3.0898,3.0898,3.0898,3.0898,3.0703,3.0351,3.0254,3.0019,0.0,0.0,0.0,2.8887,2.8457,2.8301,2.8301,2.8301,2.8301,2.8301,2.8301,2.8301,2.8301,0.0,0.0,0.0,0.0,0.0,0.0,0.0,0.0,0.0,0.0,2.9051,2.9503,2.9754,2.9804,2.9804,0.0,0.0,0.0,0.0,0.0,0.0,0.0,0.0,2.9804,2.9804,2.9804,3.0583,3.2164,3.2466,3.3169,3.4198,3.4248,3.3545,3.2164,3.111,3.0331,2.9804,2.9804,2.9804,2.9804,2.9804,0.0,0.0,0.0,0.0,0.0,2.9804,2.9804,0.0,2.9804,2.9804,2.9804,0.0,0.0,0.0,0.0,2.9804,2.9804,2.9804,2.9804,2.9804,2.9804,2.9804,2.9804,2.9804,2.9804,2.9663,2.9145,2.9028,2.9126,2.9395,2.7813,2.7144,2.9011,2.8268,2.7739,2.8823,3.1278,3.3711,3.583,3.6735,3.7197,3.7355,3.5746,3.4609,3.4375,3.3594,3.3027,3.2812,3.2422,3.1992,3.1523,3.1328,3.1113,3.0898,3.0898,3.0898,3.0898,3.0684,3.0449,3.0176,2.9785,2.9492,0.0,0.0,0.0,2.8613,2.8379,2.8301,2.8301,2.8301,2.8301,2.8301,2.8301,2.8301,2.8301,0.0,0.0,0.0,0.0,0.0,0.0,0.0,0.0,0.0,0.0,0.0,0.0,0.0,0.0,0.0,0.0,0.0,0.0,0.0,0.0,0.0,0.0,2.9804,2.988,3.003,2.9955,3.0959,3.3111,3.3244,3.4098,3.5483,3.5182,3.4123,3.229,3.0809,3.003,2.9804,2.9804,2.9804,2.9804,2.9804,0.0,0.0,0.0,0.0,0.0,0.0,0.0,0.0,2.9654,2.9654,2.9654,2.9654,0.0,0.0,0.0,0.0,0.0,2.9804,2.9905,3.0005,2.9829,2.9804,2.9804,2.9804,2.9804,2.9546,2.8545,2.8347,2.8371,2.8443,2.7504,2.722,2.8923,2.8667,2.8834,3.0591,3.1328,3.2894,3.6226,3.5811,3.5967,3.7939,3.6012,3.457,3.4512,3.3437,3.2773,3.2695,3.1953,3.1484,3.1426,3.1074,3.0898,3.0898,3.0898,3.0859,3.0781,3.0391,3.0137,2.998,2.9258,2.8887,2.8809,0.0,0.0,2.8301,2.8301,2.834,2.8379,2.832,2.834,2.8379,2.832,2.8301,2.8301,0.0,0.0,0.0,0.0,0.0,0.0,0.0,0.0,0.0,0.0,0.0,0.0,0.0,0.0,0.0,0.0,0.0,0.0,0.0,0.0,0.0,2.9804,2.9804,3.0206,3.111,3.0708,3.1336,3.3111,3.4022,3.4781,3.5508,3.6408,3.5429,3.2918,3.2164,3.1085,2.9804,2.9804,2.9804,2.9804,2.9804,0.0,0.0,0.0,0.0,0.0,0.0,0.0,0.0,2.9013,2.9013,2.9013,2.9013,0.0,0.0,0.0,0.0,0.0,2.9804,3.0457,3.0934,3.003,2.9804,2.9804,2.9804,2.9804,2.974,2.9585,2.9546,2.9671,3.0144,2.8756,2.8289,3.0636,3.0778,3.0912,3.18,3.386,3.5496,3.6248,3.6955,3.708,3.6165,3.4963,3.4023,3.3652,3.3105,3.2637,3.2285,3.1797,3.1348,3.0996,3.0918,3.0898,3.0898,3.0898,3.0703,3.0293,3.0234,2.9824,2.9121,2.8984,2.873,2.8379,0.0,2.8301,2.8301,2.8301,2.8496,2.8789,2.8437,2.8516,2.8789,2.8418,2.8301,2.8301,0.0,0.0,0.0,0.0,0.0,0.0,0.0,0.0,0.0,0.0,0.0,0.0,0.0,0.0,0.0,0.0,0.0,0.0,0.0,0.0,3.0055,3.0633,3.0382,3.0608,3.1361,3.1436,3.2591,3.4896,3.5655,3.6508,3.7312,3.6006,3.4399,3.2566,3.1411,3.0482,2.9804,2.9804,2.9804,2.9804,0.0,0.0,0.0,0.0,0.0,0.0,0.0,0.0,0.0,0.0,2.9402,2.9402,2.9402,0.0,0.0,0.0,0.0,0.0,2.9804,3.0156,3.0482,3.0281,3.0457,3.0507,2.993,2.9804,2.9699,2.9316,2.9065,2.8891,2.8988,2.9172,2.9981,3.2119,3.1635,3.1351,3.2387,3.3554,3.482,3.6311,3.6093,3.6003,3.6478,3.5067,3.3887,3.3457,3.2832,3.2266,3.1836,3.1406,3.1094,3.0898,3.0898,3.0762,3.0527,3.0762,3.0664,3.0195,2.9961,2.9531,2.8906,2.8691,2.8476,2.8301,0.0,2.8301,2.8301,2.8301,2.8535,2.8887,2.8457,2.8555,2.8867,2.8437,2.8301,2.8301,0.0,0.0,0.0,0.0,0.0,0.0,0.0,0.0,0.0,0.0,0.0,0.0,0.0,0.0,0.0,0.0,0.0,0.0,0.0,2.9804,3.0156,3.0984,3.0884,3.1286,3.234,3.2641,3.4098,3.6782,3.7437,3.8216,3.9045,3.5931,3.3822,3.2541,3.0909,3.003,2.9804,2.9804,2.9804,2.9804,0.0,0.0,0.0,0.0,0.0,0.0,0.0,0.0,0.0,0.0,0.0,0.0,0.0,0.0,0.0,2.9754,2.9804,2.9804,2.9804,2.998,3.0206,3.0382,3.0708,3.0934,3.0633,3.0457,3.0238,2.978,2.9559,2.916,2.8185,2.9931,3.1926,3.3157,3.2832,3.2712,3.353,3.3689,3.428,3.6038,3.5298,3.5147,3.6286,3.4816,3.3594,3.3164,3.2441,3.1875,3.1543,3.1113,3.0898,3.0898,3.0898,3.0664,3.0195,3.0547,3.0449,2.9902,2.9668,2.9297,2.8769,2.8437,2.8301,2.8301,2.8301,2.8301,2.8301,2.8301,2.8535,2.8887,2.8457,2.8496,2.873,2.8418,2.8301,2.8301,0.0,0.0,0.0,0.0,0.0,0.0,0.0,0.0,0.0,0.0,0.0,0.0,0.0,0.0,0.0,0.0,0.0,0.0,0.0,2.9804,2.9829,2.9905,3.0834,3.2566,3.5132,3.4731,3.5655,3.7889,3.8969,3.9546,3.9597,3.7287,3.5353,3.3696,3.2014,3.0733,2.9804,2.9804,2.9804,2.9804,2.9804,0.0,0.0,0.0,0.0,0.0,0.0,0.0,0.0,0.0,0.0,0.0,0.0,0.0,2.9063,2.9628,2.9804,2.9804,2.9804,3.0507,3.106,3.0105,2.988,3.0432,3.239,3.2416,3.2084,3.2198,3.2897,3.2543,2.9465,3.1807,3.402,3.3437,3.5381,3.6741,3.631,3.6206,3.5889,3.4981,3.5735,3.5643,3.3851,3.3187,3.2715,3.2285,3.1836,3.1562,3.1523,3.1113,3.0898,3.0898,3.0898,3.0664,3.0195,3.0234,2.9824,2.9023,2.9394,2.9141,2.834,2.8301,2.8301,2.8301,2.8301,2.8301,2.8301,2.8301,2.8535,2.8887,2.8457,2.832,2.834,2.8301,2.8301,2.8301,0.0,0.0,0.0,0.0,0.0,0.0,0.0,0.0,0.0,0.0,0.0,2.9804,2.9804,0.0,0.0,0.0,0.0,0.0,0.0,2.9804,3.008,3.0758,3.0859,3.2039,3.4474,3.5353,3.701,3.9572,4.035,4.0375,3.9622,3.6709,3.465,3.3294,3.1286,3.0357,3.0281,2.993,2.998,3.0281,2.993,2.9804,0.0,0.0,0.0,0.0,0.0,0.0,0.0,0.0,2.9327,2.9202,2.9402,2.9478,2.9503,2.9729,2.9528,2.9252,2.9252,3.0055,3.0733,2.998,3.0013,3.0692,3.2664,3.3169,3.3344,3.3671,3.4342,3.427,3.2195,3.2279,3.3294,3.5141,3.5945,3.6846,3.8168,3.8382,3.7715,3.6011,3.5956,3.5232,3.3191,3.2656,3.2226,3.1797,3.1621,3.1406,3.1133,3.0976,3.0898,3.0898,3.0605,3.0254,2.9805,2.9805,2.9798,2.9758,2.9382,2.8848,2.8301,2.8301,2.8301,2.8301,2.8301,2.8301,2.8301,2.8301,2.8535,2.8906,2.875,2.8516,2.8301,2.8301,2.8301,2.8301,0.0,0.0,0.0,0.0,0.0,0.0,0.0,0.0,2.8875,0.0,0.0,0.0,0.0,2.9804,0.0,0.0,0.0,0.0,2.9804,2.9804,3.0131,3.0859,3.0859,3.1637,3.3319,3.5177,3.7312,3.9722,4.0626,4.0425,3.9094,3.6483,3.4751,3.3746,3.1537,3.0859,3.1336,3.0432,3.0256,3.0557,3.0005,2.9804,0.0,0.0,0.0,0.0,0.0,0.0,0.0,0.0,2.9679,2.9553,2.9729,2.9654,2.9528,2.9528,2.9227,2.8838,2.8687,2.9314,3.003,2.9829,3.0376,3.1558,3.3845,3.423,3.4443,3.5685,3.5286,3.4606,3.4555,3.336,3.3475,3.6736,3.7153,3.7708,3.9583,3.984,3.9113,3.7004,3.6517,3.5486,3.3316,3.2412,3.1777,3.1348,3.1328,3.1191,3.0898,3.0898,3.082,3.0684,3.0371,2.9922,2.9375,2.9853,3.016,3.0276,2.966,2.918,2.89,2.8495,2.8301,2.8301,2.8301,2.8301,2.8301,2.8301,2.8457,2.8711,2.8711,2.8535,2.8301,2.8301,2.8301,2.8301,0.0,0.0,0.0,0.0,0.0,0.0,0.0,0.0,2.8298,2.8813,2.9428,0.0,0.0,0.0,0.0,0.0,0.0,0.0,2.9804,2.9804,2.9804,2.9804,3.0809,3.1637,3.219,3.4329,3.6285,3.8015,3.9672,3.9647,3.7965,3.691,3.6081,3.5382,3.3219,3.2541,3.2943,3.1311,3.0608,3.0557,3.0005,2.9804,2.9804,0.0,0.0,0.0,0.0,0.0,0.0,0.0,2.9402,2.8988,2.9603,2.9402,2.8888,2.8888,2.8888,2.8762,2.8247,2.8524,2.9038,2.9654,3.1035,3.3075,3.6433,3.5843,3.5442,3.8489,3.5801,3.3683,3.6302,3.541,3.5152,3.8,3.9173,3.9974,4.0497,4.0592,3.9802,3.7646,3.7542,3.6581,3.3949,3.2352,3.1348,3.0918,3.0898,3.0898,3.0879,3.0879,3.0664,3.0195,3.0176,2.9785,2.8926,3.0273,3.0769,3.0307,3.0307,3.0307,3.0255,2.89,2.8301,2.8301,2.8301,2.8301,2.8301,2.8301,2.8301,2.8301,2.8301,2.8301,2.8301,2.8301,2.8301,2.8301,0.0,0.0,0.0,0.0,0.0,0.0,0.0,0.0,2.8298,2.8813,2.9428,0.0,0.0,0.0,0.0,0.0,0.0,0.0,2.9804,2.9804,2.9804,2.9804,3.0105,3.0357,3.0507,3.2265,3.4776,3.8015,3.8517,3.809,3.6835,3.573,3.4726,3.3771,3.3119,3.2466,3.1838,3.0984,3.0608,3.0557,3.0005,2.9804,2.9804,0.0,0.0,0.0,0.0,0.0,0.0,0.0,0.0,0.0,2.9729,2.9679,2.9453,2.9013,2.8612,2.8323,2.8147,2.88,2.9754,3.0683,3.2118,3.4064,3.7067,3.7692,3.841,4.123,4.0208,3.8268,3.6726,3.6479,3.6507,3.6409,3.7715,3.929,4.0887,4.1071,4.0421,3.87,3.7337,3.5773,3.3886,3.2129,3.1035,3.0898,3.0898,3.0742,3.043,3.041,3.0195,2.9766,2.9453,2.918,2.8926,2.9966,3.0454,3.0307,3.0307,3.0307,3.0255,2.89,2.8301,2.8301,2.8301,2.8301,2.8301,2.8301,2.8301,2.8301,2.8301,2.8301,2.8301,2.8301,2.8301,2.8301,0.0,0.0,0.0,0.0,0.0,0.0,2.7228,2.7745,2.8298,2.8813,2.9428,2.9804,0.0,0.0,0.0,0.0,0.0,0.0,2.9804,2.9804,2.9804,2.9804,2.9804,3.0005,3.0407,3.1813,3.3596,3.5705,3.6383,3.6132,3.5097,3.5278,3.5027,3.4444,3.46,3.4098,3.2968,3.2014,3.1336,3.0884,3.0331,3.0131,3.0131,0.0,0.0,0.0,0.0,0.0,0.0,0.0,0.0,0.0,2.9804,2.9628,2.9377,2.8988,2.8222,2.7544,2.7996,2.8775,2.9829,3.1336,3.3415,3.5843,3.8692,3.9948,4.0978,4.2635,4.1817,4.0288,3.8611,3.7898,3.7548,3.7523,3.8449,3.9692,4.1093,4.1275,4.0852,3.9691,3.7493,3.5882,3.529,3.2416,3.0973,3.169,3.0892,3.0312,0.0,3.0039,2.9746,2.9336,2.9062,2.8848,2.8672,2.9577,3.0139,3.0307,2.995,2.9866,3.0004,2.882,2.8301,2.8301,2.8301,2.8301,2.8301,2.8301,2.8301,2.8301,2.8301,2.8301,2.8301,2.8301,2.8301,2.8301,0.0,0.0,2.6499,2.6499,0.0,0.0,2.7228,2.7745,2.8298,2.8813,2.9428,2.9804,0.0,0.0,0.0,2.9804,0.0,0.0,0.0,2.9804,2.9804,2.9804,2.9854,3.0357,3.1361,3.234,3.2591,3.2064,3.3696,3.3997,3.3162,3.5273,3.6279,3.6355,3.681,3.6408,3.5182,3.3545,3.224,3.121,3.0733,3.0532,3.0532,3.0532,0.0,0.0,0.0,0.0,0.0,0.0,0.0,0.0,2.9804,2.9402,2.8888,2.8838,2.7745,2.6801,2.7871,2.8587,2.959,3.1938,3.5027,3.8165,4.0699,4.2108,4.2836,4.2836,4.1513,4.0522,4.0923,3.9316,3.8461,3.9982,4.032,4.0626,4.1075,4.1125,4.0949,4.0501,3.7762,3.6379,3.7323,3.3019,3.09,3.2797,3.0882,0.0,3.0059,2.9707,2.9297,2.8828,2.8848,2.8652,2.8242,2.9198,2.9815,3.0099,2.9333,2.9195,2.9525,2.8608,2.8262,2.8301,2.8301,2.8301,2.8301,2.8301,2.8301,2.8301,2.8301,2.8301,2.8301,2.8301,2.8301,2.8301,0.0,0.0,2.6499,2.6499,0.0,0.0,2.7228,2.7745,2.8298,2.8813,2.9428,2.9804,2.9804,2.9804,0.0,2.9804,2.9804,0.0,0.0,2.9804,2.9804,2.9804,3.0206,3.0733,3.1386,3.1235,3.1085,3.0959,3.2164,3.2867,3.3119,3.4449,3.5303,3.5683,3.5784,3.5052,3.3495,3.1838,3.0758,3.0131,3.0005,2.998,2.998,2.998,2.9905,0.0,0.0,0.0,0.0,0.0,0.0,0.0,2.9804,2.9402,2.8813,2.8423,2.772,2.7344,2.8448,2.9439,3.0944,3.4028,3.7337,4.0074,4.105,4.1476,4.1706,4.1706,4.2038,4.1669,3.9346,3.9472,3.9491,3.8355,3.9146,3.9923,4.0023,4.0049,3.9998,3.9898,3.6968,3.5412,3.6754,3.2529,3.0342,3.1822,0.0,0.0,2.9199,2.9101,2.8711,2.7949,2.8262,2.8223,2.7865,2.9055,2.9374,0.0,2.8899,2.8714,2.8125,2.7911,2.7988,2.8301,2.8301,2.8301,2.8301,2.8301,2.8301,2.8301,2.8301,2.8301,2.8301,2.8301,2.8301,2.8301,0.0,0.0,0.0,0.0,0.0,0.0,0.0,0.0,2.8398,2.9227,2.9603,2.9679,2.9402,2.9628,0.0,0.0,2.9628,0.0,0.0,0.0,2.9804,2.9804,3.0306,3.0608,3.0633,3.0608,3.0482,3.0231,3.0783,3.1612,3.2692,3.4349,3.5508,3.6332,3.6332,3.5403,3.3746,3.2089,3.0909,3.0181,3.0181,3.0181,3.0181,3.0181,3.003,2.9804,2.9804,0.0,0.0,0.0,0.0,0.0,0.0,0.0,2.8487,2.8499,2.7544,2.6841,2.8436,2.9715,3.1662,3.6056,3.8843,4.0651,4.1175,4.1275,4.12,4.0949,4.1605,4.1613,3.9692,4.0,4.0062,3.8785,3.8958,3.9295,3.9295,3.9069,3.8894,3.8894,3.6709,3.548,3.6312,3.2683,3.067,3.1617,0.0,2.8945,2.8926,2.873,2.8418,2.7988,2.8184,2.8086,2.7728,2.8144,2.8144,2.7676,2.7482,2.7302,2.707,2.7532,2.7793,2.8008,2.8203,2.8301,2.8301,2.8301,2.8301,2.8301,2.8301,2.8301,2.8301,2.8301,2.8301,2.8301,0.0,0.0,0.0,0.0,0.0,0.0,0.0,0.0,0.0,2.9897,3.0024,2.9795,2.9126,2.9503,2.9603,0.0,0.0,0.0,0.0,0.0,0.0,2.993,3.0357,3.0457,3.008,3.0432,3.0382,2.993,2.993,3.0959,3.2968,3.458,3.6132,3.7462,3.7061,3.6081,3.46,3.2717,3.1361,3.0482,3.0482,3.0482,3.0482,3.0482,3.0181,2.9804,2.9804,2.9804,2.9804,2.9804,0.0,0.0,0.0,0.0,2.8323,2.8637,2.7419,2.6339,2.8336,3.0066,3.2466,3.7262,3.9346,4.035,4.0749,4.0902,4.0777,4.0325,4.0752,4.0974,4.0475,4.03,4.0074,3.9622,3.9069,3.8718,3.8718,3.8316,3.8015,3.8015,3.662,3.5714,3.5866,3.2812,3.1063,0.0,0.0,2.834,2.8691,2.8301,2.8027,2.7969,2.8027,2.7871,2.7493,2.709,2.6934,2.7012,2.623,2.5996,2.6309,2.709,2.7571,2.7748,2.8105,2.8301,2.8301,2.8301,2.8301,2.8301,2.8301,2.8301,2.8301,2.8301,2.8301,2.8301,0.0,0.0,0.0,0.0,0.0,0.0,0.0,0.0,0.0,0.0,3.1007,3.067,2.9794,2.9754,2.9754,2.9679,2.9754,2.9804,2.9804,0.0,0.0,3.0482,3.0583,3.0783,3.116,3.0809,3.0583,3.0507,3.0507,3.234,3.583,3.5152,3.6207,3.8617,3.6634,3.5332,3.4505,3.1938,3.0457,2.9905,2.9905,2.9905,2.9905,2.9905,2.9854,2.9804,2.9804,2.9804,2.9804,2.9804,2.9804,0.0,0.0,0.0,2.8712,2.8323,2.767,2.7318,2.8562,3.1446,3.46,3.6307,3.7914,3.912,3.917,3.9195,3.917,3.912,3.9898,4.045,3.9898,3.9421,3.9069,3.9045,3.8492,3.8115,3.8115,3.8065,3.8015,3.8015,3.6379,3.5268,3.5318,3.2303,3.0433,0.0,2.883,2.7826,2.7885,2.7422,2.7012,2.666,2.6992,2.6992,2.6562,2.6504,2.666,2.7012,2.6523,2.6133,2.5791,2.6328,2.6973,2.7748,2.8105,2.8301,2.8301,2.8301,2.8301,2.8301,2.8301,2.8301,2.8301,2.8301,2.8301,2.8301,0.0,0.0,0.0,0.0,0.0,0.0,0.0,0.0,0.0,0.0,0.0,3.0126,2.9365,2.9603,2.9654,2.9327,2.9603,2.9804,2.9804,2.9804,2.9905,3.0156,3.0156,3.0256,3.0482,3.0281,3.0156,3.0156,3.0156,3.2441,3.6835,3.6659,3.8216,4.1106,3.8542,3.6759,3.5429,3.2365,3.0557,2.9804,2.9804,2.998,3.0231,2.9905,2.998,3.0206,2.9905,2.9804,2.9804,2.9804,2.9804,2.9804,2.9804,0.0,0.0,0.0,2.7971,2.7595,2.9026,3.1311,3.3671,3.5102,3.6483,3.7586,3.7913,3.8165,3.8391,3.8391,3.8768,3.9044,3.8793,3.8542,3.8391,3.8391,3.7914,3.7538,3.7538,3.7287,3.696,3.6611,3.586,3.48,3.3287,3.1617,0.0,0.0,2.7883,2.7305,2.7305,2.7129,2.6934,2.6738,2.6914,2.6816,2.6387,2.6387,2.6367,2.6239,2.6113,2.5918,2.5713,2.6426,2.6953,2.7324,2.7754,2.8066,2.8301,2.8301,2.8301,2.8301,2.8301,2.8301,2.8301,2.8301,2.8301,2.8301,0.0,0.0,0.0,0.0,0.0,0.0,0.0,0.0,0.0,0.0,0.0,2.972,2.9176,0.0,0.0,0.0,2.9553,2.9804,2.9804,2.9804,2.9804,2.9804,2.9804,2.9804,2.9804,2.9804,2.9804,2.9804,2.993,3.2692,3.7839,3.8391,4.0802,4.4518,4.1329,3.8793,3.6631,3.352,3.1788,3.0959,3.0131,3.003,3.0382,3.0256,3.0382,3.0583,3.0306,3.0105,2.998,2.9854,2.9804,2.9804,2.9804,2.9503,0.0,0.0,0.0,2.7971,2.9227,3.0758,3.2265,3.3395,3.4726,3.5877,3.6257,3.6784,3.7211,3.7362,3.7262,3.7161,3.7161,3.7387,3.7588,3.7588,3.701,3.6558,3.6558,3.6207,3.578,3.5332,3.5282,3.4259,3.1608,3.1099,0.0,0.0,2.7109,2.6855,2.6855,2.6758,2.6699,2.6699,2.6699,2.6543,2.623,2.623,2.6055,2.5693,2.5693,2.5693,2.5713,2.6356,2.6816,2.7051,2.7598,2.8008,2.8301,2.8301,2.8301,2.8301,2.8301,2.8301,2.8301,2.8301,2.8301,2.8301,0.0,0.0,0.0,0.0,0.0,0.0,0.0,0.0,0.0,0.0,0.0,0.0,2.9794,2.9779,2.9779,2.9754,2.9779,2.9804,2.9804,2.9804,2.9804,2.9804,2.9804,0.0,2.9804,2.9804,2.9804,2.9804,3.0306,3.3671,3.9572,4.0124,4.3564,4.9063,4.4694,4.0953,3.7764,3.5504,3.4525,3.4154,3.106,2.9804,2.9955,3.0934,3.1009,3.0683,3.1135,3.0984,3.0482,2.9955,2.9804,2.9804,2.9804,2.9779,2.9628,0.0,0.0,0.0,2.8913,3.0181,3.1336,3.0934,3.2441,3.4048,3.4073,3.45,3.5052,3.5533,3.5207,3.4901,3.4901,3.5755,3.648,3.648,3.5554,3.4851,3.4851,3.4826,3.4801,3.4731,3.4731,3.3744,3.116,3.0897,0.0,0.0,2.666,2.6426,2.6426,2.6035,2.5752,2.5752,2.5752,2.5752,2.5732,2.5732,2.5713,2.5693,2.5693,2.5693,2.5693,2.5732,2.62,2.707,2.7891,2.8262,2.8301,2.8301,2.8301,2.8301,2.8301,2.8301,2.8301,2.8301,2.8301,2.8301,0.0,0.0,0.0,0.0,0.0,0.0,0.0,0.0,0.0,0.0,0.0,0.0,0.0,2.9804,2.9804,2.9804,2.9804,2.9804,2.9804,2.9804,2.9804,2.9804,2.9804,2.9804,2.9804,2.9804,2.9804,2.9804,2.998,3.2466,3.7012,3.8316,4.045,4.3212,4.2685,4.158,3.9821,3.5504,3.3445,3.2943,3.106,3.0733,3.126,3.0608,3.0909,3.1537,3.0658,3.0482,3.0532,2.998,2.9804,2.9804,2.9804,2.9804,2.9679,2.9063,2.9176,2.9327,2.8599,2.9352,3.0231,2.964,3.0909,3.219,3.1863,3.2767,3.3621,3.3445,3.3545,3.3671,3.3671,3.4575,3.5303,3.5303,3.4675,3.4324,3.4675,3.4424,3.4198,3.4198,3.4198,3.3478,3.1716,0.0,0.0,0.0,0.0,2.63,2.7132,2.7037,2.7268,2.8028,2.8075,2.772,2.6935,2.611,2.5693,2.5693,2.5693,2.5693,2.5693,2.6035,2.6328,2.666,2.7519,2.8047,2.8301,2.8301,2.8301,2.8301,2.8301,2.8301,2.8301,2.8301,2.8301,2.8301,0.0,0.0,0.0,2.8649,0.0,2.8963,2.9176,2.9377,2.9578,2.9754,0.0,0.0,0.0,0.0,3.0139,2.9818,2.9804,2.9804,2.9804,2.9804,2.9804,2.9804,2.9804,2.9804,2.9804,2.9804,2.9804,2.9804,2.998,3.1863,3.5257,3.6536,3.8266,4.0249,4.0023,4.045,4.1025,3.7211,3.5127,3.4248,3.2039,3.1813,3.2692,3.1989,3.239,3.3194,3.2114,3.1612,3.126,3.0156,2.9654,2.9528,2.9729,2.9804,2.9704,2.9327,2.9503,2.9628,2.8875,2.9227,2.9654,2.9038,2.9754,3.0432,2.9905,3.0758,3.1637,3.1436,3.1863,3.2315,3.2491,3.3119,3.3671,3.3847,3.342,3.3194,3.3545,3.3294,3.3119,3.3319,3.3345,3.2684,3.1035,0.0,0.0,0.0,0.0,0.0,2.7254,2.7721,2.8302,2.9104,2.9329,2.8819,2.7579,2.6764,2.611,2.5693,2.5693,2.5693,2.5693,2.6035,2.625,2.6426,2.7148,2.7937,2.8805,2.8893,2.8953,2.8953,2.8953,2.8708,2.8301,2.8301,2.8301,2.8301,2.9679,2.9352,2.9126,2.9704,2.9327,2.9113,2.9704,2.9327,2.9151,2.9704,0.0,0.0,0.0,0.0,0.0,2.992,2.9804,2.9804,2.9804,2.9804,2.9804,2.9804,2.9804,2.9804,2.9804,2.9804,2.9804,2.9804,3.0331,3.1964,3.458,3.5132,3.7439,4.0899,3.7188,3.7614,4.1075,4.0501,3.9697,3.8492,3.3972,3.2918,3.4098,3.5031,3.5458,3.5508,3.5458,3.4474,3.2817,3.0608,2.9503,2.9113,2.9654,2.9804,2.9804,2.9804,2.9804,2.9804,0.0,0.0,0.0,2.9013,2.8888,2.8737,2.8222,2.8499,2.9013,2.9578,3.0156,3.0683,3.1185,3.1286,3.1461,3.2014,3.1687,3.1361,3.1386,3.1386,3.1562,3.2114,3.2148,3.1254,2.9012,0.0,0.0,0.0,2.6285,2.6865,2.6798,2.7983,2.8701,2.8701,2.9104,2.8776,2.7631,2.7558,2.6914,2.5674,2.5674,2.5674,2.5693,2.5693,2.5977,2.6387,2.6836,2.8045,2.9707,3.0087,3.0224,3.0224,3.0255,2.946,2.8301,2.8335,2.8335,2.8335,2.9754,2.9654,2.9603,2.9754,2.9654,2.9603,2.9754,2.9654,2.9603,0.0,0.0,0.0,3.1204,3.1563,3.1408,3.0461,3.0382,3.0206,2.9829,2.9804,2.9804,2.9804,2.9804,2.9804,2.9804,2.9804,2.9804,2.9804,2.9955,3.0608,3.1763,3.2649,3.4148,3.5956,3.6107,3.6486,3.6962,3.4826,3.5353,3.7287,3.3244,3.3495,3.6031,3.3922,3.4374,3.5981,3.4776,3.4575,3.4525,3.229,3.1712,3.1738,3.0708,3.0105,2.9804,2.9804,2.9804,2.9704,2.9277,0.0,0.0,0.0,0.0,0.0,2.772,2.7946,2.8147,2.7555,2.8147,2.8725,2.8473,2.875,2.9076,2.9227,3.0131,3.0959,3.1336,3.106,3.1035,3.1562,3.0925,3.0212,0.0,0.0,0.0,0.0,2.7325,2.7855,2.8729,2.9952,3.0608,3.0608,2.9127,2.8166,2.781,2.6115,2.5298,2.5254,2.5254,2.543,2.5693,2.5693,2.5752,2.5908,2.6699,2.7814,2.9166,2.8946,2.8847,2.8953,2.9911,2.946,2.8388,2.9408,2.9755,2.9755,2.9804,2.9804,2.9804,2.9804,2.998,3.0131,3.0131,3.0131,3.0131,0.0,0.0,0.0,3.1841,3.2567,3.237,3.0738,3.0608,3.0382,2.9829,2.9804,2.9804,2.9804,2.9804,2.9804,2.9804,2.9804,2.9804,2.9804,2.9804,2.9955,3.0281,3.0909,3.1687,3.2566,3.3319,3.3847,3.3953,3.1712,3.2817,3.6006,3.4198,3.5102,3.7337,3.5629,3.6282,3.7914,3.6483,3.6383,3.6533,3.3822,3.2817,3.239,3.0507,3.0005,3.008,2.9854,2.9804,2.9704,2.9377,2.9528,2.9628,2.8976,0.0,0.0,2.7228,2.6992,2.6816,2.5963,2.6465,2.7042,2.6977,2.7394,2.777,2.777,2.8775,2.9754,3.0281,3.0306,3.0482,3.1009,3.0507,2.9949,0.0,2.8733,2.814,2.7626,2.7946,2.8733,2.9949,3.067,3.106,3.106,2.9516,2.8459,2.7939,2.6083,2.5085,2.4805,2.5028,2.5215,2.5469,2.5596,2.5965,2.6536,2.7451,2.8266,2.8906,2.9094,2.9164,2.9197,3.0016,2.946,2.8388,2.9164,2.946,2.9565,0.0,2.9804,2.9804,2.988,3.0331,3.0733,3.0859,3.0834,3.0859,0.0,3.1861,3.2672,3.3212,3.4038,3.3576,3.109,3.0783,3.0457,2.9829,2.9804,2.9804,2.9804,2.9804,2.9804,2.9804,2.9804,2.9804,2.9804,2.9804,2.9804,2.9804,2.9804,3.0055,3.0507,3.0005,3.0583,3.1863,3.0608,3.1712,3.4449,3.5554,3.6835,3.814,3.8592,3.9471,4.03,3.932,3.902,3.8542,3.5328,3.3345,3.1888,2.998,2.9905,3.0432,3.0005,2.9854,2.9804,2.9804,2.9804,2.9804,2.9804,2.9026,0.0,2.6927,2.6273,2.5686,2.5034,2.5335,2.5837,2.6323,2.6851,2.7228,2.7228,2.7645,2.8197,2.8712,2.9327,2.9854,3.0281,3.0313,2.9899,2.8824,2.879,2.8363,2.7279,2.8321,2.9432,3.0468,3.0532,3.0532,3.0532,2.9917,2.9024,2.776,2.6669,2.553,2.4355,2.4785,2.5067,2.5125,2.5672,2.6524,2.7641,2.8593,2.8893,2.8857,2.9724,3.0068,3.0068,3.0224,2.9565,2.8548,2.8708,2.8847,2.9164,2.9804,2.9804,2.993,3.0382,3.0884,3.1537,3.2466,3.2215,3.239,3.3746,3.4744,3.5503,3.6122,3.5572,3.4484,3.2751,3.1763,3.0834,2.9854,2.9804,2.9804,2.9804,2.9804,2.9804,2.9804,2.9804,2.9804,2.9804,2.9804,2.9804,2.9804,2.9804,2.9854,2.9955,2.9854,2.9955,3.0331,3.1311,3.1863,3.2139,3.3269,3.573,3.8668,3.8316,3.8868,3.9823,3.9622,3.9521,3.922,3.7211,3.4625,3.2215,3.224,3.121,3.003,3.0357,3.0131,2.9804,2.9804,2.9804,2.9804,2.9804,2.9628,0.0,2.8047,2.7695,2.7193,2.5737,2.5887,2.6223,2.5837,2.6273,2.665,2.665,2.7128,2.7645,2.8197,2.875,2.8938,2.8624,2.8596,0.0,2.7695,2.7989,2.817,2.7904,2.8977,2.9735,2.9955,2.9955,2.9955,2.9955,2.8955,2.7906,2.6794,2.5658,2.4705,2.3906,2.4336,2.4727,2.5125,2.6588,2.7363,2.7641,2.8495,2.8844,2.8807,2.8729,2.8708,2.8794,2.9859,3.0172,3.0068,3.1111,3.2252,3.3277,2.9804,2.9804,2.9955,3.0507,3.1035,3.1763,3.296,3.3068,3.3545,3.4906,3.6248,3.6954,3.6719,3.5923,3.478,3.3212,3.2039,3.116,3.0633,3.0583,3.0482,3.0206,3.0206,3.008,2.9804,2.9804,2.9804,2.9804,2.9804,2.9804,2.9804,2.9804,2.9628,2.9377,2.9654,2.9628,2.9428,3.0532,3.116,3.1612,3.4123,3.6282,3.8115,3.8944,3.9597,4.0099,4.0099,3.9747,3.9019,3.7385,3.5855,3.4399,3.2742,3.1863,3.1436,3.1411,3.0834,3.0206,3.0206,3.0206,3.0206,3.0206,2.9779,0.0,0.0,2.8097,2.7369,2.6298,2.6072,2.5971,2.5661,2.5871,2.6072,2.6072,2.6524,2.7002,2.7243,2.7996,2.8423,2.8147,2.8126,0.0,2.7713,2.8177,2.8631,2.8924,2.9482,2.9804,2.9804,2.9804,2.9804,2.9804,2.8688,2.7844,2.7279,2.6213,2.5615,2.5544,2.5962,2.6424,2.6978,2.8,2.8495,2.856,2.9445,2.9856,2.9894,3.0185,3.0307,3.0307,3.0307,3.0307,3.0463,3.1825,3.2733,3.3453,2.9804,2.9804,2.9955,3.0507,3.1135,3.1938,3.3068,3.3621,3.4374,3.5633,3.7211,3.7864,3.7134,3.6132,3.5082,3.4123,3.2315,3.1461,3.1989,3.1436,3.0909,3.0482,3.0457,3.0206,2.9628,2.9729,2.9804,2.9804,2.9804,2.9804,2.9804,2.9804,2.9553,2.9088,2.9578,2.9654,2.9389,2.9905,3.0783,3.2164,3.5529,3.686,3.7136,3.9471,4.03,4.0224,4.0325,3.9798,3.8793,3.726,3.6883,3.6458,3.3219,3.2516,3.2867,3.2616,3.1763,3.0934,3.106,3.1085,3.1035,3.0809,3.0116,2.9414,0.0,0.0,0.0,2.6952,0.0,0.0,0.0,0.0,0.0,0.0,0.0,0.0,0.0,2.7253,0.0,2.7795,2.7871,0.0,2.8097,2.8699,2.9302,2.9754,2.9585,2.9585,2.9804,2.9585,2.9585,2.9779,2.891,2.8307,2.8084,2.733,2.6944,2.6967,2.7457,2.7855,2.8117,2.8783,2.905,2.9141,3.0354,3.0897,3.0964,3.1928,3.228,3.218,3.1133,3.0876,3.1235,3.228,3.2883,3.3231,2.9804,2.9804,2.9955,3.0507,3.1461,3.2491,3.3646,3.3847,3.465,3.6734,3.804,3.8919,3.927,3.7061,3.6009,3.7337,3.3319,3.1738,3.4198,3.1612,2.9955,2.988,2.988,2.9628,2.9013,2.9528,2.9804,2.9804,2.9804,2.9804,2.9804,2.9804,2.9754,2.9704,2.9754,3.0281,3.111,3.1185,3.2139,3.3746,3.5107,3.5683,3.5984,3.8743,3.9471,3.912,3.9622,3.9697,3.9421,3.8216,3.7211,3.6329,3.5332,3.3796,3.2491,3.3445,3.2918,3.2139,3.2667,3.2835,3.2566,0.0,3.1562,3.1336,0.0,0.0,2.9202,2.8147,0.0,0.0,0.0,0.0,0.0,0.0,0.0,0.0,2.6499,2.66,2.6675,2.6675,2.7102,0.0,0.0,2.9076,2.9729,2.9779,2.8846,2.8727,2.974,2.8846,2.8767,2.974,2.9663,2.9106,2.8124,2.8478,2.7596,2.5653,2.6563,2.6475,2.5578,2.7087,2.7814,2.7925,2.9995,3.0897,3.0964,3.1928,3.228,3.228,3.2129,3.2855,3.392,3.4141,3.4921,3.5953,2.9804,2.9804,2.9955,3.0507,3.0984,3.1763,3.3194,3.5604,3.7713,3.8944,4.0074,4.1031,4.153,3.9145,3.7889,3.8894,3.5604,3.3778,3.463,3.2817,3.1537,3.121,3.1185,3.0783,2.993,3.0156,3.0105,2.9804,2.9804,2.9804,2.9804,2.9804,2.9804,2.9804,2.9804,3.0382,3.1386,3.1386,3.2365,3.3972,3.4705,3.5408,3.626,3.8768,3.9747,3.9823,3.9722,3.9697,3.9471,0.0,3.7663,0.0,0.0,0.0,3.4129,3.4324,3.3822,3.3244,3.3495,0.0,0.0,0.0,0.0,0.0,3.0633,0.0,3.0055,0.0,0.0,0.0,0.0,0.0,0.0,0.0,2.6977,0.0,0.0,0.0,2.6122,0.0,0.0,0.0,0.0,0.0,0.0,0.0,2.8533,2.8609,2.974,2.8727,2.8648,2.974,2.9804,2.9585,2.9106,2.9607,2.9552,2.886,2.8891,2.9216,2.9736,2.9716,2.967,2.9783,3.1297,3.1994,3.2134,3.3133,3.3995,3.4703,3.4703,3.4557,3.4483,3.5259,3.5906,3.6405,2.9804,2.9804,2.9905,3.0306,3.0633,3.1436,3.3244,3.6257,3.8743,3.9923,4.0626,4.1584,4.2836,4.0651,3.9697,4.1153,3.804,3.6031,3.6081,3.4198,3.2692,3.1813,3.1913,3.1411,3.0181,3.0457,3.0357,2.9804,2.9804,2.9804,2.9804,2.9804,2.9804,2.9804,3.0256,3.106,3.2089,3.239,3.3495,3.5052,3.5303,3.6081,3.7262,3.8868,3.9798,4.0249,3.9848,3.9697,3.9496,3.8115,3.809,0.0,3.6081,3.5433,3.5382,0.0,0.0,0.0,3.3972,0.0,0.0,0.0,0.0,0.0,0.0,0.0,0.0,0.0,0.0,0.0,0.0,0.0,2.8147,2.7595,0.0,2.7178,0.0,2.6223,0.0,0.0,0.0,0.0,0.0,0.0,0.0,0.0,0.0,2.8321,2.9263,2.8545,2.8466,2.9326,2.9624,2.9854,3.0005,3.0557,3.0923,3.1091,3.0802,3.1129,3.2064,3.1134,3.0732,3.0779,3.2156,3.2792,3.3005,3.439,3.5523,3.6405,3.6405,3.581,3.5066,3.6073,3.6405,3.6405,2.9804,2.9804,2.9804,2.9804,3.0683,3.2114,3.4324,3.4801,3.5855,3.8567,3.8467,3.9371,4.261,4.1003,4.1178,4.497,4.03,3.7814,3.9421,3.5479,3.2365,3.0733,3.116,3.0658,2.8988,3.0016,3.0357,2.9804,2.9804,2.9804,2.9804,2.9804,2.9804,2.9854,3.1436,3.2767,3.3897,3.4906,3.631,3.7839,3.7312,3.7789,3.8844,3.8919,3.9245,3.9722,3.9697,0.0,0.0,3.9019,3.8467,0.0,0.0,0.0,0.0,0.0,0.0,0.0,0.0,0.0,0.0,3.347,0.0,0.0,0.0,0.0,3.1863,0.0,0.0,0.0,0.0,2.8888,2.8687,2.8172,2.762,0.0,0.0,0.0,0.0,0.0,0.0,0.0,0.0,0.0,0.0,0.0,0.0,0.0,2.81,2.8124,2.8124,2.8124,2.9223,3.0055,3.0583,3.111,3.1075,3.0414,3.0937,3.0574,2.951,2.951,2.9442,2.96,3.1879,3.2909,3.3074,3.5412,3.6358,3.6405,3.6405,3.6358,3.6358,3.6358,3.6405,3.6405,2.9804,2.9804,2.9804,2.9804,3.0382,3.1738,3.4324,3.5956,3.8015,4.1178,4.1731,4.3237,4.6954,4.6024,4.5673,4.6979,4.4392,4.2133,4.0852,3.8341,3.6204,3.45,3.462,3.3746,3.1712,3.2416,3.2164,3.0859,3.0507,3.0331,3.0331,2.9955,2.998,3.0382,3.126,3.2491,3.3972,3.5031,3.6235,3.7513,3.8065,3.8969,3.9923,0.0,3.9521,3.9697,3.9697,3.9446,0.0,3.9346,3.8542,3.7437,3.7236,3.6684,3.5981,3.5382,3.5655,0.0,0.0,0.0,3.5855,3.4951,0.0,0.0,0.0,0.0,0.0,0.0,0.0,0.0,0.0,2.9503,2.9327,2.8712,2.8499,2.8247,0.0,0.0,0.0,0.0,0.0,2.7896,0.0,0.0,0.0,0.0,0.0,0.0,0.0,2.6852,2.736,2.8084,2.9529,3.0432,3.0608,3.1486,3.1805,3.16,3.1336,3.14,3.1845,3.0956,3.1045,3.1937,3.3437,3.4111,3.4185,3.5765,3.6405,3.6405,3.6405,3.6405,3.6405,3.6405,3.6405,3.6405,2.9829,2.9955,3.008,3.008,3.1035,3.2516,3.463,3.7236,3.9798,4.2414,4.3689,4.5723,4.9213,4.8761,4.8385,4.8761,4.7305,4.492,4.1501,4.0526,3.8818,3.5906,3.638,3.5475,3.2817,3.352,3.2993,3.111,3.0959,3.0884,3.0884,3.0331,3.0281,3.0658,3.1788,3.2767,3.3721,3.5403,3.6659,3.7563,3.8492,3.9421,0.0,0.0,3.9471,3.9923,0.0,3.917,3.8919,3.927,3.8542,3.7437,3.7236,3.6857,3.6254,3.5479,3.578,3.6279,3.5701,3.578,0.0,3.5332,3.5207,0.0,3.3897,0.0,3.4098,0.0,0.0,0.0,0.0,0.0,2.9679,2.9302,2.9038,2.8687,0.0,2.8273,0.0,0.0,2.8222,2.8097,0.0,0.0,0.0,0.0,0.0,0.0,0.0,0.0,2.74,2.8084,2.9727,3.0708,3.0884,3.1763,3.2315,3.2516,3.2068,3.2326,3.3068,3.2239,3.2425,3.342,3.4324,3.4781,3.5031,3.5981,3.6405,3.6405,3.6405,3.6405,3.6405,3.6405,3.6531,3.6732,2.993,3.0331,3.0733,3.0733,3.2466,3.4248,3.5408,3.8341,4.0927,4.2213,4.4267,4.6677,4.9414,4.9264,4.9339,5.0318,4.8962,4.6225,4.1902,4.2108,4.0174,3.5303,3.6558,3.583,3.2491,3.3495,3.2993,3.0783,3.1235,3.1461,3.1411,3.0859,3.0633,3.0733,3.2867,3.3545,3.3287,3.5981,3.7487,3.8065,3.8642,3.9195,3.9572,3.8391,3.8994,4.03,3.9245,3.8894,3.8844,3.8894,3.8442,3.7839,3.7337,3.6857,3.6204,3.5102,3.5554,3.6078,3.4449,3.4776,3.5408,3.4926,0.0,0.0,0.0,0.0,3.4474,0.0,0.0,0.0,0.0,0.0,0.0,2.9804,2.9327,2.8737,2.8222,2.8587,2.8913,2.8888,2.8473,2.8147,2.8197,2.806,0.0,0.0,0.0,0.0,0.0,0.0,2.8108,2.8131,2.9751,3.0909,3.1411,3.1964,3.2541,3.3111,3.3111,3.3111,3.3111,3.3136,3.3395,3.3922,3.45,3.5006,3.5533,3.6132,3.6405,3.6405,3.6405,3.643,3.6455,3.6455,3.6807,3.7287,3.0357,3.1512,3.2441,3.2441,3.2918,3.4073,3.6408,3.8542,4.1053,4.4217,4.6552,4.8837,5.1197,5.1348,5.1021,5.0469,5.0017,4.8761,4.6376,4.5598,4.374,4.04,4.0275,3.8718,3.5403,3.5981,3.5253,3.3068,3.2767,3.2416,3.1989,3.106,3.0809,3.1235,3.2215,3.2792,3.3262,3.5625,3.7136,3.8065,3.8642,3.9195,3.9521,0.0,3.8191,3.9245,3.902,3.8391,3.7739,3.8642,3.7989,3.6883,3.7111,3.6857,3.6355,3.6078,3.6179,3.6304,3.5902,3.5931,3.6132,3.5981,3.5931,3.583,0.0,0.0,0.0,0.0,0.0,0.0,0.0,0.0,0.0,2.9854,2.9679,2.9377,2.8762,2.9202,2.9402,2.8938,2.8762,2.8875,2.9327,0.0,0.0,0.0,0.0,0.0,0.0,0.0,0.0,2.8695,3.0334,3.1461,3.1989,3.2566,3.2943,3.3111,3.3111,3.3111,3.3093,3.3495,3.3771,3.3947,3.4881,3.5357,3.5533,3.6132,3.6405,3.6405,3.6405,3.6656,3.696,3.696,3.7312,3.7814,3.121,3.2842,3.4299,3.4776,3.5479,3.6408,3.7713,3.9346,4.1455,4.4367,4.6878,4.8862,5.0142,5.1147,5.1398,5.0494,5.0419,4.9414,4.7004,4.6954,4.5347,4.1605,4.1605,3.9923,3.606,3.6307,3.5378,3.3169,3.2842,3.2541,3.219,3.1587,3.1336,3.1411,3.224,3.2767,3.3262,3.5475,3.6985,3.8015,3.809,3.8467,0.0,3.7362,3.741,3.814,3.814,3.7713,3.7287,3.7914,3.7561,3.6782,3.6857,3.6656,3.6405,3.6405,3.6405,3.6405,3.6405,3.6405,3.6405,3.6405,3.6182,3.5981,3.5906,3.5579,3.5002,0.0,0.0,0.0,0.0,0.0,0.0,2.9854,2.9804,2.9679,2.9352,2.9578,2.9679,2.9352,2.9302,0.0,0.0,0.0,0.0,0.0,0.0,0.0,0.0,0.0,0.0,2.9586,3.0984,3.1888,3.2215,3.3018,3.3319,3.3111,3.3111,3.3111,3.3136,3.3646,3.4022,3.4299,3.5132,3.5633,3.5931,3.6279,3.6405,3.6405,3.6405,3.6883,3.7538,3.7538,3.7889,3.8417,3.2315,3.4173,3.5931,3.681,3.8542,3.9722,3.9446,4.0877,4.2559,4.4141,4.6677,4.8335,4.8234,4.9992,5.0896,5.0268,5.0193,4.8962,4.5999,4.7054,4.5799,4.1254,4.1831,4.03,3.6034,3.5734,3.463,3.2641,3.2441,3.2365,3.2441,3.229,3.1989,3.1637,3.2566,3.3061,3.3262,3.5399,3.6759,3.7563,3.7287,3.7462,3.7789,3.6807,3.6757,3.7186,3.7111,3.7086,3.7086,3.7161,3.7136,3.6985,3.6556,3.6405,3.6405,3.6405,3.6405,3.6405,3.6405,3.6405,3.6405,3.6405,3.5956,3.5633,3.6132,3.5027,3.4048,3.4525,3.3018,3.1562,0.0,0.0,0.0,2.988,0.0,0.0,0.0,2.9804,2.9804,2.9804,2.9729,0.0,0.0,0.0,0.0,0.0,0.0,0.0,0.0,0.0,0.0,3.0643,3.1612,3.2215,3.2441,0.0,3.3596,3.3194,3.3119,3.3111,3.3093,3.3721,3.4274,3.4705,3.5332,3.5931,3.6405,3.6405,3.6405,3.6405,3.648,3.7111,3.8015,3.809,3.8492,3.9095,3.3395,3.5027,3.6132,3.5834,3.8341,4.0802,4.2057,4.4066,4.5874,4.7029,4.9238,5.0519,5.0017,5.0318,5.0167,4.9163,4.9063,4.8611,4.7556,4.7355,4.6276,4.3991,4.3212,4.1404,3.8366,3.696,3.583,3.4906,3.3596,3.3169,3.3596,3.2641,3.2416,3.2767,3.2491,3.2616,3.3194,3.4951,0.0,3.5403,3.6684,3.7236,3.7262,3.6656,3.6757,3.7136,3.6707,3.6556,3.6631,3.7036,3.6933,3.6531,3.643,3.6405,3.6405,3.6405,3.6405,3.6405,3.6405,3.6405,3.6405,3.6405,3.5956,3.5533,3.5608,3.4751,3.3922,3.4022,3.337,3.2491,3.1562,0.0,0.0,0.0,0.0,0.0,0.0,0.0,2.9804,2.9804,2.9377,2.9277,0.0,0.0,0.0,0.0,0.0,0.0,0.0,0.0,0.0,0.0,3.1436,0.0,0.0,0.0,3.3395,3.3746,3.3294,3.3111,3.3119,3.4123,3.4625,3.4776,3.578,3.6329,3.6405,3.6405,3.6405,3.6455,3.6908,3.7437,3.8065,3.8542,3.9069,3.9572,3.5855,3.691,3.7839,3.8392,4.1078,4.3639,4.5271,4.7179,4.8109,4.7205,4.8033,4.8485,4.7933,4.8887,4.9238,4.841,4.8309,4.8083,4.7531,4.728,4.625,4.4292,4.3413,4.1681,3.8969,3.696,3.5784,3.5508,3.3897,3.3219,3.347,3.3219,3.2918,3.2616,3.2641,3.3144,3.3972,0.0,0.0,3.568,3.6734,3.7186,3.7186,3.7211,3.7211,3.7161,3.6933,3.6656,3.6455,3.6707,3.6631,3.6405,3.6405,3.6405,3.6405,3.6405,3.6405,3.6405,3.6405,3.6405,3.6405,3.6405,3.573,3.5157,3.5433,3.4474,3.3545,3.3847,3.3219,3.229,3.1185,3.0557,0.0,0.0,0.0,0.0,0.0,0.0,3.0105,2.9829,2.9553,2.9478,0.0,0.0,0.0,0.0,2.9252,2.9176,0.0,0.0,0.0,0.0,0.0,0.0,0.0,0.0,0.0,3.4324,3.3771,3.3646,3.3947,3.4731,3.5107,3.5157,3.6006,3.6405,3.6405,3.6405,3.6581,3.6857,3.7086,3.7713,3.8492,3.8768,3.922,3.9697,3.8391,3.8994,3.9873,4.143,4.3991,4.6225,4.738,4.9188,4.969,4.7631,4.7154,4.6803,4.625,4.7732,4.8485,4.7807,4.7732,4.7531,4.7004,4.6954,4.6075,4.4066,4.3438,4.1907,3.927,3.7036,3.5784,3.5683,3.4073,3.3319,3.3445,3.3872,3.347,3.2416,0.0,0.0,0.0,0.0,3.5278,3.6257,3.691,3.7337,3.7588,3.7889,3.7739,3.7337,3.7236,3.6883,3.6405,3.6405,3.6405,3.6405,3.6405,3.6405,3.6405,3.6405,3.6405,3.6405,3.6405,3.6405,3.6405,3.6405,3.5529,3.4781,3.5232,3.4173,3.3194,3.3646,3.2918,3.1964,3.111,3.0758,0.0,0.0,0.0,0.0,0.0,0.0,3.0457,3.003,2.9854,2.9804,2.9804,0.0,0.0,0.0,0.0,2.9302,2.9754,2.9804,3.0281,0.0,0.0,3.2767,3.3897,0.0,3.4173,3.468,3.4173,3.4198,3.4751,3.5257,3.5508,3.5533,3.6132,3.6405,3.6405,3.6531,3.6832,3.7211,3.7437,3.809,3.8894,3.9045,3.932,3.9697,3.9973,4.0674,4.148,4.2635,4.5121,4.6853,4.6502,4.8711,5.0519,5.077,4.9916,4.9088,4.8535,4.8699,4.836,4.7305,4.7143,4.6979,4.6426,4.6376,4.5849,4.4593,4.4016,4.266,4.04,3.8165,3.6784,0.0,3.4625,3.4073,0.0,3.4625,0.0,0.0,0.0,0.0,0.0,3.4073,3.5031,3.5658,3.6759,3.7789,3.8718,3.8191,3.7965,3.7864,3.7362,3.6883,3.6405,3.6405,3.6405,3.6405,3.6405,3.6405,3.6405,3.6405,3.6405,3.6405,3.6405,3.6405,3.6405,3.6405,3.5529,3.468,3.4731,3.3897,3.3093,3.3144,3.2641,3.219,3.2089,3.126,3.0758,0.0,0.0,0.0,0.0,0.0,3.0608,3.0532,0.0,0.0,2.9804,2.9804,0.0,0.0,2.9754,2.9729,2.9804,2.9804,3.0281,3.1361,0.0,3.2767,3.3897,3.3897,3.4173,3.468,3.4173,3.4198,3.4751,3.5257,3.5508,3.5533,3.6132,3.6405,3.6455,3.691,3.7136,3.7287,3.8366,3.8818,3.8969,3.9421,3.9647,3.9697,4.1856,4.2183,4.2886,4.4669,4.6175,0.0,0.0,4.9715,5.0494,5.072,5.0067,4.9389,4.8837,4.8761,4.846,4.7657,4.7305,4.6993,4.6828,4.6502,4.5949,4.5171,4.4292,4.3237,4.2032,3.9496,3.814,0.0,0.0,0.0,0.0,0.0,0.0,0.0,0.0,3.3345,3.3319,3.4605,3.5529,3.6157,3.7613,3.8467,3.8894,3.8617,3.8517,3.8442,3.7889,3.7337,3.6958,3.7236,3.691,3.6405,3.6405,3.6405,3.6405,3.6405,3.6405,3.6405,3.6405,3.6405,3.6405,3.6405,3.5529,3.468,3.468,3.3872,3.3111,3.3111,3.2616,3.2215,3.2215,3.1587,3.126,0.0,0.0,0.0,0.0,0.0,0.0,3.0206,0.0,2.9804,2.9804,2.9804,0.0,0.0,0.0,2.9804,2.9804,3.0105,0.0,3.1361,0.0,3.2767,3.3897,3.3571,3.4022,3.5157,3.465,3.4851,3.5705,3.5931,3.6031,3.6031,3.6329,3.6405,3.6455,3.7008,3.7387,3.7764,3.8567,3.9069,3.9396,3.9622,3.9697,3.9697,4.3815,0.0,4.4669,0.0,4.7606,4.8385,4.9941,5.0167,5.0167,5.0167,4.9841,4.9389,4.8837,4.8611,4.836,4.7933,4.7431,4.7143,4.7355,4.6853,4.6225,4.5522,4.4568,0.0,4.276,4.0676,3.9346,3.8919,3.7737,0.0,0.0,0.0,0.0,0.0,3.3972,3.4248,3.4675,3.5454,3.6282,3.7235,3.8265,3.8818,3.917,3.917,3.907,3.8818,3.8417,3.7889,3.7487,3.7864,3.7487,3.6857,3.6707,3.6656,3.6631,3.6455,3.6405,3.6405,3.6405,3.6405,3.6405,3.6405,3.5529,3.468,3.468,3.3872,3.3111,3.3111,3.2742,3.2416,3.224,3.1763,3.1562,3.2114,0.0,0.0,0.0,3.1486,0.0,3.0357,3.0131,3.003,3.003,3.003,0.0,0.0,0.0,0.0,0.0,0.0,0.0,0.0,0.0,0.0,0.0,3.3596,3.4148,3.5257,3.5031,3.5454,3.6405,3.6405,3.6405,3.6405,3.6405,3.6405,3.6455,3.7136,3.7663,3.809,3.8818,3.9346,3.9697,3.9697,3.9697,3.9697,4.5824,4.6276,4.6979,4.9163,4.9565,4.9565,4.9615,4.9615,4.9615,4.9615,4.959,4.9389,4.8837,4.8259,4.7908,4.7908,4.7431,4.7355,4.7857,4.7405,4.6627,0.0,0.0,4.384,4.2263,4.1605,4.0501,3.8919,0.0,0.0,3.6405,0.0,3.6031,3.5483,3.6081,3.638,3.638,3.638,3.736,3.8844,3.8241,3.8693,3.9697,3.9697,3.9346,3.8919,3.8919,3.8492,3.799,3.8015,3.799,3.7889,3.7337,3.7186,3.7061,3.6556,3.6405,3.6405,3.6405,3.6405,3.6405,3.6405,3.5529,3.468,3.468,3.3872,3.3111,3.3111,3.3111,3.2893,3.2315,3.1763,3.1562,3.2114,0.0,0.0,0.0,3.1738,0.0,3.1361,3.0909,3.0608,3.0608,3.0608,0.0,0.0,0.0,0.0,0.0,0.0,0.0,3.1361,3.2491,0.0,3.3136,3.4148,3.468,3.4751,3.5232,3.583,3.6405,3.6405,3.6405,3.6405,3.6405,3.6405,3.648,3.7538,3.799,3.8115,3.9245,3.9697,3.9697,3.9697,3.9697,3.9697,4.6175,4.6602,4.7205,4.8259,4.8761,4.9163,4.954,4.959,4.959,4.959,4.959,4.9389,4.8837,4.8611,4.8335,0.0,4.7431,4.7143,0.0,4.6878,4.625,4.5522,4.4945,4.4192,4.3288,4.2359,4.1455,4.0551,0.0,0.0,0.0,3.6983,3.6634,3.6132,3.6684,3.6983,3.7033,3.7788,3.8416,3.8944,3.9094,3.9371,3.9647,3.927,3.927,3.9371,3.9045,3.8793,3.8642,3.9044,3.8919,3.8567,3.8391,3.7814,3.7086,3.6581,3.6405,3.6405,3.6405,3.6405,3.6405,3.6405,3.583,3.5232,3.5232,3.4424,3.352,3.3187,3.3111,3.2893,3.2315,3.1763,3.1562,3.2114,3.1763,0.0,0.0,0.0,3.111,3.0382,3.0482,3.0608,3.0608,3.0934,0.0,0.0,0.0,0.0,0.0,0.0,0.0,0.0,3.2893,0.0,3.4198,3.4173,3.455,3.5232,3.5408,3.583,3.6405,3.6405,3.6405,3.6405,3.6405,3.6405,3.648,3.7563,3.8015,3.8115,3.9245,3.9697,3.9697,3.9697,3.9697,3.9697,4.6577,4.6903,4.7305,4.7807,4.8209,4.856,4.8912,4.8962,4.8962,4.8962,4.9163,4.9063,4.851,4.8636,0.0,4.7958,4.7431,4.723,4.7405,4.6928,4.6276,4.5522,4.4945,4.4267,4.3514,4.2811,0.0,4.1656,4.0325,3.9145,3.8115,3.7688,3.7437,3.736,3.7712,3.7939,3.8165,3.8668,3.9045,3.9195,3.932,3.9521,3.9647,3.932,3.9396,3.9647,3.9295,3.917,3.922,3.9572,3.9471,3.9145,3.8944,3.8391,3.7663,3.6933,3.6732,3.6681,3.6455,3.6405,3.6405,3.6405,3.5956,3.5382,3.4981,3.4399,3.3746,3.3194,3.3111,3.2968,3.2591,3.2089,3.1813,3.2164,3.1763,3.1311,3.1135,0.0,3.1135,0.0,0.0,0.0,0.0,3.1512,3.1612,0.0,0.0,0.0,0.0,0.0,0.0,3.2742,3.3169,0.0,3.4399,3.4474,3.4831,3.5508,3.5708,3.6031,3.6405,3.6631,3.6606,3.643,3.6857,3.6908,3.6807,3.7864,3.8341,3.8417,3.9346,3.9697,3.9697,3.9697,3.9697,3.9697,4.6979,4.7018,4.723,0.0,4.7857,0.0,4.7908,4.7908,4.7933,4.7958,4.8435,4.856,4.7983,4.8385,4.846,4.7857,0.0,0.0,0.0,4.733,4.6577,4.5472,4.492,4.4116,4.3011,4.2986,4.2766,4.2213,4.0626,3.9823,3.9722,3.8668,3.8442,3.8969,3.8969,3.922,3.9672,3.9145,3.922,3.9647,3.9145,3.922,3.9697,3.9697,3.9697,3.9697,3.9697,3.9697,3.9697,3.9697,3.9697,3.9597,3.9094,3.8969,3.8718,3.7563,3.7211,3.7061,3.6606,3.643,3.6405,3.6405,3.5981,3.5257,3.4198,3.3947,3.3796,3.3194,3.3111,3.3111,3.3061,3.2566,3.2215,3.2215,3.1763,3.1235,3.0783,0.0,3.1386,0.0,0.0,0.0,0.0,3.224,3.2064,0.0,0.0,0.0,0.0,0.0,3.234,3.239,3.337,3.3947,3.4073,3.5006,3.5508,3.5558,3.6157,3.6455,3.648,3.6985,3.696,3.6581,3.7563,3.7713,3.7337,3.8466,3.8919,3.8919,3.9471,3.9697,3.9697,3.9697,3.9697,3.9697,0.0,0.0,4.6677,4.723,4.7305,4.7456,4.7857,4.7908,4.8058,4.851,4.8686,4.856,4.7983,4.8033,4.7732,4.6778,4.6954,4.7004,4.6702,4.6577,4.5999,4.4869,4.4694,4.4116,4.3011,4.2986,4.2766,4.2213,4.181,4.1153,4.0325,4.0049,3.9772,3.9496,3.9496,3.9572,3.9697,3.9546,3.9572,3.9697,3.9546,3.9572,3.9697,3.9697,3.9697,3.9697,3.9697,3.9697,3.9697,3.9697,3.9697,3.9672,3.9546,3.9496,3.927,3.814,3.7513,3.7161,3.7036,3.6732,3.6405,3.6405,3.6304,3.5881,3.4776,3.4525,3.4248,3.3269,3.3111,3.2943,3.2491,3.2315,3.2215,3.2215,3.1763,3.1486,3.1788,3.1587,0.0,0.0,3.1863,3.2215,3.2215,3.2616,3.2993,0.0,0.0,0.0,0.0,3.3495,3.3696,3.4123,3.3972,3.45,3.5827,3.5629,3.5708,3.6182,3.6734,3.6985,3.701,3.7563,3.7739,3.7638,3.7889,3.7939,3.7864,3.8567,3.8919,3.8919,3.9471,3.9697,3.9697,3.9697,3.9697,3.9697,4.6301,4.6301,4.6401,4.6702,4.6753,4.6853,4.7129,4.7179,4.738,4.7958,4.8234,4.8259,4.7933,4.8134,4.7857,4.6778,4.6728,4.6627,4.6326,4.6301,4.5799,4.4669,4.4618,4.4116,4.3011,4.2986,4.2891,4.259,4.2338,4.1911,4.1254,4.0752,4.035,4.0049,3.9798,3.9697,3.9697,3.9697,3.9697,3.9697,3.9697,3.9697,3.9697,3.9697,3.9697,3.9697,3.9697,3.9697,3.9697,3.9697,3.9697,3.9697,3.9697,3.9697,3.9572,3.8969,3.8191,3.7513,3.7262,3.6832,3.6405,3.6405,3.6405,3.6179,3.5257,3.5056,3.4806,3.3997,3.3621,3.337,3.3043,3.2767,3.2516,3.2265,3.1964,3.1788,3.1838,3.1788,0.0,3.2139,3.2641,3.3068,3.3345,3.3646,3.3947,3.4248,3.3997,0.0,3.4248,3.4274,3.4299,3.4349,3.455,3.5077,3.5981,3.5956,3.6182,3.6782,3.7036,3.7312,3.7588,3.814,3.8266,3.804,3.8542,3.8642,3.8442,3.9019,3.9245,3.927,3.9572,3.9697,3.9697,3.9697,3.9697,3.9697,4.6301,4.6301,4.6301,4.6301,4.6301,4.6301,4.6301,4.6301,4.6527,4.7179,4.7631,4.7933,4.8033,4.841,4.8234,4.723,4.6627,4.6301,4.6301,4.6225,4.5723,4.4669,4.4543,4.4016,4.3011,4.2986,4.2986,4.2986,4.2564,4.2288,4.2187,4.1204,4.0676,4.0501,4.0023,3.9772,3.9697,3.9697,3.9697,3.9697,3.9697,3.9697,3.9697,3.9697,3.9747,3.9798,3.9722,3.9747,3.9798,3.9722,3.9697,3.9697,3.9697,3.9697,3.9697,3.9697,3.8944,3.8015,3.7462,3.6883,3.6405,3.6405,3.6405,3.6254,3.5633,3.5508,3.5332,3.4781,3.4349,3.4022,3.4022,3.3571,3.3043,3.2541,3.2315,3.2089,3.1687,0.0,3.2466,3.3119,3.3621,3.4123,3.4675,3.468,3.4705,3.4781,3.4731,3.4751,3.4806,3.4806,3.4625,3.4173,3.5006,3.5583,3.5734,3.6257,3.6807,3.7312,3.7387,3.7688,3.8165,3.8743,3.8718,3.8316,3.927,3.9421,3.9044,3.9496,3.9697,3.9697,3.9697,3.9697,3.9697,3.9697,3.9697,3.9697,4.6301,4.6301,4.6301,4.6301,4.6301,4.6301,4.6301,4.6301,4.6677,4.7657,4.7857,4.8083,4.8586,4.8284,4.7807,4.7118,4.6627,4.6301,4.6301,4.5874,4.5321,4.4644,4.4192,4.3639,4.2986,4.2986,4.2986,4.2986,4.2886,4.2665,4.2213,4.2037,4.1404,4.0526,4.0425,4.0124,3.9697,3.9697,3.9697,3.9697,3.9697,3.9697,3.9697,3.9697,3.9973,4.0325,3.9848,3.9998,4.0325,3.9848,3.9697,3.9697,3.9697,3.9697,3.9697,3.9697,3.9245,3.8617,3.804,3.7136,3.6405,3.6405,3.6405,3.6254,3.5633,3.5508,3.5332,3.4781,3.4605,3.46,3.46,3.4148,3.3746,3.3646,3.2842,3.2365,3.281,0.0,3.2591,3.3646,3.3847,3.4123,3.4675,3.468,3.4881,3.5332,3.4931,3.4881,3.5332,3.5382,3.5332,3.5232,3.5408,3.5934,3.691,3.701,3.7337,3.7889,3.8366,3.8693,3.8768,3.932,3.9521,3.9446,3.9622,3.9647,3.9572,3.9672,3.9697,3.9697,3.9697,3.9697,3.9697,3.9697,3.9697,3.9697,4.6301,4.6301,4.6301,4.6301,4.6301,4.6301,4.6301,4.6301,4.6702,4.7757,4.7908,4.8134,4.8711,4.8259,4.7807,4.7581,4.6778,4.6426,4.6728,4.5949,4.5221,4.4644,4.4091,4.3539,4.2986,4.2986,4.2986,4.2986,4.2986,4.2836,4.264,4.2363,4.1936,4.1379,4.1103,4.0651,4.0149,4.0149,3.9973,3.9697,3.9697,3.9697,3.9697,3.9697,4.0049,4.045,3.9898,4.0049,4.0425,3.9873,3.9697,3.9697,3.9697,3.9697,3.9697,3.9697,3.9295,3.8793,3.8165,3.7638,3.7186,3.6885,3.6857,3.6659,3.6107,3.5981,3.5906,3.5655,3.5378,3.5132,3.5132,3.4474,3.3997,3.4299,3.3395,0.0,0.0,3.3294,3.342,3.4248,3.46,3.5002,3.5554,3.5604,3.5705,3.5956,3.5755,3.5705,3.5981,3.5981,3.5981,3.5981,3.5981,3.6383,3.7186,3.7186,3.7613,3.8467,3.8793,3.9019,3.932,3.9572,3.9697,3.9697,3.9697,3.9697,3.9697,3.9697,3.9697,3.9697,3.9697,3.9697,3.9697,3.9697,3.9697,3.9697,4.6301,4.6301,4.6301,4.6301,4.6301,4.6301,4.6301,4.6301,4.6652,4.7606,4.7832,4.8083,4.851,4.8184,4.7908,4.7908,4.6928,4.6552,4.7043,4.61,4.5221,4.4644,4.3966,4.3413,4.2986,4.2986,4.2986,4.2986,4.2986,4.2986,4.2961,4.259,4.2338,4.2187,4.158,4.105,4.0701,4.0425,4.0149,3.9898,3.9898,3.9898,3.9898,4.0023,4.0425,4.0802,4.0124,4.0249,4.0626,4.0074,3.9798,3.9722,3.9848,3.9798,3.9697,3.9697,3.9396,3.8944,3.8366,3.8115,3.7914,3.7487,3.7387,3.7262,3.6883,3.6782,3.6782,3.6782,3.6307,3.5884,3.5884,3.5027,3.4424,3.4806,0.0,0.0,0.0,3.4098,3.4299,3.4806,3.5232,3.5755,3.6355,3.6405,3.6405,3.6405,3.6405,3.6405,3.6405,3.6405,3.6455,3.6606,3.6606,3.6933,3.7563,3.7612,3.8065,3.912,3.912,3.927,3.9697,3.9697,3.9697,3.9697,3.9697,3.9697,3.9697,3.9697,3.9697,3.9697,3.9697,3.9697,3.9697,3.9697,3.9772,3.9898,4.6301,4.6301,4.6301,4.6301,4.6301,4.6301,4.6301,4.6301,4.6527,4.7043,4.7606,4.7933,4.7958,4.7933,4.7908,4.7908,4.6928,4.6552,4.7043,4.61,4.5221,4.4644,4.3614,4.3011,4.2986,4.2986,4.2986,4.2986,4.2986,4.2986,4.2986,4.2936,4.269,4.2187,4.158,4.125,4.115,4.0199,4.0023,4.045,4.045,4.045,4.0501,4.0974,4.1555,4.1961,4.0827,4.0802,4.115,4.0651,4.0124,3.9798,4.03,4.0099,3.9697,3.9697,3.9672,3.9521,3.8969,3.8417,3.799,3.7965,3.7939,3.7939,3.7889,3.7889,3.7889,3.7889,3.7437,3.7061,3.7061,3.6157,3.5382,3.5433,0.0,0.0,3.465,3.463,3.4831,3.5382,3.5483,3.5755,3.6355,3.6405,3.6405,3.6405,3.6405,3.6405,3.6405,3.6405,3.6631,3.7111,3.7136,3.7638,3.8793,3.8793,3.9095,3.9647,3.9647,3.9647,3.9697,3.9697,3.9697,3.9697,3.9697,3.9697,3.9697,3.9697,3.9697,3.9697,3.9697,3.9697,3.9697,3.9697,4.0023,4.045,4.6301,4.6301,4.6301,4.6301,4.6301,4.6301,4.6301,4.6301,4.6502,4.7054,4.7305,4.7556,4.7883,4.7631,4.7556,4.7883,4.6928,4.6552,4.7043,4.6426,4.5422,4.4166,4.3388,4.2986,4.2986,4.2986,4.2986,4.2986,4.2986,4.2986,4.2986,4.2986,4.2861,4.2715,4.2459,4.2158,4.1806,4.1404,4.1153,4.0974,4.0974,4.0974,4.1,4.12,4.1681,4.2062,4.0902,4.1078,4.1706,4.0827,4.0375,4.0249,4.045,4.0149,3.9697,3.9697,3.9697,3.9647,3.9446,3.922,3.8969,3.8617,3.8542,3.8442,3.809,3.8015,3.8015,3.8015,3.7839,3.7688,3.7688,3.7061,3.6659,3.701,0.0,3.5353,3.5705,3.5454,3.5257,3.5483,3.611,3.6634,3.686,3.7186,3.7387,3.7387,3.7387,3.7387,3.7387,3.7387,3.7638,3.8265,3.8216,3.8492,3.8919,3.8919,3.9145,3.9697,3.9697,3.9697,3.9697,3.9697,3.9697,3.9697,3.9697,3.9697,3.9697,3.9697,3.9697,3.9697,3.9697,3.9697,3.9747,4.0074,4.035,4.0576,4.6301,4.6301,4.6301,4.6301,4.6301,4.6301,4.6301,4.6301,4.6451,4.6828,4.7029,4.7205,4.738,4.723,4.728,4.7631,4.6828,4.6552,4.7043,4.6276,4.5271,4.4116,4.3363,4.2986,4.2986,4.2986,4.2986,4.2986,4.2986,4.2986,4.2986,4.2986,4.2986,4.2961,4.2785,4.2665,4.2439,4.2057,4.1781,4.1605,4.1605,4.1605,4.1605,4.1781,4.2082,4.2338,4.1354,4.153,4.2087,4.1279,4.0927,4.0777,4.0777,4.0275,3.9722,3.9898,3.9948,3.9923,3.9747,3.9948,4.0049,3.932,3.912,3.9019,3.8617,3.8542,3.8542,3.8542,3.8391,3.8266,3.8266,3.7814,3.7563,3.7939,3.7061,3.6458,3.6835,3.6558,3.6285,3.6285,3.6985,3.7437,3.7437,3.7789,3.8015,3.8015,3.8015,3.8015,3.8015,3.8191,3.8467,3.8919,3.9044,3.912,3.912,3.912,3.932,3.9697,3.9697,3.9697,3.9697,3.9697,3.9697,3.9697,3.9697,3.9697,3.9697,3.9697,3.9697,3.9697,3.9697,3.9697,3.9747,4.03,4.0626,4.0852,4.6326,4.6301,4.6301,4.6326,4.6301,4.6301,4.6301,4.6301,4.6301,4.6301,4.6778,4.6928,4.6376,4.6803,4.7068,4.7068,4.6627,4.6552,4.7043,4.5547,4.4644,4.4644,4.3564,4.2986,4.2986,4.2986,4.2986,4.2986,4.2986,4.2986,4.2986,4.2986,4.2986,4.2961,4.2464,4.2514,4.2911,4.1806,4.1656,4.2213,4.2213,4.2213,4.2288,4.2816,4.2986,4.2911,4.2414,4.2213,4.2213,4.2213,4.1781,4.13,4.1275,4.0601,3.9823,4.035,4.0526,4.04,3.9848,4.0501,4.1025,3.9973,3.9697,3.9697,3.9697,3.9697,3.9697,3.9697,3.927,3.8919,3.8919,3.8417,3.8015,3.8015,3.8015,3.8015,3.8015,3.8015,3.8015,3.8015,3.8015,3.8015,3.8015,3.8015,3.8015,3.8015,3.8015,3.8015,3.8015,3.8567,3.8919,3.8919,3.9396,3.9697,3.9697,3.9697,3.9697,3.9697,3.9697,3.9697,3.9697,3.9697,3.9697,3.9697,3.9697,3.9697,3.9697,3.9697,3.9697,3.9697,3.9697,3.9697,3.9772,4.0325,4.0824,4.1376,4.6803,4.6577,4.6426,4.6828,4.6577,4.6301,4.6301,4.6301,4.6301,4.6301,4.6451,4.6502,4.6326,4.6451,4.6552,4.6552,4.6401,4.6376,4.6552,4.5723,4.5221,4.5221,4.379,4.2986,4.2986,4.2986,4.2986,4.2986,4.2986,4.2986,4.2986,4.2986,4.2986,4.2961,4.2811,4.2866,4.2961,4.2635,4.2811,4.3263,4.2886,4.2961,4.3288,4.3062,4.2986,4.2911,4.2414,4.2464,4.2715,4.2338,4.2112,4.1856,4.1401,4.1075,4.0824,4.1,4.105,4.1,4.0902,4.105,4.1025,3.9973,3.9973,4.0174,3.9798,3.9697,3.9697,3.9697,3.9572,3.9446,3.9446,3.9295,3.9195,3.9195,3.8868,3.8617,3.8617,3.8266,3.8015,3.8015,3.8366,3.8617,3.8617,3.8969,3.9195,3.9195,3.9195,3.9195,3.9195,3.9346,3.9446,3.9446,3.9622,3.9697,3.9697,3.9697,3.9697,3.9697,3.9697,3.9697,3.9697,3.9697,3.9697,3.9697,3.9697,3.9697,3.9697,3.9697,3.9697,3.9697,3.9697,3.9697,3.9798,4.0752,4.115,4.1426,4.6753,4.6552,4.6426,4.6753,4.6527,4.6301,4.6301,4.6301,4.6301,4.6301,4.6301,4.6301,4.6301,4.6301,4.6301,4.6301,4.6301,4.6225,4.5999,4.5673,4.5372,4.5146,4.4166,4.3539,4.3313,4.3087,4.2986,4.2986,4.3187,4.3313,4.3313,4.3313,4.3313,4.3288,4.3062,4.3112,4.3313,4.3313,4.3614,4.4091,4.3765,4.3689,4.379,4.3664,4.3489,4.3288,4.3162,4.3338,4.3539,4.2986,4.2564,4.2187,4.2032,4.1626,4.1326,4.1605,4.1656,4.1605,4.1351,4.1601,4.1731,4.0626,4.0425,4.0475,4.0375,4.0174,4.0074,4.03,4.0174,4.0023,4.0023,3.9848,3.9697,3.9697,3.9421,3.9195,3.9195,3.8894,3.8668,3.8668,3.8994,3.9195,3.9195,3.9496,3.9697,3.9697,3.9697,3.9697,3.9697,3.9697,3.9697,3.9697,3.9697,3.9697,3.9697,3.9697,3.9697,3.9697,3.9697,3.9697,3.9697,3.9697,3.9697,3.9697,3.9697,3.9697,3.9697,3.9697,3.9697,3.9697,3.9697,3.9697,3.9798,4.0701,4.11,4.1401,4.6376,4.6351,4.6326,4.6376,4.6351,4.6301,4.6301,4.6301,4.6301,4.6301,4.6301,4.6301,4.6301,4.6301,4.6301,4.6301,4.6301,4.61,4.5598,4.5573,4.5321,4.4794,4.4719,4.4468,4.3966,4.3413,4.3112,4.3062,4.3614,4.3865,4.3865,4.3815,4.379,4.379,4.3212,4.3263,4.374,4.379,4.4116,4.4618,4.4618,4.4342,4.3991,4.4443,4.4317,4.394,4.4443,4.4618,4.4543,4.3991,4.3137,4.2439,4.2836,4.2283,4.158,4.2082,4.2288,4.2162,4.163,4.2208,4.2735,4.1731,4.1078,4.0777,4.1175,4.0899,4.0727,4.1175,4.0874,4.0576,4.0526,4.0149,3.9798,3.9722,3.9747,3.9747,3.9697,3.9697,3.9697,3.9697,3.9697,3.9697,3.9697,3.9697,3.9697,3.9697,3.9697,3.9697,3.9697,3.9697,3.9697,3.9697,3.9747,3.9772,3.9772,3.9823,3.9798,3.9697,3.9697,3.9697,3.9697,3.9697,3.9697,3.9697,3.9697,3.9697,3.9697,3.9697,3.9697,3.9697,3.9697,3.9697,3.9772,4.0375,4.0824,4.13,4.6878,4.6602,4.6451,4.6878,4.6602,4.6301,4.6301,4.6301,4.6301,4.6301,4.6301,4.6301,4.6301,4.6301,4.6301,4.6301,4.6301,4.625,4.6125,4.6125,4.6075,4.5949,4.5522,4.5246,4.5121,4.4568,4.4066,4.3614,4.4166,4.4443,4.4443,4.4016,4.379,4.379,4.3212,4.3037,4.3187,4.3614,4.4116,4.4618,4.4618,4.4819,4.507,4.4744,4.4543,4.4468,4.4593,4.4618,4.4543,4.3991,4.3639,4.3388,4.3087,4.2811,4.2635,4.276,4.2866,4.2816,4.266,4.2785,4.2911,4.2685,4.2208,4.1731,4.1351,4.12,4.115,4.125,4.12,4.0974,4.0601,4.0777,4.0701,3.9848,4.0049,4.0199,3.9747,3.9697,3.9697,3.9697,3.9697,3.9697,3.9697,3.9697,3.9697,3.9697,3.9697,3.9697,3.9697,3.9697,3.9697,3.9697,4.0124,4.035,4.035,4.0752,4.0551,3.9697,3.9697,3.9697,3.9697,3.9697,3.9697,3.9697,3.9697,3.9697,3.9697,3.9697,3.9697,3.9697,3.9697,3.9697,3.9823,4.0802,4.0899,4.0827,4.6677,4.6502,4.6401,4.6702,4.6502,4.6301,4.6301,4.6527,4.6702,4.6702,4.6702,4.6702,4.6702,4.6476,4.6301,4.6301,4.6301,4.6301,4.6301,4.6301,4.6301,4.6301,4.6024,4.5748,4.5497,4.5447,4.502,4.4192,4.4769,4.4895,4.4618,4.4317,4.4066,4.379,4.3212,4.3263,4.3765,4.379,4.4443,4.5397,4.5146,4.5221,4.5472,4.5447,4.5271,4.507,4.5347,4.5271,4.4995,4.4694,4.4242,4.374,4.3463,4.3187,4.2986,4.2986,4.2986,4.2986,4.2986,4.2986,4.3037,4.3313,4.2961,4.2514,4.2183,4.1907,4.1806,4.2057,4.1907,4.163,4.1354,4.1329,4.11,4.0576,4.0727,4.0701,4.0174,4.0099,3.9998,3.9722,3.9697,3.9697,3.9697,3.9697,3.9697,3.9697,3.9697,3.9697,3.9697,3.9948,4.0099,4.0099,4.0626,4.0849,4.0849,4.115,4.1,4.0475,4.0475,4.0475,4.0475,4.0475,4.0475,4.0475,4.0199,4.0099,4.0074,3.9798,3.9697,3.9697,3.9697,3.9697,3.9772,4.035,4.0701,4.1028,4.6301,4.6301,4.6301,4.6301,4.6301,4.6301,4.6301,4.6702,4.6943,4.6943,4.6943,4.6943,4.6943,4.6577,4.6301,4.6301,4.6301,4.6301,4.6301,4.6301,4.6301,4.6301,4.6301,4.61,4.5648,4.6075,4.5799,4.4769,4.5347,4.5372,4.492,4.4719,4.4367,4.3915,4.3263,4.3489,4.4317,4.3966,4.4669,4.5999,4.5623,4.5547,4.5673,4.6125,4.6024,4.5673,4.615,4.6024,4.5623,4.5522,4.4869,4.4066,4.3966,4.3639,4.3263,4.3263,4.3187,4.3137,4.3237,4.3187,4.3263,4.379,4.3589,4.3263,4.3263,4.2891,4.259,4.2911,4.274,4.2439,4.2238,4.1856,4.1501,4.1326,4.1376,4.1279,4.0727,4.0576,4.035,3.9898,3.9848,3.9873,3.9973,3.9898,3.9873,3.9973,3.9898,3.9873,3.9973,4.04,4.0651,4.0651,4.1204,4.148,4.148,4.1526,4.1551,4.1551,4.1551,4.1476,4.1275,4.1275,4.1275,4.125,4.0752,4.0576,4.0626,4.0074,3.9898,3.9973,3.9973,3.9973,3.9973,3.9873,4.0601,4.1601,4.6301,4.6301,4.6301,4.6301,4.6301,4.6301,4.6301,4.6376,4.6426,4.6426,4.6426,4.6426,4.6426,4.6351,4.6301,4.6301,4.6301,4.6301,4.6301,4.6301,4.6301,4.6301,4.6301,4.6276,4.62,4.6276,4.5999,4.5372,4.5924,4.615,4.605,4.507,4.4593,4.4468,4.3438,4.3062,4.3212,4.3639,4.4217,4.4895,4.5321,4.5773,4.62,4.6276,4.625,4.62,4.6276,4.625,4.6125,4.5648,4.5397,4.5171,4.4669,4.4468,4.4392,4.4392,4.4066,4.379,4.4267,4.4066,4.3815,4.4367,4.4468,4.4392,4.4392,4.3966,4.3463,4.3062,4.3288,4.3288,4.2389,4.2484,4.2434,4.1451,4.1731,4.1856,4.1304,4.0774,4.0501,4.0425,4.04,4.0601,4.1025,4.0676,4.0601,4.1025,4.0676,4.0601,4.105,4.1125,4.1175,4.1175,4.1756,4.2112,4.2112,4.2509,4.276,4.276,4.276,4.2258,4.1275,4.1275,4.1275,4.125,4.0752,4.0724,4.1125,4.0626,4.0701,4.1075,4.1075,4.1075,4.1,4.0576,4.1404,4.2635,4.6301,4.6301,4.6301,4.6301,4.6301,4.6301,4.6301,4.6577,4.6778,4.6778,4.6778,4.6778,4.6778,4.6502,4.6301,4.6301,4.6301,4.6301,4.6301,4.6301,4.6301,4.6301,4.6301,4.6301,4.6301,4.6301,4.62,4.5949,4.62,4.615,4.5849,4.5347,4.4945,4.4593,4.4116,4.4091,4.4367,4.4292,4.4769,4.5573,4.5497,4.5824,4.6301,4.6301,4.6301,4.6301,4.6301,4.6301,4.6276,4.6024,4.5748,4.5447,4.5196,4.4895,4.4618,4.4618,4.4443,4.4317,4.4568,4.4443,4.4392,4.497,4.4869,4.4719,4.502,4.492,4.4593,4.4016,4.4091,4.4016,4.3212,4.3539,4.3639,4.2836,4.2911,4.2886,4.2333,4.1781,4.1329,4.1003,4.0924,4.1025,4.125,4.1075,4.1025,4.1275,4.1075,4.1025,4.1275,4.163,4.1781,4.1781,4.2333,4.2665,4.2665,4.2861,4.2986,4.2986,4.2986,4.2735,4.2258,4.2258,4.2258,4.2233,4.1681,4.158,4.1756,4.1204,4.1075,4.1275,4.1275,4.1275,4.125,4.1025,4.163,4.2514]}]]